<?xml version="1.0" encoding="UTF-8" standalone="no" ?>
<gpx xmlns="http://www.topografix.com/GPX/1/1" xmlns:xsi="http://www.w3.org/2001/XMLSchema-instance" xsi:schemaLocation="http://www.topografix.com/GPX/1/1 http://www.topografix.com/GPX/1/1/gpx.xsd" version="1.1" creator="VisuGPX - https://www.visugpx.com">
  <metadata>
    <name>RSPFY-Méridon 2</name>
    <desc><![CDATA[Boucle de marche nordique dans le bois de Méridon.]]></desc>
  </metadata>
  <trk>
    <name><![CDATA[2019-05-16 09:24]]></name>
    <trkseg>
      <trkpt lat="48.6944" lon="2.03727">
        <ele>164</ele>
        <time>2019-05-16T07:28:52Z</time>
      </trkpt>
      <trkpt lat="48.69435" lon="2.0373">
        <ele>164</ele>
        <time>2019-05-16T07:30:02Z</time>
      </trkpt>
      <trkpt lat="48.69438" lon="2.03725">
        <ele>164</ele>
        <time>2019-05-16T07:30:34Z</time>
      </trkpt>
      <trkpt lat="48.69441" lon="2.03718">
        <ele>164</ele>
        <time>2019-05-16T07:30:42Z</time>
      </trkpt>
      <trkpt lat="48.69446" lon="2.03709">
        <ele>164</ele>
        <time>2019-05-16T07:30:48Z</time>
      </trkpt>
      <trkpt lat="48.69449" lon="2.03703">
        <ele>164</ele>
        <time>2019-05-16T07:30:52Z</time>
      </trkpt>
      <trkpt lat="48.69451" lon="2.03697">
        <ele>164</ele>
        <time>2019-05-16T07:30:56Z</time>
      </trkpt>
      <trkpt lat="48.6945" lon="2.03688">
        <ele>164</ele>
        <time>2019-05-16T07:31:02Z</time>
      </trkpt>
      <trkpt lat="48.69444" lon="2.03682">
        <ele>163</ele>
        <time>2019-05-16T07:31:12Z</time>
      </trkpt>
      <trkpt lat="48.6944" lon="2.03678">
        <ele>163</ele>
        <time>2019-05-16T07:31:20Z</time>
      </trkpt>
      <trkpt lat="48.69435" lon="2.03675">
        <ele>163</ele>
        <time>2019-05-16T07:31:30Z</time>
      </trkpt>
      <trkpt lat="48.69431" lon="2.03671">
        <ele>163</ele>
        <time>2019-05-16T07:31:36Z</time>
      </trkpt>
      <trkpt lat="48.69425" lon="2.03669">
        <ele>163</ele>
        <time>2019-05-16T07:31:44Z</time>
      </trkpt>
      <trkpt lat="48.6942" lon="2.03667">
        <ele>162</ele>
        <time>2019-05-16T07:31:48Z</time>
      </trkpt>
      <trkpt lat="48.69414" lon="2.03663">
        <ele>161</ele>
        <time>2019-05-16T07:31:52Z</time>
      </trkpt>
      <trkpt lat="48.69409" lon="2.03662">
        <ele>161</ele>
        <time>2019-05-16T07:31:56Z</time>
      </trkpt>
      <trkpt lat="48.69403" lon="2.03659">
        <ele>161</ele>
        <time>2019-05-16T07:32:00Z</time>
      </trkpt>
      <trkpt lat="48.69396" lon="2.03658">
        <ele>160</ele>
        <time>2019-05-16T07:32:04Z</time>
      </trkpt>
      <trkpt lat="48.69392" lon="2.03657">
        <ele>160</ele>
        <time>2019-05-16T07:32:08Z</time>
      </trkpt>
      <trkpt lat="48.69387" lon="2.03654">
        <ele>160</ele>
        <time>2019-05-16T07:32:12Z</time>
      </trkpt>
      <trkpt lat="48.69379" lon="2.03652">
        <ele>160</ele>
        <time>2019-05-16T07:32:16Z</time>
      </trkpt>
      <trkpt lat="48.69375" lon="2.03648">
        <ele>160</ele>
        <time>2019-05-16T07:32:20Z</time>
      </trkpt>
      <trkpt lat="48.69369" lon="2.03644">
        <ele>159</ele>
        <time>2019-05-16T07:32:24Z</time>
      </trkpt>
      <trkpt lat="48.69365" lon="2.03642">
        <ele>159</ele>
        <time>2019-05-16T07:32:28Z</time>
      </trkpt>
      <trkpt lat="48.6936" lon="2.03636">
        <ele>159</ele>
        <time>2019-05-16T07:32:32Z</time>
      </trkpt>
      <trkpt lat="48.69355" lon="2.03632">
        <ele>159</ele>
        <time>2019-05-16T07:32:36Z</time>
      </trkpt>
      <trkpt lat="48.69349" lon="2.03629">
        <ele>159</ele>
        <time>2019-05-16T07:32:40Z</time>
      </trkpt>
      <trkpt lat="48.69344" lon="2.03627">
        <ele>159</ele>
        <time>2019-05-16T07:32:44Z</time>
      </trkpt>
      <trkpt lat="48.69339" lon="2.0362">
        <ele>158</ele>
        <time>2019-05-16T07:32:48Z</time>
      </trkpt>
      <trkpt lat="48.69335" lon="2.03614">
        <ele>158</ele>
        <time>2019-05-16T07:32:52Z</time>
      </trkpt>
      <trkpt lat="48.69328" lon="2.03609">
        <ele>158</ele>
        <time>2019-05-16T07:32:56Z</time>
      </trkpt>
      <trkpt lat="48.69322" lon="2.03606">
        <ele>158</ele>
        <time>2019-05-16T07:33:00Z</time>
      </trkpt>
      <trkpt lat="48.69317" lon="2.03603">
        <ele>158</ele>
        <time>2019-05-16T07:33:04Z</time>
      </trkpt>
      <trkpt lat="48.69312" lon="2.03598">
        <ele>158</ele>
        <time>2019-05-16T07:33:08Z</time>
      </trkpt>
      <trkpt lat="48.69309" lon="2.03593">
        <ele>158</ele>
        <time>2019-05-16T07:33:12Z</time>
      </trkpt>
      <trkpt lat="48.69304" lon="2.03589">
        <ele>158</ele>
        <time>2019-05-16T07:33:16Z</time>
      </trkpt>
      <trkpt lat="48.69299" lon="2.03585">
        <ele>158</ele>
        <time>2019-05-16T07:33:20Z</time>
      </trkpt>
      <trkpt lat="48.69293" lon="2.0358">
        <ele>157</ele>
        <time>2019-05-16T07:33:24Z</time>
      </trkpt>
      <trkpt lat="48.69287" lon="2.03575">
        <ele>157</ele>
        <time>2019-05-16T07:33:30Z</time>
      </trkpt>
      <trkpt lat="48.69283" lon="2.03572">
        <ele>158</ele>
        <time>2019-05-16T07:33:34Z</time>
      </trkpt>
      <trkpt lat="48.69278" lon="2.03571">
        <ele>158</ele>
        <time>2019-05-16T07:33:38Z</time>
      </trkpt>
      <trkpt lat="48.69273" lon="2.03569">
        <ele>158</ele>
        <time>2019-05-16T07:33:42Z</time>
      </trkpt>
      <trkpt lat="48.69267" lon="2.03565">
        <ele>158</ele>
        <time>2019-05-16T07:33:46Z</time>
      </trkpt>
      <trkpt lat="48.69262" lon="2.0356">
        <ele>158</ele>
        <time>2019-05-16T07:33:50Z</time>
      </trkpt>
      <trkpt lat="48.69256" lon="2.03556">
        <ele>158</ele>
        <time>2019-05-16T07:33:54Z</time>
      </trkpt>
      <trkpt lat="48.6925" lon="2.03554">
        <ele>160</ele>
        <time>2019-05-16T07:33:58Z</time>
      </trkpt>
      <trkpt lat="48.69245" lon="2.03551">
        <ele>160</ele>
        <time>2019-05-16T07:34:02Z</time>
      </trkpt>
      <trkpt lat="48.69241" lon="2.03548">
        <ele>160</ele>
        <time>2019-05-16T07:34:06Z</time>
      </trkpt>
      <trkpt lat="48.69236" lon="2.03542">
        <ele>160</ele>
        <time>2019-05-16T07:34:10Z</time>
      </trkpt>
      <trkpt lat="48.6923" lon="2.03538">
        <ele>160</ele>
        <time>2019-05-16T07:34:14Z</time>
      </trkpt>
      <trkpt lat="48.69225" lon="2.03534">
        <ele>160</ele>
        <time>2019-05-16T07:34:20Z</time>
      </trkpt>
      <trkpt lat="48.6922" lon="2.03531">
        <ele>160</ele>
        <time>2019-05-16T07:34:24Z</time>
      </trkpt>
      <trkpt lat="48.69214" lon="2.0353">
        <ele>160</ele>
        <time>2019-05-16T07:34:28Z</time>
      </trkpt>
      <trkpt lat="48.69207" lon="2.03528">
        <ele>160</ele>
        <time>2019-05-16T07:34:32Z</time>
      </trkpt>
      <trkpt lat="48.692" lon="2.03525">
        <ele>160</ele>
        <time>2019-05-16T07:34:36Z</time>
      </trkpt>
      <trkpt lat="48.69192" lon="2.03521">
        <ele>160</ele>
        <time>2019-05-16T07:34:40Z</time>
      </trkpt>
      <trkpt lat="48.69188" lon="2.03519">
        <ele>160</ele>
        <time>2019-05-16T07:34:42Z</time>
      </trkpt>
      <trkpt lat="48.69182" lon="2.03516">
        <ele>160</ele>
        <time>2019-05-16T07:34:44Z</time>
      </trkpt>
      <trkpt lat="48.69178" lon="2.03511">
        <ele>161</ele>
        <time>2019-05-16T07:34:46Z</time>
      </trkpt>
      <trkpt lat="48.69173" lon="2.03507">
        <ele>161</ele>
        <time>2019-05-16T07:34:48Z</time>
      </trkpt>
      <trkpt lat="48.69169" lon="2.03503">
        <ele>161</ele>
        <time>2019-05-16T07:34:50Z</time>
      </trkpt>
      <trkpt lat="48.69162" lon="2.03497">
        <ele>161</ele>
        <time>2019-05-16T07:34:54Z</time>
      </trkpt>
      <trkpt lat="48.69158" lon="2.03493">
        <ele>161</ele>
        <time>2019-05-16T07:34:56Z</time>
      </trkpt>
      <trkpt lat="48.69152" lon="2.03486">
        <ele>161</ele>
        <time>2019-05-16T07:35:00Z</time>
      </trkpt>
      <trkpt lat="48.69147" lon="2.03477">
        <ele>160</ele>
        <time>2019-05-16T07:35:04Z</time>
      </trkpt>
      <trkpt lat="48.69143" lon="2.03467">
        <ele>160</ele>
        <time>2019-05-16T07:35:08Z</time>
      </trkpt>
      <trkpt lat="48.69138" lon="2.03457">
        <ele>160</ele>
        <time>2019-05-16T07:35:12Z</time>
      </trkpt>
      <trkpt lat="48.69132" lon="2.0345">
        <ele>160</ele>
        <time>2019-05-16T07:35:16Z</time>
      </trkpt>
      <trkpt lat="48.6913" lon="2.03444">
        <ele>161</ele>
        <time>2019-05-16T07:35:20Z</time>
      </trkpt>
      <trkpt lat="48.69127" lon="2.03436">
        <ele>161</ele>
        <time>2019-05-16T07:35:24Z</time>
      </trkpt>
      <trkpt lat="48.69124" lon="2.03427">
        <ele>161</ele>
        <time>2019-05-16T07:35:28Z</time>
      </trkpt>
      <trkpt lat="48.69122" lon="2.03418">
        <ele>161</ele>
        <time>2019-05-16T07:35:32Z</time>
      </trkpt>
      <trkpt lat="48.69121" lon="2.03408">
        <ele>162</ele>
        <time>2019-05-16T07:35:36Z</time>
      </trkpt>
      <trkpt lat="48.69122" lon="2.03396">
        <ele>163</ele>
        <time>2019-05-16T07:35:40Z</time>
      </trkpt>
      <trkpt lat="48.69121" lon="2.03389">
        <ele>163</ele>
        <time>2019-05-16T07:35:44Z</time>
      </trkpt>
      <trkpt lat="48.69122" lon="2.03379">
        <ele>163</ele>
        <time>2019-05-16T07:35:50Z</time>
      </trkpt>
      <trkpt lat="48.69125" lon="2.03372">
        <ele>163</ele>
        <time>2019-05-16T07:35:54Z</time>
      </trkpt>
      <trkpt lat="48.69126" lon="2.03362">
        <ele>163</ele>
        <time>2019-05-16T07:36:00Z</time>
      </trkpt>
      <trkpt lat="48.69128" lon="2.03353">
        <ele>163</ele>
        <time>2019-05-16T07:36:04Z</time>
      </trkpt>
      <trkpt lat="48.69131" lon="2.03344">
        <ele>163</ele>
        <time>2019-05-16T07:36:10Z</time>
      </trkpt>
      <trkpt lat="48.69132" lon="2.03337">
        <ele>163</ele>
        <time>2019-05-16T07:36:14Z</time>
      </trkpt>
      <trkpt lat="48.69132" lon="2.03329">
        <ele>165</ele>
        <time>2019-05-16T07:36:18Z</time>
      </trkpt>
      <trkpt lat="48.69133" lon="2.03321">
        <ele>165</ele>
        <time>2019-05-16T07:36:22Z</time>
      </trkpt>
      <trkpt lat="48.69133" lon="2.03313">
        <ele>165</ele>
        <time>2019-05-16T07:36:26Z</time>
      </trkpt>
      <trkpt lat="48.69134" lon="2.03305">
        <ele>165</ele>
        <time>2019-05-16T07:36:30Z</time>
      </trkpt>
      <trkpt lat="48.69136" lon="2.03297">
        <ele>165</ele>
        <time>2019-05-16T07:36:32Z</time>
      </trkpt>
      <trkpt lat="48.69138" lon="2.0329">
        <ele>165</ele>
        <time>2019-05-16T07:36:36Z</time>
      </trkpt>
      <trkpt lat="48.6914" lon="2.03282">
        <ele>165</ele>
        <time>2019-05-16T07:36:42Z</time>
      </trkpt>
      <trkpt lat="48.69143" lon="2.03275">
        <ele>165</ele>
        <time>2019-05-16T07:36:46Z</time>
      </trkpt>
      <trkpt lat="48.69144" lon="2.03266">
        <ele>165</ele>
        <time>2019-05-16T07:36:50Z</time>
      </trkpt>
      <trkpt lat="48.69144" lon="2.03258">
        <ele>165</ele>
        <time>2019-05-16T07:36:56Z</time>
      </trkpt>
      <trkpt lat="48.69145" lon="2.03248">
        <ele>166</ele>
        <time>2019-05-16T07:37:00Z</time>
      </trkpt>
      <trkpt lat="48.69147" lon="2.0324">
        <ele>166</ele>
        <time>2019-05-16T07:37:04Z</time>
      </trkpt>
      <trkpt lat="48.69149" lon="2.0323">
        <ele>166</ele>
        <time>2019-05-16T07:37:10Z</time>
      </trkpt>
      <trkpt lat="48.69149" lon="2.0322">
        <ele>167</ele>
        <time>2019-05-16T07:37:14Z</time>
      </trkpt>
      <trkpt lat="48.6915" lon="2.03212">
        <ele>167</ele>
        <time>2019-05-16T07:37:18Z</time>
      </trkpt>
      <trkpt lat="48.69149" lon="2.03204">
        <ele>167</ele>
        <time>2019-05-16T07:37:22Z</time>
      </trkpt>
      <trkpt lat="48.69149" lon="2.03194">
        <ele>167</ele>
        <time>2019-05-16T07:37:26Z</time>
      </trkpt>
      <trkpt lat="48.6915" lon="2.03185">
        <ele>168</ele>
        <time>2019-05-16T07:37:30Z</time>
      </trkpt>
      <trkpt lat="48.69148" lon="2.03176">
        <ele>168</ele>
        <time>2019-05-16T07:37:34Z</time>
      </trkpt>
      <trkpt lat="48.69148" lon="2.03168">
        <ele>168</ele>
        <time>2019-05-16T07:37:38Z</time>
      </trkpt>
      <trkpt lat="48.69149" lon="2.0316">
        <ele>168</ele>
        <time>2019-05-16T07:37:42Z</time>
      </trkpt>
      <trkpt lat="48.69149" lon="2.03151">
        <ele>168</ele>
        <time>2019-05-16T07:37:46Z</time>
      </trkpt>
      <trkpt lat="48.69149" lon="2.03142">
        <ele>168</ele>
        <time>2019-05-16T07:37:50Z</time>
      </trkpt>
      <trkpt lat="48.69147" lon="2.03133">
        <ele>168</ele>
        <time>2019-05-16T07:37:54Z</time>
      </trkpt>
      <trkpt lat="48.69148" lon="2.03126">
        <ele>167</ele>
        <time>2019-05-16T07:38:00Z</time>
      </trkpt>
      <trkpt lat="48.69151" lon="2.03118">
        <ele>167</ele>
        <time>2019-05-16T07:38:04Z</time>
      </trkpt>
      <trkpt lat="48.69154" lon="2.03111">
        <ele>167</ele>
        <time>2019-05-16T07:38:08Z</time>
      </trkpt>
      <trkpt lat="48.69159" lon="2.03104">
        <ele>167</ele>
        <time>2019-05-16T07:38:12Z</time>
      </trkpt>
      <trkpt lat="48.69165" lon="2.03096">
        <ele>166</ele>
        <time>2019-05-16T07:38:16Z</time>
      </trkpt>
      <trkpt lat="48.69169" lon="2.03094">
        <ele>164</ele>
        <time>2019-05-16T07:38:20Z</time>
      </trkpt>
      <trkpt lat="48.69174" lon="2.03091">
        <ele>164</ele>
        <time>2019-05-16T07:38:24Z</time>
      </trkpt>
      <trkpt lat="48.69179" lon="2.03088">
        <ele>164</ele>
        <time>2019-05-16T07:38:28Z</time>
      </trkpt>
      <trkpt lat="48.69184" lon="2.03084">
        <ele>163</ele>
        <time>2019-05-16T07:38:34Z</time>
      </trkpt>
      <trkpt lat="48.69188" lon="2.03081">
        <ele>162</ele>
        <time>2019-05-16T07:38:38Z</time>
      </trkpt>
      <trkpt lat="48.69193" lon="2.03076">
        <ele>161</ele>
        <time>2019-05-16T07:38:42Z</time>
      </trkpt>
      <trkpt lat="48.69199" lon="2.03073">
        <ele>161</ele>
        <time>2019-05-16T07:38:46Z</time>
      </trkpt>
      <trkpt lat="48.69205" lon="2.03071">
        <ele>160</ele>
        <time>2019-05-16T07:38:50Z</time>
      </trkpt>
      <trkpt lat="48.69209" lon="2.03069">
        <ele>160</ele>
        <time>2019-05-16T07:38:54Z</time>
      </trkpt>
      <trkpt lat="48.69214" lon="2.03064">
        <ele>160</ele>
        <time>2019-05-16T07:38:58Z</time>
      </trkpt>
      <trkpt lat="48.69217" lon="2.03057">
        <ele>160</ele>
        <time>2019-05-16T07:39:04Z</time>
      </trkpt>
      <trkpt lat="48.69222" lon="2.0305">
        <ele>159</ele>
        <time>2019-05-16T07:39:08Z</time>
      </trkpt>
      <trkpt lat="48.69223" lon="2.03041">
        <ele>159</ele>
        <time>2019-05-16T07:39:14Z</time>
      </trkpt>
      <trkpt lat="48.69224" lon="2.03033">
        <ele>159</ele>
        <time>2019-05-16T07:39:18Z</time>
      </trkpt>
      <trkpt lat="48.69223" lon="2.03023">
        <ele>159</ele>
        <time>2019-05-16T07:39:24Z</time>
      </trkpt>
      <trkpt lat="48.69222" lon="2.03015">
        <ele>158</ele>
        <time>2019-05-16T07:39:28Z</time>
      </trkpt>
      <trkpt lat="48.69222" lon="2.03008">
        <ele>158</ele>
        <time>2019-05-16T07:39:32Z</time>
      </trkpt>
      <trkpt lat="48.6922" lon="2.02999">
        <ele>157</ele>
        <time>2019-05-16T07:39:36Z</time>
      </trkpt>
      <trkpt lat="48.69218" lon="2.0299">
        <ele>157</ele>
        <time>2019-05-16T07:39:40Z</time>
      </trkpt>
      <trkpt lat="48.69218" lon="2.0298">
        <ele>157</ele>
        <time>2019-05-16T07:39:44Z</time>
      </trkpt>
      <trkpt lat="48.69219" lon="2.02971">
        <ele>157</ele>
        <time>2019-05-16T07:39:48Z</time>
      </trkpt>
      <trkpt lat="48.69216" lon="2.02965">
        <ele>157</ele>
        <time>2019-05-16T07:39:52Z</time>
      </trkpt>
      <trkpt lat="48.69217" lon="2.02957">
        <ele>157</ele>
        <time>2019-05-16T07:39:56Z</time>
      </trkpt>
      <trkpt lat="48.69217" lon="2.02949">
        <ele>157</ele>
        <time>2019-05-16T07:40:00Z</time>
      </trkpt>
      <trkpt lat="48.69216" lon="2.02941">
        <ele>157</ele>
        <time>2019-05-16T07:40:06Z</time>
      </trkpt>
      <trkpt lat="48.69213" lon="2.02933">
        <ele>157</ele>
        <time>2019-05-16T07:40:10Z</time>
      </trkpt>
      <trkpt lat="48.69211" lon="2.02924">
        <ele>157</ele>
        <time>2019-05-16T07:40:14Z</time>
      </trkpt>
      <trkpt lat="48.69211" lon="2.02914">
        <ele>156</ele>
        <time>2019-05-16T07:40:18Z</time>
      </trkpt>
      <trkpt lat="48.69211" lon="2.02907">
        <ele>156</ele>
        <time>2019-05-16T07:40:22Z</time>
      </trkpt>
      <trkpt lat="48.6921" lon="2.02897">
        <ele>156</ele>
        <time>2019-05-16T07:40:28Z</time>
      </trkpt>
      <trkpt lat="48.6921" lon="2.02888">
        <ele>156</ele>
        <time>2019-05-16T07:40:32Z</time>
      </trkpt>
      <trkpt lat="48.69211" lon="2.0288">
        <ele>155</ele>
        <time>2019-05-16T07:40:36Z</time>
      </trkpt>
      <trkpt lat="48.69211" lon="2.02873">
        <ele>155</ele>
        <time>2019-05-16T07:40:40Z</time>
      </trkpt>
      <trkpt lat="48.69212" lon="2.02865">
        <ele>155</ele>
        <time>2019-05-16T07:40:44Z</time>
      </trkpt>
      <trkpt lat="48.69214" lon="2.02853">
        <ele>155</ele>
        <time>2019-05-16T07:40:48Z</time>
      </trkpt>
      <trkpt lat="48.69216" lon="2.02844">
        <ele>155</ele>
        <time>2019-05-16T07:40:52Z</time>
      </trkpt>
      <trkpt lat="48.69218" lon="2.02834">
        <ele>154</ele>
        <time>2019-05-16T07:40:56Z</time>
      </trkpt>
      <trkpt lat="48.69218" lon="2.02826">
        <ele>153</ele>
        <time>2019-05-16T07:41:00Z</time>
      </trkpt>
      <trkpt lat="48.69218" lon="2.02817">
        <ele>153</ele>
        <time>2019-05-16T07:41:04Z</time>
      </trkpt>
      <trkpt lat="48.69217" lon="2.02808">
        <ele>153</ele>
        <time>2019-05-16T07:41:08Z</time>
      </trkpt>
      <trkpt lat="48.69213" lon="2.02801">
        <ele>154</ele>
        <time>2019-05-16T07:41:12Z</time>
      </trkpt>
      <trkpt lat="48.69209" lon="2.02794">
        <ele>154</ele>
        <time>2019-05-16T07:41:16Z</time>
      </trkpt>
      <trkpt lat="48.69207" lon="2.02786">
        <ele>154</ele>
        <time>2019-05-16T07:41:20Z</time>
      </trkpt>
      <trkpt lat="48.69202" lon="2.02776">
        <ele>154</ele>
        <time>2019-05-16T07:41:26Z</time>
      </trkpt>
      <trkpt lat="48.692" lon="2.02767">
        <ele>154</ele>
        <time>2019-05-16T07:41:30Z</time>
      </trkpt>
      <trkpt lat="48.69198" lon="2.0276">
        <ele>154</ele>
        <time>2019-05-16T07:41:34Z</time>
      </trkpt>
      <trkpt lat="48.69196" lon="2.02752">
        <ele>154</ele>
        <time>2019-05-16T07:41:38Z</time>
      </trkpt>
      <trkpt lat="48.69192" lon="2.02745">
        <ele>154</ele>
        <time>2019-05-16T07:41:42Z</time>
      </trkpt>
      <trkpt lat="48.69187" lon="2.02738">
        <ele>154</ele>
        <time>2019-05-16T07:41:46Z</time>
      </trkpt>
      <trkpt lat="48.69184" lon="2.0273">
        <ele>154</ele>
        <time>2019-05-16T07:41:50Z</time>
      </trkpt>
      <trkpt lat="48.6918" lon="2.02723">
        <ele>154</ele>
        <time>2019-05-16T07:41:54Z</time>
      </trkpt>
      <trkpt lat="48.69178" lon="2.02717">
        <ele>154</ele>
        <time>2019-05-16T07:41:58Z</time>
      </trkpt>
      <trkpt lat="48.69174" lon="2.02711">
        <ele>154</ele>
        <time>2019-05-16T07:42:02Z</time>
      </trkpt>
      <trkpt lat="48.6917" lon="2.02704">
        <ele>154</ele>
        <time>2019-05-16T07:42:06Z</time>
      </trkpt>
      <trkpt lat="48.69166" lon="2.02696">
        <ele>158</ele>
        <time>2019-05-16T07:42:10Z</time>
      </trkpt>
      <trkpt lat="48.69161" lon="2.02688">
        <ele>157</ele>
        <time>2019-05-16T07:42:14Z</time>
      </trkpt>
      <trkpt lat="48.69158" lon="2.0268">
        <ele>157</ele>
        <time>2019-05-16T07:42:18Z</time>
      </trkpt>
      <trkpt lat="48.69154" lon="2.02671">
        <ele>157</ele>
        <time>2019-05-16T07:42:22Z</time>
      </trkpt>
      <trkpt lat="48.69152" lon="2.02663">
        <ele>157</ele>
        <time>2019-05-16T07:42:26Z</time>
      </trkpt>
      <trkpt lat="48.69151" lon="2.02656">
        <ele>157</ele>
        <time>2019-05-16T07:42:30Z</time>
      </trkpt>
      <trkpt lat="48.69148" lon="2.02648">
        <ele>157</ele>
        <time>2019-05-16T07:42:34Z</time>
      </trkpt>
      <trkpt lat="48.69146" lon="2.02641">
        <ele>158</ele>
        <time>2019-05-16T07:42:38Z</time>
      </trkpt>
      <trkpt lat="48.69145" lon="2.02632">
        <ele>158</ele>
        <time>2019-05-16T07:42:42Z</time>
      </trkpt>
      <trkpt lat="48.69141" lon="2.02627">
        <ele>158</ele>
        <time>2019-05-16T07:42:46Z</time>
      </trkpt>
      <trkpt lat="48.69134" lon="2.02619">
        <ele>158</ele>
        <time>2019-05-16T07:42:50Z</time>
      </trkpt>
      <trkpt lat="48.6913" lon="2.02612">
        <ele>158</ele>
        <time>2019-05-16T07:42:54Z</time>
      </trkpt>
      <trkpt lat="48.69124" lon="2.02602">
        <ele>159</ele>
        <time>2019-05-16T07:42:58Z</time>
      </trkpt>
      <trkpt lat="48.6912" lon="2.02596">
        <ele>159</ele>
        <time>2019-05-16T07:43:02Z</time>
      </trkpt>
      <trkpt lat="48.69117" lon="2.02586">
        <ele>159</ele>
        <time>2019-05-16T07:43:08Z</time>
      </trkpt>
      <trkpt lat="48.69114" lon="2.02579">
        <ele>159</ele>
        <time>2019-05-16T07:43:12Z</time>
      </trkpt>
      <trkpt lat="48.69111" lon="2.02573">
        <ele>159</ele>
        <time>2019-05-16T07:43:16Z</time>
      </trkpt>
      <trkpt lat="48.69105" lon="2.02567">
        <ele>159</ele>
        <time>2019-05-16T07:43:20Z</time>
      </trkpt>
      <trkpt lat="48.69101" lon="2.0256">
        <ele>159</ele>
        <time>2019-05-16T07:43:24Z</time>
      </trkpt>
      <trkpt lat="48.69096" lon="2.02554">
        <ele>159</ele>
        <time>2019-05-16T07:43:28Z</time>
      </trkpt>
      <trkpt lat="48.69093" lon="2.02548">
        <ele>159</ele>
        <time>2019-05-16T07:43:32Z</time>
      </trkpt>
      <trkpt lat="48.69089" lon="2.02544">
        <ele>159</ele>
        <time>2019-05-16T07:43:36Z</time>
      </trkpt>
      <trkpt lat="48.69082" lon="2.02538">
        <ele>164</ele>
        <time>2019-05-16T07:43:40Z</time>
      </trkpt>
      <trkpt lat="48.69077" lon="2.02535">
        <ele>164</ele>
        <time>2019-05-16T07:43:44Z</time>
      </trkpt>
      <trkpt lat="48.69072" lon="2.02529">
        <ele>164</ele>
        <time>2019-05-16T07:43:48Z</time>
      </trkpt>
      <trkpt lat="48.69067" lon="2.02525">
        <ele>164</ele>
        <time>2019-05-16T07:43:52Z</time>
      </trkpt>
      <trkpt lat="48.69063" lon="2.02522">
        <ele>164</ele>
        <time>2019-05-16T07:43:56Z</time>
      </trkpt>
      <trkpt lat="48.69058" lon="2.02515">
        <ele>165</ele>
        <time>2019-05-16T07:44:00Z</time>
      </trkpt>
      <trkpt lat="48.69053" lon="2.02508">
        <ele>165</ele>
        <time>2019-05-16T07:44:04Z</time>
      </trkpt>
      <trkpt lat="48.6905" lon="2.02501">
        <ele>165</ele>
        <time>2019-05-16T07:44:08Z</time>
      </trkpt>
      <trkpt lat="48.69046" lon="2.02493">
        <ele>165</ele>
        <time>2019-05-16T07:44:12Z</time>
      </trkpt>
      <trkpt lat="48.69042" lon="2.02488">
        <ele>165</ele>
        <time>2019-05-16T07:44:16Z</time>
      </trkpt>
      <trkpt lat="48.69038" lon="2.02483">
        <ele>166</ele>
        <time>2019-05-16T07:44:20Z</time>
      </trkpt>
      <trkpt lat="48.69033" lon="2.02476">
        <ele>166</ele>
        <time>2019-05-16T07:44:24Z</time>
      </trkpt>
      <trkpt lat="48.69029" lon="2.02467">
        <ele>166</ele>
        <time>2019-05-16T07:44:30Z</time>
      </trkpt>
      <trkpt lat="48.69025" lon="2.0246">
        <ele>166</ele>
        <time>2019-05-16T07:44:34Z</time>
      </trkpt>
      <trkpt lat="48.69021" lon="2.02452">
        <ele>166</ele>
        <time>2019-05-16T07:44:38Z</time>
      </trkpt>
      <trkpt lat="48.69018" lon="2.02446">
        <ele>166</ele>
        <time>2019-05-16T07:44:42Z</time>
      </trkpt>
      <trkpt lat="48.69013" lon="2.0244">
        <ele>167</ele>
        <time>2019-05-16T07:44:46Z</time>
      </trkpt>
      <trkpt lat="48.69009" lon="2.02432">
        <ele>167</ele>
        <time>2019-05-16T07:44:52Z</time>
      </trkpt>
      <trkpt lat="48.69004" lon="2.02425">
        <ele>168</ele>
        <time>2019-05-16T07:44:56Z</time>
      </trkpt>
      <trkpt lat="48.69" lon="2.02418">
        <ele>169</ele>
        <time>2019-05-16T07:45:00Z</time>
      </trkpt>
      <trkpt lat="48.68996" lon="2.0241">
        <ele>168</ele>
        <time>2019-05-16T07:45:04Z</time>
      </trkpt>
      <trkpt lat="48.68993" lon="2.02404">
        <ele>167</ele>
        <time>2019-05-16T07:45:08Z</time>
      </trkpt>
      <trkpt lat="48.68988" lon="2.02399">
        <ele>167</ele>
        <time>2019-05-16T07:45:12Z</time>
      </trkpt>
      <trkpt lat="48.68985" lon="2.02395">
        <ele>167</ele>
        <time>2019-05-16T07:45:16Z</time>
      </trkpt>
      <trkpt lat="48.68981" lon="2.0239">
        <ele>166</ele>
        <time>2019-05-16T07:45:22Z</time>
      </trkpt>
      <trkpt lat="48.68977" lon="2.02385">
        <ele>166</ele>
        <time>2019-05-16T07:45:30Z</time>
      </trkpt>
      <trkpt lat="48.68974" lon="2.02378">
        <ele>166</ele>
        <time>2019-05-16T07:45:46Z</time>
      </trkpt>
      <trkpt lat="48.68967" lon="2.02377">
        <ele>166</ele>
        <time>2019-05-16T07:45:54Z</time>
      </trkpt>
      <trkpt lat="48.68961" lon="2.02374">
        <ele>166</ele>
        <time>2019-05-16T07:46:00Z</time>
      </trkpt>
      <trkpt lat="48.68955" lon="2.02375">
        <ele>166</ele>
        <time>2019-05-16T07:46:06Z</time>
      </trkpt>
      <trkpt lat="48.68951" lon="2.02379">
        <ele>166</ele>
        <time>2019-05-16T07:46:12Z</time>
      </trkpt>
      <trkpt lat="48.68944" lon="2.02384">
        <ele>166</ele>
        <time>2019-05-16T07:46:18Z</time>
      </trkpt>
      <trkpt lat="48.6894" lon="2.02388">
        <ele>167</ele>
        <time>2019-05-16T07:46:22Z</time>
      </trkpt>
      <trkpt lat="48.68936" lon="2.02396">
        <ele>167</ele>
        <time>2019-05-16T07:46:28Z</time>
      </trkpt>
      <trkpt lat="48.68931" lon="2.02401">
        <ele>168</ele>
        <time>2019-05-16T07:46:34Z</time>
      </trkpt>
      <trkpt lat="48.68927" lon="2.02406">
        <ele>168</ele>
        <time>2019-05-16T07:46:40Z</time>
      </trkpt>
      <trkpt lat="48.68922" lon="2.02411">
        <ele>169</ele>
        <time>2019-05-16T07:47:18Z</time>
      </trkpt>
      <trkpt lat="48.68917" lon="2.0241">
        <ele>169</ele>
        <time>2019-05-16T07:47:22Z</time>
      </trkpt>
      <trkpt lat="48.6891" lon="2.0241">
        <ele>170</ele>
        <time>2019-05-16T07:47:28Z</time>
      </trkpt>
      <trkpt lat="48.68908" lon="2.02403">
        <ele>170</ele>
        <time>2019-05-16T07:47:34Z</time>
      </trkpt>
      <trkpt lat="48.68905" lon="2.02397">
        <ele>170</ele>
        <time>2019-05-16T07:47:38Z</time>
      </trkpt>
      <trkpt lat="48.68904" lon="2.02388">
        <ele>170</ele>
        <time>2019-05-16T07:47:44Z</time>
      </trkpt>
      <trkpt lat="48.689" lon="2.0238">
        <ele>169</ele>
        <time>2019-05-16T07:47:50Z</time>
      </trkpt>
      <trkpt lat="48.68896" lon="2.02373">
        <ele>169</ele>
        <time>2019-05-16T07:47:54Z</time>
      </trkpt>
      <trkpt lat="48.68894" lon="2.02368">
        <ele>169</ele>
        <time>2019-05-16T07:47:58Z</time>
      </trkpt>
      <trkpt lat="48.6889" lon="2.0236">
        <ele>169</ele>
        <time>2019-05-16T07:48:02Z</time>
      </trkpt>
      <trkpt lat="48.68887" lon="2.02354">
        <ele>169</ele>
        <time>2019-05-16T07:48:06Z</time>
      </trkpt>
      <trkpt lat="48.68886" lon="2.02347">
        <ele>169</ele>
        <time>2019-05-16T07:48:10Z</time>
      </trkpt>
      <trkpt lat="48.68884" lon="2.02338">
        <ele>169</ele>
        <time>2019-05-16T07:48:16Z</time>
      </trkpt>
      <trkpt lat="48.68882" lon="2.02332">
        <ele>163</ele>
        <time>2019-05-16T07:48:22Z</time>
      </trkpt>
      <trkpt lat="48.6888" lon="2.02323">
        <ele>162</ele>
        <time>2019-05-16T07:48:28Z</time>
      </trkpt>
      <trkpt lat="48.68879" lon="2.02314">
        <ele>162</ele>
        <time>2019-05-16T07:48:34Z</time>
      </trkpt>
      <trkpt lat="48.68875" lon="2.02308">
        <ele>161</ele>
        <time>2019-05-16T07:48:40Z</time>
      </trkpt>
      <trkpt lat="48.68873" lon="2.02302">
        <ele>161</ele>
        <time>2019-05-16T07:48:44Z</time>
      </trkpt>
      <trkpt lat="48.68871" lon="2.02295">
        <ele>160</ele>
        <time>2019-05-16T07:48:54Z</time>
      </trkpt>
      <trkpt lat="48.68868" lon="2.02287">
        <ele>159</ele>
        <time>2019-05-16T07:49:04Z</time>
      </trkpt>
      <trkpt lat="48.68863" lon="2.02285">
        <ele>159</ele>
        <time>2019-05-16T07:49:12Z</time>
      </trkpt>
      <trkpt lat="48.68858" lon="2.02285">
        <ele>159</ele>
        <time>2019-05-16T07:49:18Z</time>
      </trkpt>
      <trkpt lat="48.68853" lon="2.02288">
        <ele>160</ele>
        <time>2019-05-16T07:49:26Z</time>
      </trkpt>
      <trkpt lat="48.68848" lon="2.0229">
        <ele>160</ele>
        <time>2019-05-16T07:49:32Z</time>
      </trkpt>
      <trkpt lat="48.68843" lon="2.02293">
        <ele>160</ele>
        <time>2019-05-16T07:49:36Z</time>
      </trkpt>
      <trkpt lat="48.68839" lon="2.02297">
        <ele>161</ele>
        <time>2019-05-16T07:49:40Z</time>
      </trkpt>
      <trkpt lat="48.68834" lon="2.02301">
        <ele>161</ele>
        <time>2019-05-16T07:49:46Z</time>
      </trkpt>
      <trkpt lat="48.68829" lon="2.02306">
        <ele>162</ele>
        <time>2019-05-16T07:49:52Z</time>
      </trkpt>
      <trkpt lat="48.68825" lon="2.02312">
        <ele>163</ele>
        <time>2019-05-16T07:49:58Z</time>
      </trkpt>
      <trkpt lat="48.68823" lon="2.02321">
        <ele>164</ele>
        <time>2019-05-16T07:50:04Z</time>
      </trkpt>
      <trkpt lat="48.68819" lon="2.02326">
        <ele>164</ele>
        <time>2019-05-16T07:50:10Z</time>
      </trkpt>
      <trkpt lat="48.68814" lon="2.0233">
        <ele>164</ele>
        <time>2019-05-16T07:50:16Z</time>
      </trkpt>
      <trkpt lat="48.6881" lon="2.02334">
        <ele>170</ele>
        <time>2019-05-16T07:50:22Z</time>
      </trkpt>
      <trkpt lat="48.68806" lon="2.02338">
        <ele>170</ele>
        <time>2019-05-16T07:50:30Z</time>
      </trkpt>
      <trkpt lat="48.68804" lon="2.02345">
        <ele>170</ele>
        <time>2019-05-16T07:50:38Z</time>
      </trkpt>
      <trkpt lat="48.68797" lon="2.02347">
        <ele>170</ele>
        <time>2019-05-16T07:50:50Z</time>
      </trkpt>
      <trkpt lat="48.68791" lon="2.02346">
        <ele>170</ele>
        <time>2019-05-16T07:50:56Z</time>
      </trkpt>
      <trkpt lat="48.68786" lon="2.02346">
        <ele>170</ele>
        <time>2019-05-16T07:51:00Z</time>
      </trkpt>
      <trkpt lat="48.68781" lon="2.02347">
        <ele>169</ele>
        <time>2019-05-16T07:51:04Z</time>
      </trkpt>
      <trkpt lat="48.68775" lon="2.02347">
        <ele>169</ele>
        <time>2019-05-16T07:51:08Z</time>
      </trkpt>
      <trkpt lat="48.68769" lon="2.02349">
        <ele>169</ele>
        <time>2019-05-16T07:51:12Z</time>
      </trkpt>
      <trkpt lat="48.68763" lon="2.0235">
        <ele>169</ele>
        <time>2019-05-16T07:51:16Z</time>
      </trkpt>
      <trkpt lat="48.68758" lon="2.02352">
        <ele>169</ele>
        <time>2019-05-16T07:51:20Z</time>
      </trkpt>
      <trkpt lat="48.68752" lon="2.02353">
        <ele>169</ele>
        <time>2019-05-16T07:51:24Z</time>
      </trkpt>
      <trkpt lat="48.68747" lon="2.02354">
        <ele>166</ele>
        <time>2019-05-16T07:51:28Z</time>
      </trkpt>
      <trkpt lat="48.68741" lon="2.02356">
        <ele>166</ele>
        <time>2019-05-16T07:51:32Z</time>
      </trkpt>
      <trkpt lat="48.68736" lon="2.02359">
        <ele>166</ele>
        <time>2019-05-16T07:51:36Z</time>
      </trkpt>
      <trkpt lat="48.68729" lon="2.02361">
        <ele>165</ele>
        <time>2019-05-16T07:51:40Z</time>
      </trkpt>
      <trkpt lat="48.68724" lon="2.02366">
        <ele>165</ele>
        <time>2019-05-16T07:51:44Z</time>
      </trkpt>
      <trkpt lat="48.68718" lon="2.0237">
        <ele>165</ele>
        <time>2019-05-16T07:51:48Z</time>
      </trkpt>
      <trkpt lat="48.68712" lon="2.02373">
        <ele>165</ele>
        <time>2019-05-16T07:51:52Z</time>
      </trkpt>
      <trkpt lat="48.68705" lon="2.02378">
        <ele>165</ele>
        <time>2019-05-16T07:51:58Z</time>
      </trkpt>
      <trkpt lat="48.687" lon="2.02381">
        <ele>165</ele>
        <time>2019-05-16T07:52:02Z</time>
      </trkpt>
      <trkpt lat="48.68695" lon="2.02385">
        <ele>165</ele>
        <time>2019-05-16T07:52:06Z</time>
      </trkpt>
      <trkpt lat="48.6869" lon="2.0239">
        <ele>165</ele>
        <time>2019-05-16T07:52:10Z</time>
      </trkpt>
      <trkpt lat="48.68684" lon="2.02393">
        <ele>165</ele>
        <time>2019-05-16T07:52:14Z</time>
      </trkpt>
      <trkpt lat="48.68678" lon="2.02397">
        <ele>165</ele>
        <time>2019-05-16T07:52:20Z</time>
      </trkpt>
      <trkpt lat="48.68673" lon="2.02401">
        <ele>166</ele>
        <time>2019-05-16T07:52:24Z</time>
      </trkpt>
      <trkpt lat="48.68667" lon="2.02408">
        <ele>166</ele>
        <time>2019-05-16T07:52:28Z</time>
      </trkpt>
      <trkpt lat="48.68661" lon="2.02415">
        <ele>163</ele>
        <time>2019-05-16T07:52:32Z</time>
      </trkpt>
      <trkpt lat="48.68657" lon="2.0242">
        <ele>165</ele>
        <time>2019-05-16T07:52:36Z</time>
      </trkpt>
      <trkpt lat="48.68652" lon="2.02425">
        <ele>164</ele>
        <time>2019-05-16T07:52:40Z</time>
      </trkpt>
      <trkpt lat="48.68647" lon="2.02433">
        <ele>163</ele>
        <time>2019-05-16T07:52:44Z</time>
      </trkpt>
      <trkpt lat="48.68644" lon="2.02439">
        <ele>163</ele>
        <time>2019-05-16T07:52:48Z</time>
      </trkpt>
      <trkpt lat="48.68639" lon="2.02444">
        <ele>162</ele>
        <time>2019-05-16T07:52:52Z</time>
      </trkpt>
      <trkpt lat="48.68635" lon="2.0245">
        <ele>162</ele>
        <time>2019-05-16T07:52:56Z</time>
      </trkpt>
      <trkpt lat="48.68631" lon="2.02457">
        <ele>162</ele>
        <time>2019-05-16T07:53:00Z</time>
      </trkpt>
      <trkpt lat="48.68628" lon="2.02465">
        <ele>162</ele>
        <time>2019-05-16T07:53:04Z</time>
      </trkpt>
      <trkpt lat="48.68624" lon="2.02473">
        <ele>162</ele>
        <time>2019-05-16T07:53:08Z</time>
      </trkpt>
      <trkpt lat="48.68618" lon="2.02482">
        <ele>162</ele>
        <time>2019-05-16T07:53:12Z</time>
      </trkpt>
      <trkpt lat="48.68614" lon="2.02491">
        <ele>162</ele>
        <time>2019-05-16T07:53:16Z</time>
      </trkpt>
      <trkpt lat="48.68609" lon="2.025">
        <ele>167</ele>
        <time>2019-05-16T07:53:20Z</time>
      </trkpt>
      <trkpt lat="48.68605" lon="2.02508">
        <ele>167</ele>
        <time>2019-05-16T07:53:24Z</time>
      </trkpt>
      <trkpt lat="48.68602" lon="2.02515">
        <ele>167</ele>
        <time>2019-05-16T07:53:28Z</time>
      </trkpt>
      <trkpt lat="48.68599" lon="2.02521">
        <ele>167</ele>
        <time>2019-05-16T07:53:32Z</time>
      </trkpt>
      <trkpt lat="48.68597" lon="2.02528">
        <ele>168</ele>
        <time>2019-05-16T07:53:36Z</time>
      </trkpt>
      <trkpt lat="48.68596" lon="2.02535">
        <ele>169</ele>
        <time>2019-05-16T07:53:40Z</time>
      </trkpt>
      <trkpt lat="48.68592" lon="2.02542">
        <ele>169</ele>
        <time>2019-05-16T07:53:44Z</time>
      </trkpt>
      <trkpt lat="48.68587" lon="2.02549">
        <ele>170</ele>
        <time>2019-05-16T07:53:48Z</time>
      </trkpt>
      <trkpt lat="48.68583" lon="2.02555">
        <ele>161</ele>
        <time>2019-05-16T07:53:52Z</time>
      </trkpt>
      <trkpt lat="48.6858" lon="2.02563">
        <ele>163</ele>
        <time>2019-05-16T07:53:56Z</time>
      </trkpt>
      <trkpt lat="48.68577" lon="2.0257">
        <ele>164</ele>
        <time>2019-05-16T07:54:00Z</time>
      </trkpt>
      <trkpt lat="48.68574" lon="2.0258">
        <ele>166</ele>
        <time>2019-05-16T07:54:06Z</time>
      </trkpt>
      <trkpt lat="48.68571" lon="2.02585">
        <ele>170</ele>
        <time>2019-05-16T07:54:10Z</time>
      </trkpt>
      <trkpt lat="48.6857" lon="2.02593">
        <ele>169</ele>
        <time>2019-05-16T07:54:14Z</time>
      </trkpt>
      <trkpt lat="48.68567" lon="2.02598">
        <ele>169</ele>
        <time>2019-05-16T07:54:18Z</time>
      </trkpt>
      <trkpt lat="48.68564" lon="2.02604">
        <ele>168</ele>
        <time>2019-05-16T07:54:22Z</time>
      </trkpt>
      <trkpt lat="48.6856" lon="2.02613">
        <ele>168</ele>
        <time>2019-05-16T07:54:26Z</time>
      </trkpt>
      <trkpt lat="48.68558" lon="2.02618">
        <ele>168</ele>
        <time>2019-05-16T07:54:30Z</time>
      </trkpt>
      <trkpt lat="48.68555" lon="2.02625">
        <ele>168</ele>
        <time>2019-05-16T07:54:34Z</time>
      </trkpt>
      <trkpt lat="48.68551" lon="2.02632">
        <ele>168</ele>
        <time>2019-05-16T07:54:38Z</time>
      </trkpt>
      <trkpt lat="48.68547" lon="2.0264">
        <ele>168</ele>
        <time>2019-05-16T07:54:42Z</time>
      </trkpt>
      <trkpt lat="48.68545" lon="2.02647">
        <ele>168</ele>
        <time>2019-05-16T07:54:46Z</time>
      </trkpt>
      <trkpt lat="48.6854" lon="2.02653">
        <ele>168</ele>
        <time>2019-05-16T07:54:50Z</time>
      </trkpt>
      <trkpt lat="48.68536" lon="2.02659">
        <ele>168</ele>
        <time>2019-05-16T07:54:54Z</time>
      </trkpt>
      <trkpt lat="48.68533" lon="2.02669">
        <ele>173</ele>
        <time>2019-05-16T07:54:58Z</time>
      </trkpt>
      <trkpt lat="48.6853" lon="2.02675">
        <ele>173</ele>
        <time>2019-05-16T07:55:02Z</time>
      </trkpt>
      <trkpt lat="48.68527" lon="2.02683">
        <ele>173</ele>
        <time>2019-05-16T07:55:06Z</time>
      </trkpt>
      <trkpt lat="48.68525" lon="2.0269">
        <ele>174</ele>
        <time>2019-05-16T07:55:10Z</time>
      </trkpt>
      <trkpt lat="48.68522" lon="2.02697">
        <ele>174</ele>
        <time>2019-05-16T07:55:14Z</time>
      </trkpt>
      <trkpt lat="48.68518" lon="2.02707">
        <ele>174</ele>
        <time>2019-05-16T07:55:18Z</time>
      </trkpt>
      <trkpt lat="48.68513" lon="2.02715">
        <ele>175</ele>
        <time>2019-05-16T07:55:22Z</time>
      </trkpt>
      <trkpt lat="48.68509" lon="2.02721">
        <ele>175</ele>
        <time>2019-05-16T07:55:26Z</time>
      </trkpt>
      <trkpt lat="48.68508" lon="2.02731">
        <ele>176</ele>
        <time>2019-05-16T07:55:30Z</time>
      </trkpt>
      <trkpt lat="48.68503" lon="2.02738">
        <ele>176</ele>
        <time>2019-05-16T07:55:34Z</time>
      </trkpt>
      <trkpt lat="48.68502" lon="2.02749">
        <ele>177</ele>
        <time>2019-05-16T07:55:38Z</time>
      </trkpt>
      <trkpt lat="48.68499" lon="2.0276">
        <ele>175</ele>
        <time>2019-05-16T07:55:42Z</time>
      </trkpt>
      <trkpt lat="48.68497" lon="2.02767">
        <ele>174</ele>
        <time>2019-05-16T07:55:46Z</time>
      </trkpt>
      <trkpt lat="48.68494" lon="2.02776">
        <ele>173</ele>
        <time>2019-05-16T07:55:50Z</time>
      </trkpt>
      <trkpt lat="48.68492" lon="2.02783">
        <ele>173</ele>
        <time>2019-05-16T07:55:54Z</time>
      </trkpt>
      <trkpt lat="48.68487" lon="2.02791">
        <ele>173</ele>
        <time>2019-05-16T07:55:58Z</time>
      </trkpt>
      <trkpt lat="48.68483" lon="2.02798">
        <ele>173</ele>
        <time>2019-05-16T07:56:02Z</time>
      </trkpt>
      <trkpt lat="48.6848" lon="2.02806">
        <ele>173</ele>
        <time>2019-05-16T07:56:08Z</time>
      </trkpt>
      <trkpt lat="48.68476" lon="2.02813">
        <ele>173</ele>
        <time>2019-05-16T07:56:12Z</time>
      </trkpt>
      <trkpt lat="48.68471" lon="2.02819">
        <ele>173</ele>
        <time>2019-05-16T07:56:16Z</time>
      </trkpt>
      <trkpt lat="48.68467" lon="2.02824">
        <ele>173</ele>
        <time>2019-05-16T07:56:20Z</time>
      </trkpt>
      <trkpt lat="48.68462" lon="2.0283">
        <ele>172</ele>
        <time>2019-05-16T07:56:24Z</time>
      </trkpt>
      <trkpt lat="48.68458" lon="2.02835">
        <ele>175</ele>
        <time>2019-05-16T07:56:28Z</time>
      </trkpt>
      <trkpt lat="48.68452" lon="2.02843">
        <ele>175</ele>
        <time>2019-05-16T07:56:34Z</time>
      </trkpt>
      <trkpt lat="48.68447" lon="2.02849">
        <ele>175</ele>
        <time>2019-05-16T07:56:38Z</time>
      </trkpt>
      <trkpt lat="48.68441" lon="2.02855">
        <ele>175</ele>
        <time>2019-05-16T07:56:42Z</time>
      </trkpt>
      <trkpt lat="48.68435" lon="2.02859">
        <ele>175</ele>
        <time>2019-05-16T07:56:46Z</time>
      </trkpt>
      <trkpt lat="48.68431" lon="2.02866">
        <ele>175</ele>
        <time>2019-05-16T07:56:50Z</time>
      </trkpt>
      <trkpt lat="48.68427" lon="2.02872">
        <ele>175</ele>
        <time>2019-05-16T07:56:54Z</time>
      </trkpt>
      <trkpt lat="48.68423" lon="2.02878">
        <ele>175</ele>
        <time>2019-05-16T07:56:58Z</time>
      </trkpt>
      <trkpt lat="48.68417" lon="2.02884">
        <ele>176</ele>
        <time>2019-05-16T07:57:02Z</time>
      </trkpt>
      <trkpt lat="48.68413" lon="2.0289">
        <ele>172</ele>
        <time>2019-05-16T07:57:06Z</time>
      </trkpt>
      <trkpt lat="48.68408" lon="2.02896">
        <ele>173</ele>
        <time>2019-05-16T07:57:10Z</time>
      </trkpt>
      <trkpt lat="48.68401" lon="2.02902">
        <ele>173</ele>
        <time>2019-05-16T07:57:14Z</time>
      </trkpt>
      <trkpt lat="48.68395" lon="2.02906">
        <ele>173</ele>
        <time>2019-05-16T07:57:18Z</time>
      </trkpt>
      <trkpt lat="48.6839" lon="2.02911">
        <ele>173</ele>
        <time>2019-05-16T07:57:22Z</time>
      </trkpt>
      <trkpt lat="48.68385" lon="2.02913">
        <ele>172</ele>
        <time>2019-05-16T07:57:26Z</time>
      </trkpt>
      <trkpt lat="48.68379" lon="2.02918">
        <ele>176</ele>
        <time>2019-05-16T07:57:30Z</time>
      </trkpt>
      <trkpt lat="48.68372" lon="2.02923">
        <ele>175</ele>
        <time>2019-05-16T07:57:34Z</time>
      </trkpt>
      <trkpt lat="48.68366" lon="2.02926">
        <ele>175</ele>
        <time>2019-05-16T07:57:38Z</time>
      </trkpt>
      <trkpt lat="48.68361" lon="2.02929">
        <ele>175</ele>
        <time>2019-05-16T07:57:42Z</time>
      </trkpt>
      <trkpt lat="48.68356" lon="2.02931">
        <ele>175</ele>
        <time>2019-05-16T07:57:44Z</time>
      </trkpt>
      <trkpt lat="48.68349" lon="2.02934">
        <ele>175</ele>
        <time>2019-05-16T07:57:48Z</time>
      </trkpt>
      <trkpt lat="48.68341" lon="2.02936">
        <ele>175</ele>
        <time>2019-05-16T07:57:52Z</time>
      </trkpt>
      <trkpt lat="48.68337" lon="2.02939">
        <ele>175</ele>
        <time>2019-05-16T07:57:56Z</time>
      </trkpt>
      <trkpt lat="48.6833" lon="2.02944">
        <ele>174</ele>
        <time>2019-05-16T07:58:00Z</time>
      </trkpt>
      <trkpt lat="48.68326" lon="2.02947">
        <ele>174</ele>
        <time>2019-05-16T07:58:04Z</time>
      </trkpt>
      <trkpt lat="48.68321" lon="2.02952">
        <ele>174</ele>
        <time>2019-05-16T07:58:08Z</time>
      </trkpt>
      <trkpt lat="48.68317" lon="2.02956">
        <ele>174</ele>
        <time>2019-05-16T07:58:12Z</time>
      </trkpt>
      <trkpt lat="48.68311" lon="2.0296">
        <ele>174</ele>
        <time>2019-05-16T07:58:16Z</time>
      </trkpt>
      <trkpt lat="48.68306" lon="2.02965">
        <ele>174</ele>
        <time>2019-05-16T07:58:20Z</time>
      </trkpt>
      <trkpt lat="48.68302" lon="2.02969">
        <ele>174</ele>
        <time>2019-05-16T07:58:24Z</time>
      </trkpt>
      <trkpt lat="48.68298" lon="2.02973">
        <ele>174</ele>
        <time>2019-05-16T07:58:28Z</time>
      </trkpt>
      <trkpt lat="48.68294" lon="2.02981">
        <ele>174</ele>
        <time>2019-05-16T07:58:34Z</time>
      </trkpt>
      <trkpt lat="48.68291" lon="2.02987">
        <ele>174</ele>
        <time>2019-05-16T07:58:38Z</time>
      </trkpt>
      <trkpt lat="48.68288" lon="2.02993">
        <ele>174</ele>
        <time>2019-05-16T07:58:42Z</time>
      </trkpt>
      <trkpt lat="48.68286" lon="2.03001">
        <ele>177</ele>
        <time>2019-05-16T07:58:46Z</time>
      </trkpt>
      <trkpt lat="48.68284" lon="2.03007">
        <ele>177</ele>
        <time>2019-05-16T07:58:50Z</time>
      </trkpt>
      <trkpt lat="48.6828" lon="2.03016">
        <ele>177</ele>
        <time>2019-05-16T07:58:56Z</time>
      </trkpt>
      <trkpt lat="48.68278" lon="2.03021">
        <ele>177</ele>
        <time>2019-05-16T07:59:00Z</time>
      </trkpt>
      <trkpt lat="48.68273" lon="2.03025">
        <ele>177</ele>
        <time>2019-05-16T07:59:02Z</time>
      </trkpt>
      <trkpt lat="48.68271" lon="2.03033">
        <ele>177</ele>
        <time>2019-05-16T07:59:06Z</time>
      </trkpt>
      <trkpt lat="48.68267" lon="2.03039">
        <ele>177</ele>
        <time>2019-05-16T07:59:10Z</time>
      </trkpt>
      <trkpt lat="48.68265" lon="2.03046">
        <ele>177</ele>
        <time>2019-05-16T07:59:14Z</time>
      </trkpt>
      <trkpt lat="48.68263" lon="2.03056">
        <ele>177</ele>
        <time>2019-05-16T07:59:18Z</time>
      </trkpt>
      <trkpt lat="48.68259" lon="2.03063">
        <ele>177</ele>
        <time>2019-05-16T07:59:22Z</time>
      </trkpt>
      <trkpt lat="48.68258" lon="2.03072">
        <ele>178</ele>
        <time>2019-05-16T07:59:26Z</time>
      </trkpt>
      <trkpt lat="48.68254" lon="2.03081">
        <ele>178</ele>
        <time>2019-05-16T07:59:30Z</time>
      </trkpt>
      <trkpt lat="48.6825" lon="2.03089">
        <ele>178</ele>
        <time>2019-05-16T07:59:34Z</time>
      </trkpt>
      <trkpt lat="48.68245" lon="2.03097">
        <ele>176</ele>
        <time>2019-05-16T07:59:38Z</time>
      </trkpt>
      <trkpt lat="48.68241" lon="2.03105">
        <ele>175</ele>
        <time>2019-05-16T07:59:42Z</time>
      </trkpt>
      <trkpt lat="48.68238" lon="2.03114">
        <ele>175</ele>
        <time>2019-05-16T07:59:46Z</time>
      </trkpt>
      <trkpt lat="48.68237" lon="2.03122">
        <ele>175</ele>
        <time>2019-05-16T07:59:50Z</time>
      </trkpt>
      <trkpt lat="48.68236" lon="2.03131">
        <ele>174</ele>
        <time>2019-05-16T07:59:54Z</time>
      </trkpt>
      <trkpt lat="48.68233" lon="2.0314">
        <ele>174</ele>
        <time>2019-05-16T07:59:58Z</time>
      </trkpt>
      <trkpt lat="48.6823" lon="2.0315">
        <ele>174</ele>
        <time>2019-05-16T08:00:02Z</time>
      </trkpt>
      <trkpt lat="48.68226" lon="2.0316">
        <ele>174</ele>
        <time>2019-05-16T08:00:06Z</time>
      </trkpt>
      <trkpt lat="48.68224" lon="2.03171">
        <ele>174</ele>
        <time>2019-05-16T08:00:10Z</time>
      </trkpt>
      <trkpt lat="48.68225" lon="2.03178">
        <ele>174</ele>
        <time>2019-05-16T08:00:14Z</time>
      </trkpt>
      <trkpt lat="48.68221" lon="2.03185">
        <ele>174</ele>
        <time>2019-05-16T08:00:18Z</time>
      </trkpt>
      <trkpt lat="48.68217" lon="2.03193">
        <ele>174</ele>
        <time>2019-05-16T08:00:22Z</time>
      </trkpt>
      <trkpt lat="48.68215" lon="2.032">
        <ele>173</ele>
        <time>2019-05-16T08:00:26Z</time>
      </trkpt>
      <trkpt lat="48.68213" lon="2.03212">
        <ele>173</ele>
        <time>2019-05-16T08:00:30Z</time>
      </trkpt>
      <trkpt lat="48.68211" lon="2.03219">
        <ele>173</ele>
        <time>2019-05-16T08:00:32Z</time>
      </trkpt>
      <trkpt lat="48.68209" lon="2.03229">
        <ele>173</ele>
        <time>2019-05-16T08:00:36Z</time>
      </trkpt>
      <trkpt lat="48.68206" lon="2.03238">
        <ele>173</ele>
        <time>2019-05-16T08:00:40Z</time>
      </trkpt>
      <trkpt lat="48.68202" lon="2.03246">
        <ele>173</ele>
        <time>2019-05-16T08:00:44Z</time>
      </trkpt>
      <trkpt lat="48.68199" lon="2.03252">
        <ele>173</ele>
        <time>2019-05-16T08:00:48Z</time>
      </trkpt>
      <trkpt lat="48.68194" lon="2.03257">
        <ele>173</ele>
        <time>2019-05-16T08:00:52Z</time>
      </trkpt>
      <trkpt lat="48.6819" lon="2.0326">
        <ele>172</ele>
        <time>2019-05-16T08:00:56Z</time>
      </trkpt>
      <trkpt lat="48.68184" lon="2.03264">
        <ele>172</ele>
        <time>2019-05-16T08:01:00Z</time>
      </trkpt>
      <trkpt lat="48.68179" lon="2.03268">
        <ele>172</ele>
        <time>2019-05-16T08:01:04Z</time>
      </trkpt>
      <trkpt lat="48.68175" lon="2.03272">
        <ele>172</ele>
        <time>2019-05-16T08:01:08Z</time>
      </trkpt>
      <trkpt lat="48.68168" lon="2.03277">
        <ele>172</ele>
        <time>2019-05-16T08:01:12Z</time>
      </trkpt>
      <trkpt lat="48.68162" lon="2.03282">
        <ele>170</ele>
        <time>2019-05-16T08:01:16Z</time>
      </trkpt>
      <trkpt lat="48.68154" lon="2.03284">
        <ele>170</ele>
        <time>2019-05-16T08:01:20Z</time>
      </trkpt>
      <trkpt lat="48.68148" lon="2.03286">
        <ele>170</ele>
        <time>2019-05-16T08:01:24Z</time>
      </trkpt>
      <trkpt lat="48.68142" lon="2.03291">
        <ele>170</ele>
        <time>2019-05-16T08:01:28Z</time>
      </trkpt>
      <trkpt lat="48.68135" lon="2.03295">
        <ele>170</ele>
        <time>2019-05-16T08:01:32Z</time>
      </trkpt>
      <trkpt lat="48.6813" lon="2.03298">
        <ele>170</ele>
        <time>2019-05-16T08:01:36Z</time>
      </trkpt>
      <trkpt lat="48.68126" lon="2.03301">
        <ele>170</ele>
        <time>2019-05-16T08:01:38Z</time>
      </trkpt>
      <trkpt lat="48.68119" lon="2.03303">
        <ele>170</ele>
        <time>2019-05-16T08:01:42Z</time>
      </trkpt>
      <trkpt lat="48.68114" lon="2.03305">
        <ele>170</ele>
        <time>2019-05-16T08:01:46Z</time>
      </trkpt>
      <trkpt lat="48.68106" lon="2.03309">
        <ele>170</ele>
        <time>2019-05-16T08:01:50Z</time>
      </trkpt>
      <trkpt lat="48.68101" lon="2.03312">
        <ele>170</ele>
        <time>2019-05-16T08:01:54Z</time>
      </trkpt>
      <trkpt lat="48.68094" lon="2.03315">
        <ele>170</ele>
        <time>2019-05-16T08:01:58Z</time>
      </trkpt>
      <trkpt lat="48.68086" lon="2.03317">
        <ele>170</ele>
        <time>2019-05-16T08:02:02Z</time>
      </trkpt>
      <trkpt lat="48.6808" lon="2.0332">
        <ele>170</ele>
        <time>2019-05-16T08:02:06Z</time>
      </trkpt>
      <trkpt lat="48.68073" lon="2.03323">
        <ele>170</ele>
        <time>2019-05-16T08:02:10Z</time>
      </trkpt>
      <trkpt lat="48.68066" lon="2.03326">
        <ele>170</ele>
        <time>2019-05-16T08:02:14Z</time>
      </trkpt>
      <trkpt lat="48.6806" lon="2.03329">
        <ele>170</ele>
        <time>2019-05-16T08:02:18Z</time>
      </trkpt>
      <trkpt lat="48.68055" lon="2.03332">
        <ele>169</ele>
        <time>2019-05-16T08:02:22Z</time>
      </trkpt>
      <trkpt lat="48.68049" lon="2.03335">
        <ele>170</ele>
        <time>2019-05-16T08:02:26Z</time>
      </trkpt>
      <trkpt lat="48.68043" lon="2.03338">
        <ele>170</ele>
        <time>2019-05-16T08:02:30Z</time>
      </trkpt>
      <trkpt lat="48.68037" lon="2.03341">
        <ele>169</ele>
        <time>2019-05-16T08:02:34Z</time>
      </trkpt>
      <trkpt lat="48.68031" lon="2.03345">
        <ele>169</ele>
        <time>2019-05-16T08:02:38Z</time>
      </trkpt>
      <trkpt lat="48.68024" lon="2.03349">
        <ele>169</ele>
        <time>2019-05-16T08:02:42Z</time>
      </trkpt>
      <trkpt lat="48.68019" lon="2.03352">
        <ele>169</ele>
        <time>2019-05-16T08:02:46Z</time>
      </trkpt>
      <trkpt lat="48.68014" lon="2.03356">
        <ele>169</ele>
        <time>2019-05-16T08:02:50Z</time>
      </trkpt>
      <trkpt lat="48.68009" lon="2.03359">
        <ele>169</ele>
        <time>2019-05-16T08:02:54Z</time>
      </trkpt>
      <trkpt lat="48.68003" lon="2.03363">
        <ele>169</ele>
        <time>2019-05-16T08:02:58Z</time>
      </trkpt>
      <trkpt lat="48.68" lon="2.03367">
        <ele>169</ele>
        <time>2019-05-16T08:03:02Z</time>
      </trkpt>
      <trkpt lat="48.67996" lon="2.03369">
        <ele>169</ele>
        <time>2019-05-16T08:04:14Z</time>
      </trkpt>
      <trkpt lat="48.67991" lon="2.03371">
        <ele>169</ele>
        <time>2019-05-16T08:06:22Z</time>
      </trkpt>
      <trkpt lat="48.67986" lon="2.03375">
        <ele>168</ele>
        <time>2019-05-16T08:06:26Z</time>
      </trkpt>
      <trkpt lat="48.67981" lon="2.03378">
        <ele>168</ele>
        <time>2019-05-16T08:06:30Z</time>
      </trkpt>
      <trkpt lat="48.67977" lon="2.03381">
        <ele>168</ele>
        <time>2019-05-16T08:06:34Z</time>
      </trkpt>
      <trkpt lat="48.67971" lon="2.03384">
        <ele>168</ele>
        <time>2019-05-16T08:06:38Z</time>
      </trkpt>
      <trkpt lat="48.67965" lon="2.03386">
        <ele>168</ele>
        <time>2019-05-16T08:06:42Z</time>
      </trkpt>
      <trkpt lat="48.6796" lon="2.03389">
        <ele>168</ele>
        <time>2019-05-16T08:06:46Z</time>
      </trkpt>
      <trkpt lat="48.67954" lon="2.03392">
        <ele>168</ele>
        <time>2019-05-16T08:06:50Z</time>
      </trkpt>
      <trkpt lat="48.67949" lon="2.03391">
        <ele>168</ele>
        <time>2019-05-16T08:06:54Z</time>
      </trkpt>
      <trkpt lat="48.67944" lon="2.03394">
        <ele>168</ele>
        <time>2019-05-16T08:06:58Z</time>
      </trkpt>
      <trkpt lat="48.67938" lon="2.03396">
        <ele>168</ele>
        <time>2019-05-16T08:07:02Z</time>
      </trkpt>
      <trkpt lat="48.67932" lon="2.03397">
        <ele>168</ele>
        <time>2019-05-16T08:07:06Z</time>
      </trkpt>
      <trkpt lat="48.67926" lon="2.03397">
        <ele>168</ele>
        <time>2019-05-16T08:07:10Z</time>
      </trkpt>
      <trkpt lat="48.6792" lon="2.03397">
        <ele>168</ele>
        <time>2019-05-16T08:07:14Z</time>
      </trkpt>
      <trkpt lat="48.67914" lon="2.03397">
        <ele>168</ele>
        <time>2019-05-16T08:07:18Z</time>
      </trkpt>
      <trkpt lat="48.67907" lon="2.03396">
        <ele>168</ele>
        <time>2019-05-16T08:07:22Z</time>
      </trkpt>
      <trkpt lat="48.67901" lon="2.03395">
        <ele>168</ele>
        <time>2019-05-16T08:07:26Z</time>
      </trkpt>
      <trkpt lat="48.67896" lon="2.03395">
        <ele>168</ele>
        <time>2019-05-16T08:07:30Z</time>
      </trkpt>
      <trkpt lat="48.67889" lon="2.03395">
        <ele>168</ele>
        <time>2019-05-16T08:07:34Z</time>
      </trkpt>
      <trkpt lat="48.67883" lon="2.03394">
        <ele>168</ele>
        <time>2019-05-16T08:07:38Z</time>
      </trkpt>
      <trkpt lat="48.67877" lon="2.03393">
        <ele>168</ele>
        <time>2019-05-16T08:07:42Z</time>
      </trkpt>
      <trkpt lat="48.67871" lon="2.03393">
        <ele>168</ele>
        <time>2019-05-16T08:07:46Z</time>
      </trkpt>
      <trkpt lat="48.67865" lon="2.03392">
        <ele>168</ele>
        <time>2019-05-16T08:07:50Z</time>
      </trkpt>
      <trkpt lat="48.67859" lon="2.03392">
        <ele>168</ele>
        <time>2019-05-16T08:07:54Z</time>
      </trkpt>
      <trkpt lat="48.67853" lon="2.03391">
        <ele>168</ele>
        <time>2019-05-16T08:07:58Z</time>
      </trkpt>
      <trkpt lat="48.67847" lon="2.0339">
        <ele>168</ele>
        <time>2019-05-16T08:08:02Z</time>
      </trkpt>
      <trkpt lat="48.67841" lon="2.03389">
        <ele>168</ele>
        <time>2019-05-16T08:08:06Z</time>
      </trkpt>
      <trkpt lat="48.67834" lon="2.03389">
        <ele>168</ele>
        <time>2019-05-16T08:08:10Z</time>
      </trkpt>
      <trkpt lat="48.67828" lon="2.03388">
        <ele>169</ele>
        <time>2019-05-16T08:08:14Z</time>
      </trkpt>
      <trkpt lat="48.67822" lon="2.03387">
        <ele>169</ele>
        <time>2019-05-16T08:08:18Z</time>
      </trkpt>
      <trkpt lat="48.67816" lon="2.03386">
        <ele>169</ele>
        <time>2019-05-16T08:08:22Z</time>
      </trkpt>
      <trkpt lat="48.6781" lon="2.03386">
        <ele>169</ele>
        <time>2019-05-16T08:08:26Z</time>
      </trkpt>
      <trkpt lat="48.67804" lon="2.03386">
        <ele>169</ele>
        <time>2019-05-16T08:08:30Z</time>
      </trkpt>
      <trkpt lat="48.67797" lon="2.03386">
        <ele>169</ele>
        <time>2019-05-16T08:08:34Z</time>
      </trkpt>
      <trkpt lat="48.6779" lon="2.03384">
        <ele>169</ele>
        <time>2019-05-16T08:08:38Z</time>
      </trkpt>
      <trkpt lat="48.67784" lon="2.03384">
        <ele>169</ele>
        <time>2019-05-16T08:08:42Z</time>
      </trkpt>
      <trkpt lat="48.67778" lon="2.03383">
        <ele>169</ele>
        <time>2019-05-16T08:08:46Z</time>
      </trkpt>
      <trkpt lat="48.67772" lon="2.03382">
        <ele>169</ele>
        <time>2019-05-16T08:08:50Z</time>
      </trkpt>
      <trkpt lat="48.67766" lon="2.03381">
        <ele>169</ele>
        <time>2019-05-16T08:08:54Z</time>
      </trkpt>
      <trkpt lat="48.6776" lon="2.0338">
        <ele>169</ele>
        <time>2019-05-16T08:08:58Z</time>
      </trkpt>
      <trkpt lat="48.67754" lon="2.03379">
        <ele>169</ele>
        <time>2019-05-16T08:09:02Z</time>
      </trkpt>
      <trkpt lat="48.67748" lon="2.03378">
        <ele>170</ele>
        <time>2019-05-16T08:09:06Z</time>
      </trkpt>
      <trkpt lat="48.67742" lon="2.03377">
        <ele>170</ele>
        <time>2019-05-16T08:09:10Z</time>
      </trkpt>
      <trkpt lat="48.67736" lon="2.03377">
        <ele>170</ele>
        <time>2019-05-16T08:09:14Z</time>
      </trkpt>
      <trkpt lat="48.67729" lon="2.03376">
        <ele>170</ele>
        <time>2019-05-16T08:09:18Z</time>
      </trkpt>
      <trkpt lat="48.67723" lon="2.03375">
        <ele>170</ele>
        <time>2019-05-16T08:09:22Z</time>
      </trkpt>
      <trkpt lat="48.67717" lon="2.03374">
        <ele>170</ele>
        <time>2019-05-16T08:09:26Z</time>
      </trkpt>
      <trkpt lat="48.67711" lon="2.03373">
        <ele>170</ele>
        <time>2019-05-16T08:09:30Z</time>
      </trkpt>
      <trkpt lat="48.67705" lon="2.03372">
        <ele>170</ele>
        <time>2019-05-16T08:09:34Z</time>
      </trkpt>
      <trkpt lat="48.67699" lon="2.03371">
        <ele>170</ele>
        <time>2019-05-16T08:09:38Z</time>
      </trkpt>
      <trkpt lat="48.67692" lon="2.03371">
        <ele>170</ele>
        <time>2019-05-16T08:09:42Z</time>
      </trkpt>
      <trkpt lat="48.67686" lon="2.0337">
        <ele>170</ele>
        <time>2019-05-16T08:09:46Z</time>
      </trkpt>
      <trkpt lat="48.6768" lon="2.03369">
        <ele>170</ele>
        <time>2019-05-16T08:09:50Z</time>
      </trkpt>
      <trkpt lat="48.67674" lon="2.03368">
        <ele>171</ele>
        <time>2019-05-16T08:09:54Z</time>
      </trkpt>
      <trkpt lat="48.67668" lon="2.03367">
        <ele>171</ele>
        <time>2019-05-16T08:09:58Z</time>
      </trkpt>
      <trkpt lat="48.67662" lon="2.03366">
        <ele>172</ele>
        <time>2019-05-16T08:10:02Z</time>
      </trkpt>
      <trkpt lat="48.67656" lon="2.03366">
        <ele>172</ele>
        <time>2019-05-16T08:10:06Z</time>
      </trkpt>
      <trkpt lat="48.6765" lon="2.03365">
        <ele>172</ele>
        <time>2019-05-16T08:10:10Z</time>
      </trkpt>
      <trkpt lat="48.67645" lon="2.03364">
        <ele>172</ele>
        <time>2019-05-16T08:10:14Z</time>
      </trkpt>
      <trkpt lat="48.67638" lon="2.03363">
        <ele>172</ele>
        <time>2019-05-16T08:10:18Z</time>
      </trkpt>
      <trkpt lat="48.67632" lon="2.03363">
        <ele>172</ele>
        <time>2019-05-16T08:10:22Z</time>
      </trkpt>
      <trkpt lat="48.67626" lon="2.03362">
        <ele>172</ele>
        <time>2019-05-16T08:10:26Z</time>
      </trkpt>
      <trkpt lat="48.6762" lon="2.03361">
        <ele>172</ele>
        <time>2019-05-16T08:10:30Z</time>
      </trkpt>
      <trkpt lat="48.67614" lon="2.0336">
        <ele>172</ele>
        <time>2019-05-16T08:10:34Z</time>
      </trkpt>
      <trkpt lat="48.67608" lon="2.03359">
        <ele>172</ele>
        <time>2019-05-16T08:10:38Z</time>
      </trkpt>
      <trkpt lat="48.67602" lon="2.03358">
        <ele>172</ele>
        <time>2019-05-16T08:10:42Z</time>
      </trkpt>
      <trkpt lat="48.67595" lon="2.03357">
        <ele>172</ele>
        <time>2019-05-16T08:10:46Z</time>
      </trkpt>
      <trkpt lat="48.67589" lon="2.03356">
        <ele>172</ele>
        <time>2019-05-16T08:10:50Z</time>
      </trkpt>
      <trkpt lat="48.67583" lon="2.03356">
        <ele>172</ele>
        <time>2019-05-16T08:10:54Z</time>
      </trkpt>
      <trkpt lat="48.67578" lon="2.03355">
        <ele>173</ele>
        <time>2019-05-16T08:10:58Z</time>
      </trkpt>
      <trkpt lat="48.67572" lon="2.03354">
        <ele>173</ele>
        <time>2019-05-16T08:11:02Z</time>
      </trkpt>
      <trkpt lat="48.67565" lon="2.03354">
        <ele>173</ele>
        <time>2019-05-16T08:11:06Z</time>
      </trkpt>
      <trkpt lat="48.67559" lon="2.03353">
        <ele>173</ele>
        <time>2019-05-16T08:11:10Z</time>
      </trkpt>
      <trkpt lat="48.67553" lon="2.03353">
        <ele>173</ele>
        <time>2019-05-16T08:11:14Z</time>
      </trkpt>
      <trkpt lat="48.67547" lon="2.03352">
        <ele>173</ele>
        <time>2019-05-16T08:11:18Z</time>
      </trkpt>
      <trkpt lat="48.67541" lon="2.03351">
        <ele>173</ele>
        <time>2019-05-16T08:11:22Z</time>
      </trkpt>
      <trkpt lat="48.67535" lon="2.03351">
        <ele>173</ele>
        <time>2019-05-16T08:11:26Z</time>
      </trkpt>
      <trkpt lat="48.67529" lon="2.03351">
        <ele>173</ele>
        <time>2019-05-16T08:11:30Z</time>
      </trkpt>
      <trkpt lat="48.67522" lon="2.0335">
        <ele>173</ele>
        <time>2019-05-16T08:11:34Z</time>
      </trkpt>
      <trkpt lat="48.67516" lon="2.03351">
        <ele>173</ele>
        <time>2019-05-16T08:11:38Z</time>
      </trkpt>
      <trkpt lat="48.6751" lon="2.03351">
        <ele>173</ele>
        <time>2019-05-16T08:11:42Z</time>
      </trkpt>
      <trkpt lat="48.67504" lon="2.03352">
        <ele>173</ele>
        <time>2019-05-16T08:11:46Z</time>
      </trkpt>
      <trkpt lat="48.67497" lon="2.03352">
        <ele>173</ele>
        <time>2019-05-16T08:11:50Z</time>
      </trkpt>
      <trkpt lat="48.67491" lon="2.03352">
        <ele>173</ele>
        <time>2019-05-16T08:11:54Z</time>
      </trkpt>
      <trkpt lat="48.67485" lon="2.03352">
        <ele>173</ele>
        <time>2019-05-16T08:11:58Z</time>
      </trkpt>
      <trkpt lat="48.67479" lon="2.03352">
        <ele>173</ele>
        <time>2019-05-16T08:12:02Z</time>
      </trkpt>
      <trkpt lat="48.67473" lon="2.03353">
        <ele>173</ele>
        <time>2019-05-16T08:12:06Z</time>
      </trkpt>
      <trkpt lat="48.67467" lon="2.03352">
        <ele>173</ele>
        <time>2019-05-16T08:12:10Z</time>
      </trkpt>
      <trkpt lat="48.67461" lon="2.03352">
        <ele>173</ele>
        <time>2019-05-16T08:12:14Z</time>
      </trkpt>
      <trkpt lat="48.67455" lon="2.03353">
        <ele>173</ele>
        <time>2019-05-16T08:12:18Z</time>
      </trkpt>
      <trkpt lat="48.67449" lon="2.03353">
        <ele>173</ele>
        <time>2019-05-16T08:12:22Z</time>
      </trkpt>
      <trkpt lat="48.67443" lon="2.03353">
        <ele>173</ele>
        <time>2019-05-16T08:12:26Z</time>
      </trkpt>
      <trkpt lat="48.67436" lon="2.03353">
        <ele>173</ele>
        <time>2019-05-16T08:12:30Z</time>
      </trkpt>
      <trkpt lat="48.6743" lon="2.03353">
        <ele>172</ele>
        <time>2019-05-16T08:12:34Z</time>
      </trkpt>
      <trkpt lat="48.67425" lon="2.03352">
        <ele>172</ele>
        <time>2019-05-16T08:12:38Z</time>
      </trkpt>
      <trkpt lat="48.67418" lon="2.03351">
        <ele>172</ele>
        <time>2019-05-16T08:12:42Z</time>
      </trkpt>
      <trkpt lat="48.67413" lon="2.03351">
        <ele>172</ele>
        <time>2019-05-16T08:12:46Z</time>
      </trkpt>
      <trkpt lat="48.67406" lon="2.03351">
        <ele>172</ele>
        <time>2019-05-16T08:12:50Z</time>
      </trkpt>
      <trkpt lat="48.67401" lon="2.03353">
        <ele>172</ele>
        <time>2019-05-16T08:12:54Z</time>
      </trkpt>
      <trkpt lat="48.67397" lon="2.03357">
        <ele>172</ele>
        <time>2019-05-16T08:12:58Z</time>
      </trkpt>
      <trkpt lat="48.67395" lon="2.03365">
        <ele>172</ele>
        <time>2019-05-16T08:13:02Z</time>
      </trkpt>
      <trkpt lat="48.67394" lon="2.03375">
        <ele>172</ele>
        <time>2019-05-16T08:13:08Z</time>
      </trkpt>
      <trkpt lat="48.67394" lon="2.03384">
        <ele>173</ele>
        <time>2019-05-16T08:13:12Z</time>
      </trkpt>
      <trkpt lat="48.67393" lon="2.03392">
        <ele>173</ele>
        <time>2019-05-16T08:13:16Z</time>
      </trkpt>
      <trkpt lat="48.67393" lon="2.03401">
        <ele>173</ele>
        <time>2019-05-16T08:13:20Z</time>
      </trkpt>
      <trkpt lat="48.67392" lon="2.0341">
        <ele>173</ele>
        <time>2019-05-16T08:13:24Z</time>
      </trkpt>
      <trkpt lat="48.67391" lon="2.03419">
        <ele>173</ele>
        <time>2019-05-16T08:13:28Z</time>
      </trkpt>
      <trkpt lat="48.6739" lon="2.03428">
        <ele>173</ele>
        <time>2019-05-16T08:13:32Z</time>
      </trkpt>
      <trkpt lat="48.67389" lon="2.03437">
        <ele>173</ele>
        <time>2019-05-16T08:13:36Z</time>
      </trkpt>
      <trkpt lat="48.67388" lon="2.03446">
        <ele>173</ele>
        <time>2019-05-16T08:13:40Z</time>
      </trkpt>
      <trkpt lat="48.67387" lon="2.03455">
        <ele>173</ele>
        <time>2019-05-16T08:13:44Z</time>
      </trkpt>
      <trkpt lat="48.67387" lon="2.03464">
        <ele>173</ele>
        <time>2019-05-16T08:13:48Z</time>
      </trkpt>
      <trkpt lat="48.67386" lon="2.03473">
        <ele>173</ele>
        <time>2019-05-16T08:13:52Z</time>
      </trkpt>
      <trkpt lat="48.67385" lon="2.03482">
        <ele>173</ele>
        <time>2019-05-16T08:13:56Z</time>
      </trkpt>
      <trkpt lat="48.67384" lon="2.03491">
        <ele>173</ele>
        <time>2019-05-16T08:14:00Z</time>
      </trkpt>
      <trkpt lat="48.67384" lon="2.03501">
        <ele>173</ele>
        <time>2019-05-16T08:14:04Z</time>
      </trkpt>
      <trkpt lat="48.67383" lon="2.0351">
        <ele>173</ele>
        <time>2019-05-16T08:14:08Z</time>
      </trkpt>
      <trkpt lat="48.67382" lon="2.0352">
        <ele>173</ele>
        <time>2019-05-16T08:14:12Z</time>
      </trkpt>
      <trkpt lat="48.67381" lon="2.03529">
        <ele>173</ele>
        <time>2019-05-16T08:14:16Z</time>
      </trkpt>
      <trkpt lat="48.6738" lon="2.03538">
        <ele>173</ele>
        <time>2019-05-16T08:14:20Z</time>
      </trkpt>
      <trkpt lat="48.67379" lon="2.03547">
        <ele>173</ele>
        <time>2019-05-16T08:14:24Z</time>
      </trkpt>
      <trkpt lat="48.67378" lon="2.03556">
        <ele>173</ele>
        <time>2019-05-16T08:14:28Z</time>
      </trkpt>
      <trkpt lat="48.67377" lon="2.03565">
        <ele>173</ele>
        <time>2019-05-16T08:14:32Z</time>
      </trkpt>
      <trkpt lat="48.67376" lon="2.03574">
        <ele>173</ele>
        <time>2019-05-16T08:14:36Z</time>
      </trkpt>
      <trkpt lat="48.67375" lon="2.03583">
        <ele>173</ele>
        <time>2019-05-16T08:14:40Z</time>
      </trkpt>
      <trkpt lat="48.67374" lon="2.03592">
        <ele>173</ele>
        <time>2019-05-16T08:14:44Z</time>
      </trkpt>
      <trkpt lat="48.67373" lon="2.03602">
        <ele>173</ele>
        <time>2019-05-16T08:14:48Z</time>
      </trkpt>
      <trkpt lat="48.67372" lon="2.03611">
        <ele>173</ele>
        <time>2019-05-16T08:14:52Z</time>
      </trkpt>
      <trkpt lat="48.67372" lon="2.0362">
        <ele>173</ele>
        <time>2019-05-16T08:14:56Z</time>
      </trkpt>
      <trkpt lat="48.67371" lon="2.0363">
        <ele>173</ele>
        <time>2019-05-16T08:15:00Z</time>
      </trkpt>
      <trkpt lat="48.6737" lon="2.0364">
        <ele>173</ele>
        <time>2019-05-16T08:15:04Z</time>
      </trkpt>
      <trkpt lat="48.6737" lon="2.03649">
        <ele>173</ele>
        <time>2019-05-16T08:15:08Z</time>
      </trkpt>
      <trkpt lat="48.67369" lon="2.03658">
        <ele>173</ele>
        <time>2019-05-16T08:15:12Z</time>
      </trkpt>
      <trkpt lat="48.67368" lon="2.03667">
        <ele>173</ele>
        <time>2019-05-16T08:15:16Z</time>
      </trkpt>
      <trkpt lat="48.67367" lon="2.03676">
        <ele>173</ele>
        <time>2019-05-16T08:15:20Z</time>
      </trkpt>
      <trkpt lat="48.67367" lon="2.03686">
        <ele>173</ele>
        <time>2019-05-16T08:15:24Z</time>
      </trkpt>
      <trkpt lat="48.67366" lon="2.03695">
        <ele>173</ele>
        <time>2019-05-16T08:15:28Z</time>
      </trkpt>
      <trkpt lat="48.67365" lon="2.03705">
        <ele>173</ele>
        <time>2019-05-16T08:15:32Z</time>
      </trkpt>
      <trkpt lat="48.67364" lon="2.03715">
        <ele>173</ele>
        <time>2019-05-16T08:15:36Z</time>
      </trkpt>
      <trkpt lat="48.67363" lon="2.03724">
        <ele>173</ele>
        <time>2019-05-16T08:15:40Z</time>
      </trkpt>
      <trkpt lat="48.67363" lon="2.03733">
        <ele>173</ele>
        <time>2019-05-16T08:15:44Z</time>
      </trkpt>
      <trkpt lat="48.67362" lon="2.03744">
        <ele>173</ele>
        <time>2019-05-16T08:15:48Z</time>
      </trkpt>
      <trkpt lat="48.67361" lon="2.03752">
        <ele>172</ele>
        <time>2019-05-16T08:15:52Z</time>
      </trkpt>
      <trkpt lat="48.67361" lon="2.03761">
        <ele>172</ele>
        <time>2019-05-16T08:15:56Z</time>
      </trkpt>
      <trkpt lat="48.6736" lon="2.0377">
        <ele>172</ele>
        <time>2019-05-16T08:16:00Z</time>
      </trkpt>
      <trkpt lat="48.67359" lon="2.03778">
        <ele>172</ele>
        <time>2019-05-16T08:16:04Z</time>
      </trkpt>
      <trkpt lat="48.67358" lon="2.03787">
        <ele>172</ele>
        <time>2019-05-16T08:16:08Z</time>
      </trkpt>
      <trkpt lat="48.67357" lon="2.03795">
        <ele>172</ele>
        <time>2019-05-16T08:16:12Z</time>
      </trkpt>
      <trkpt lat="48.67356" lon="2.03804">
        <ele>172</ele>
        <time>2019-05-16T08:16:16Z</time>
      </trkpt>
      <trkpt lat="48.67355" lon="2.03813">
        <ele>172</ele>
        <time>2019-05-16T08:16:20Z</time>
      </trkpt>
      <trkpt lat="48.67355" lon="2.03821">
        <ele>172</ele>
        <time>2019-05-16T08:16:24Z</time>
      </trkpt>
      <trkpt lat="48.67354" lon="2.0383">
        <ele>173</ele>
        <time>2019-05-16T08:16:28Z</time>
      </trkpt>
      <trkpt lat="48.67353" lon="2.03838">
        <ele>172</ele>
        <time>2019-05-16T08:16:32Z</time>
      </trkpt>
      <trkpt lat="48.67352" lon="2.03847">
        <ele>172</ele>
        <time>2019-05-16T08:16:36Z</time>
      </trkpt>
      <trkpt lat="48.67351" lon="2.03856">
        <ele>172</ele>
        <time>2019-05-16T08:16:40Z</time>
      </trkpt>
      <trkpt lat="48.6735" lon="2.03864">
        <ele>172</ele>
        <time>2019-05-16T08:16:44Z</time>
      </trkpt>
      <trkpt lat="48.6735" lon="2.03872">
        <ele>172</ele>
        <time>2019-05-16T08:16:48Z</time>
      </trkpt>
      <trkpt lat="48.67349" lon="2.03882">
        <ele>172</ele>
        <time>2019-05-16T08:16:52Z</time>
      </trkpt>
      <trkpt lat="48.67348" lon="2.0389">
        <ele>172</ele>
        <time>2019-05-16T08:16:56Z</time>
      </trkpt>
      <trkpt lat="48.67347" lon="2.03898">
        <ele>172</ele>
        <time>2019-05-16T08:17:00Z</time>
      </trkpt>
      <trkpt lat="48.67346" lon="2.03907">
        <ele>172</ele>
        <time>2019-05-16T08:17:04Z</time>
      </trkpt>
      <trkpt lat="48.67346" lon="2.03915">
        <ele>172</ele>
        <time>2019-05-16T08:17:08Z</time>
      </trkpt>
      <trkpt lat="48.67345" lon="2.03924">
        <ele>172</ele>
        <time>2019-05-16T08:17:12Z</time>
      </trkpt>
      <trkpt lat="48.67344" lon="2.03933">
        <ele>172</ele>
        <time>2019-05-16T08:17:16Z</time>
      </trkpt>
      <trkpt lat="48.67343" lon="2.03942">
        <ele>172</ele>
        <time>2019-05-16T08:17:20Z</time>
      </trkpt>
      <trkpt lat="48.67342" lon="2.0395">
        <ele>172</ele>
        <time>2019-05-16T08:17:24Z</time>
      </trkpt>
      <trkpt lat="48.67341" lon="2.03959">
        <ele>172</ele>
        <time>2019-05-16T08:17:28Z</time>
      </trkpt>
      <trkpt lat="48.6734" lon="2.03967">
        <ele>172</ele>
        <time>2019-05-16T08:17:32Z</time>
      </trkpt>
      <trkpt lat="48.6734" lon="2.03976">
        <ele>172</ele>
        <time>2019-05-16T08:17:36Z</time>
      </trkpt>
      <trkpt lat="48.67339" lon="2.03985">
        <ele>172</ele>
        <time>2019-05-16T08:17:40Z</time>
      </trkpt>
      <trkpt lat="48.67339" lon="2.03995">
        <ele>172</ele>
        <time>2019-05-16T08:17:44Z</time>
      </trkpt>
      <trkpt lat="48.67338" lon="2.04003">
        <ele>172</ele>
        <time>2019-05-16T08:17:48Z</time>
      </trkpt>
      <trkpt lat="48.67338" lon="2.04011">
        <ele>172</ele>
        <time>2019-05-16T08:17:52Z</time>
      </trkpt>
      <trkpt lat="48.67337" lon="2.04019">
        <ele>172</ele>
        <time>2019-05-16T08:17:56Z</time>
      </trkpt>
      <trkpt lat="48.67336" lon="2.04028">
        <ele>172</ele>
        <time>2019-05-16T08:18:00Z</time>
      </trkpt>
      <trkpt lat="48.67335" lon="2.04037">
        <ele>172</ele>
        <time>2019-05-16T08:18:04Z</time>
      </trkpt>
      <trkpt lat="48.67335" lon="2.04046">
        <ele>172</ele>
        <time>2019-05-16T08:18:08Z</time>
      </trkpt>
      <trkpt lat="48.67334" lon="2.04055">
        <ele>172</ele>
        <time>2019-05-16T08:18:12Z</time>
      </trkpt>
      <trkpt lat="48.67333" lon="2.04064">
        <ele>173</ele>
        <time>2019-05-16T08:18:16Z</time>
      </trkpt>
      <trkpt lat="48.67332" lon="2.04072">
        <ele>173</ele>
        <time>2019-05-16T08:18:20Z</time>
      </trkpt>
      <trkpt lat="48.67331" lon="2.04081">
        <ele>173</ele>
        <time>2019-05-16T08:18:24Z</time>
      </trkpt>
      <trkpt lat="48.67331" lon="2.0409">
        <ele>173</ele>
        <time>2019-05-16T08:18:28Z</time>
      </trkpt>
      <trkpt lat="48.6733" lon="2.041">
        <ele>173</ele>
        <time>2019-05-16T08:18:32Z</time>
      </trkpt>
      <trkpt lat="48.6733" lon="2.04109">
        <ele>173</ele>
        <time>2019-05-16T08:18:36Z</time>
      </trkpt>
      <trkpt lat="48.67329" lon="2.04118">
        <ele>173</ele>
        <time>2019-05-16T08:18:40Z</time>
      </trkpt>
      <trkpt lat="48.67328" lon="2.04126">
        <ele>173</ele>
        <time>2019-05-16T08:18:44Z</time>
      </trkpt>
      <trkpt lat="48.67327" lon="2.04135">
        <ele>173</ele>
        <time>2019-05-16T08:18:48Z</time>
      </trkpt>
      <trkpt lat="48.67326" lon="2.04144">
        <ele>173</ele>
        <time>2019-05-16T08:18:52Z</time>
      </trkpt>
      <trkpt lat="48.67326" lon="2.04152">
        <ele>172</ele>
        <time>2019-05-16T08:18:56Z</time>
      </trkpt>
      <trkpt lat="48.67324" lon="2.04161">
        <ele>172</ele>
        <time>2019-05-16T08:19:00Z</time>
      </trkpt>
      <trkpt lat="48.67324" lon="2.0417">
        <ele>172</ele>
        <time>2019-05-16T08:19:04Z</time>
      </trkpt>
      <trkpt lat="48.67323" lon="2.04178">
        <ele>172</ele>
        <time>2019-05-16T08:19:08Z</time>
      </trkpt>
      <trkpt lat="48.67322" lon="2.04187">
        <ele>172</ele>
        <time>2019-05-16T08:19:12Z</time>
      </trkpt>
      <trkpt lat="48.67321" lon="2.04196">
        <ele>172</ele>
        <time>2019-05-16T08:19:16Z</time>
      </trkpt>
      <trkpt lat="48.6732" lon="2.04206">
        <ele>172</ele>
        <time>2019-05-16T08:19:20Z</time>
      </trkpt>
      <trkpt lat="48.6732" lon="2.04215">
        <ele>172</ele>
        <time>2019-05-16T08:19:24Z</time>
      </trkpt>
      <trkpt lat="48.67319" lon="2.04224">
        <ele>172</ele>
        <time>2019-05-16T08:19:28Z</time>
      </trkpt>
      <trkpt lat="48.67318" lon="2.04233">
        <ele>172</ele>
        <time>2019-05-16T08:19:32Z</time>
      </trkpt>
      <trkpt lat="48.67317" lon="2.04241">
        <ele>172</ele>
        <time>2019-05-16T08:19:36Z</time>
      </trkpt>
      <trkpt lat="48.67316" lon="2.0425">
        <ele>171</ele>
        <time>2019-05-16T08:19:40Z</time>
      </trkpt>
      <trkpt lat="48.67315" lon="2.04259">
        <ele>171</ele>
        <time>2019-05-16T08:19:44Z</time>
      </trkpt>
      <trkpt lat="48.67314" lon="2.04267">
        <ele>171</ele>
        <time>2019-05-16T08:19:48Z</time>
      </trkpt>
      <trkpt lat="48.67314" lon="2.04277">
        <ele>172</ele>
        <time>2019-05-16T08:19:52Z</time>
      </trkpt>
      <trkpt lat="48.67313" lon="2.04286">
        <ele>172</ele>
        <time>2019-05-16T08:19:56Z</time>
      </trkpt>
      <trkpt lat="48.67312" lon="2.04294">
        <ele>172</ele>
        <time>2019-05-16T08:20:00Z</time>
      </trkpt>
      <trkpt lat="48.67312" lon="2.04304">
        <ele>172</ele>
        <time>2019-05-16T08:20:04Z</time>
      </trkpt>
      <trkpt lat="48.67311" lon="2.04313">
        <ele>172</ele>
        <time>2019-05-16T08:20:08Z</time>
      </trkpt>
      <trkpt lat="48.6731" lon="2.04321">
        <ele>172</ele>
        <time>2019-05-16T08:20:12Z</time>
      </trkpt>
      <trkpt lat="48.67309" lon="2.0433">
        <ele>172</ele>
        <time>2019-05-16T08:20:16Z</time>
      </trkpt>
      <trkpt lat="48.67309" lon="2.04339">
        <ele>172</ele>
        <time>2019-05-16T08:20:20Z</time>
      </trkpt>
      <trkpt lat="48.67308" lon="2.04348">
        <ele>172</ele>
        <time>2019-05-16T08:20:24Z</time>
      </trkpt>
      <trkpt lat="48.67307" lon="2.04357">
        <ele>172</ele>
        <time>2019-05-16T08:20:28Z</time>
      </trkpt>
      <trkpt lat="48.67306" lon="2.04365">
        <ele>172</ele>
        <time>2019-05-16T08:20:32Z</time>
      </trkpt>
      <trkpt lat="48.67305" lon="2.04373">
        <ele>172</ele>
        <time>2019-05-16T08:20:36Z</time>
      </trkpt>
      <trkpt lat="48.67304" lon="2.04383">
        <ele>172</ele>
        <time>2019-05-16T08:20:40Z</time>
      </trkpt>
      <trkpt lat="48.67303" lon="2.04392">
        <ele>172</ele>
        <time>2019-05-16T08:20:44Z</time>
      </trkpt>
      <trkpt lat="48.67302" lon="2.04401">
        <ele>172</ele>
        <time>2019-05-16T08:20:48Z</time>
      </trkpt>
      <trkpt lat="48.67301" lon="2.0441">
        <ele>172</ele>
        <time>2019-05-16T08:20:52Z</time>
      </trkpt>
      <trkpt lat="48.67301" lon="2.04419">
        <ele>172</ele>
        <time>2019-05-16T08:20:56Z</time>
      </trkpt>
      <trkpt lat="48.673" lon="2.04428">
        <ele>172</ele>
        <time>2019-05-16T08:21:00Z</time>
      </trkpt>
      <trkpt lat="48.67299" lon="2.04437">
        <ele>172</ele>
        <time>2019-05-16T08:21:04Z</time>
      </trkpt>
      <trkpt lat="48.67298" lon="2.04446">
        <ele>172</ele>
        <time>2019-05-16T08:21:08Z</time>
      </trkpt>
      <trkpt lat="48.67297" lon="2.04455">
        <ele>172</ele>
        <time>2019-05-16T08:21:12Z</time>
      </trkpt>
      <trkpt lat="48.67297" lon="2.04464">
        <ele>172</ele>
        <time>2019-05-16T08:21:16Z</time>
      </trkpt>
      <trkpt lat="48.67296" lon="2.04473">
        <ele>172</ele>
        <time>2019-05-16T08:21:20Z</time>
      </trkpt>
      <trkpt lat="48.67296" lon="2.04481">
        <ele>172</ele>
        <time>2019-05-16T08:21:24Z</time>
      </trkpt>
      <trkpt lat="48.67295" lon="2.04489">
        <ele>172</ele>
        <time>2019-05-16T08:21:28Z</time>
      </trkpt>
      <trkpt lat="48.67294" lon="2.04497">
        <ele>172</ele>
        <time>2019-05-16T08:21:32Z</time>
      </trkpt>
      <trkpt lat="48.67293" lon="2.04506">
        <ele>171</ele>
        <time>2019-05-16T08:21:36Z</time>
      </trkpt>
      <trkpt lat="48.67293" lon="2.04515">
        <ele>171</ele>
        <time>2019-05-16T08:21:40Z</time>
      </trkpt>
      <trkpt lat="48.67295" lon="2.04524">
        <ele>171</ele>
        <time>2019-05-16T08:21:44Z</time>
      </trkpt>
      <trkpt lat="48.67299" lon="2.04529">
        <ele>171</ele>
        <time>2019-05-16T08:21:48Z</time>
      </trkpt>
      <trkpt lat="48.67304" lon="2.04532">
        <ele>171</ele>
        <time>2019-05-16T08:21:52Z</time>
      </trkpt>
      <trkpt lat="48.6731" lon="2.04533">
        <ele>171</ele>
        <time>2019-05-16T08:21:56Z</time>
      </trkpt>
      <trkpt lat="48.67316" lon="2.04535">
        <ele>171</ele>
        <time>2019-05-16T08:22:00Z</time>
      </trkpt>
      <trkpt lat="48.67321" lon="2.04537">
        <ele>171</ele>
        <time>2019-05-16T08:22:04Z</time>
      </trkpt>
      <trkpt lat="48.67327" lon="2.04538">
        <ele>171</ele>
        <time>2019-05-16T08:22:08Z</time>
      </trkpt>
      <trkpt lat="48.67333" lon="2.0454">
        <ele>171</ele>
        <time>2019-05-16T08:22:12Z</time>
      </trkpt>
      <trkpt lat="48.67338" lon="2.04542">
        <ele>170</ele>
        <time>2019-05-16T08:22:16Z</time>
      </trkpt>
      <trkpt lat="48.67344" lon="2.04544">
        <ele>170</ele>
        <time>2019-05-16T08:22:20Z</time>
      </trkpt>
      <trkpt lat="48.67351" lon="2.04546">
        <ele>170</ele>
        <time>2019-05-16T08:22:24Z</time>
      </trkpt>
      <trkpt lat="48.67356" lon="2.04549">
        <ele>170</ele>
        <time>2019-05-16T08:22:28Z</time>
      </trkpt>
      <trkpt lat="48.67363" lon="2.0455">
        <ele>170</ele>
        <time>2019-05-16T08:22:32Z</time>
      </trkpt>
      <trkpt lat="48.67368" lon="2.04552">
        <ele>170</ele>
        <time>2019-05-16T08:22:36Z</time>
      </trkpt>
      <trkpt lat="48.67374" lon="2.04554">
        <ele>170</ele>
        <time>2019-05-16T08:22:40Z</time>
      </trkpt>
      <trkpt lat="48.6738" lon="2.04556">
        <ele>170</ele>
        <time>2019-05-16T08:22:44Z</time>
      </trkpt>
      <trkpt lat="48.67386" lon="2.04558">
        <ele>170</ele>
        <time>2019-05-16T08:22:48Z</time>
      </trkpt>
      <trkpt lat="48.67392" lon="2.0456">
        <ele>170</ele>
        <time>2019-05-16T08:22:52Z</time>
      </trkpt>
      <trkpt lat="48.67398" lon="2.04562">
        <ele>170</ele>
        <time>2019-05-16T08:22:56Z</time>
      </trkpt>
      <trkpt lat="48.67404" lon="2.04564">
        <ele>170</ele>
        <time>2019-05-16T08:23:00Z</time>
      </trkpt>
      <trkpt lat="48.6741" lon="2.04566">
        <ele>170</ele>
        <time>2019-05-16T08:23:04Z</time>
      </trkpt>
      <trkpt lat="48.67415" lon="2.04568">
        <ele>169</ele>
        <time>2019-05-16T08:23:08Z</time>
      </trkpt>
      <trkpt lat="48.67421" lon="2.0457">
        <ele>169</ele>
        <time>2019-05-16T08:23:12Z</time>
      </trkpt>
      <trkpt lat="48.67427" lon="2.04572">
        <ele>169</ele>
        <time>2019-05-16T08:23:16Z</time>
      </trkpt>
      <trkpt lat="48.67433" lon="2.04574">
        <ele>169</ele>
        <time>2019-05-16T08:23:20Z</time>
      </trkpt>
      <trkpt lat="48.67439" lon="2.04575">
        <ele>169</ele>
        <time>2019-05-16T08:23:24Z</time>
      </trkpt>
      <trkpt lat="48.67444" lon="2.04577">
        <ele>169</ele>
        <time>2019-05-16T08:23:28Z</time>
      </trkpt>
      <trkpt lat="48.67451" lon="2.0458">
        <ele>168</ele>
        <time>2019-05-16T08:23:32Z</time>
      </trkpt>
      <trkpt lat="48.67457" lon="2.04582">
        <ele>168</ele>
        <time>2019-05-16T08:23:36Z</time>
      </trkpt>
      <trkpt lat="48.67462" lon="2.04585">
        <ele>168</ele>
        <time>2019-05-16T08:23:40Z</time>
      </trkpt>
      <trkpt lat="48.67468" lon="2.04587">
        <ele>168</ele>
        <time>2019-05-16T08:23:44Z</time>
      </trkpt>
      <trkpt lat="48.67474" lon="2.04589">
        <ele>168</ele>
        <time>2019-05-16T08:23:48Z</time>
      </trkpt>
      <trkpt lat="48.6748" lon="2.04591">
        <ele>167</ele>
        <time>2019-05-16T08:23:52Z</time>
      </trkpt>
      <trkpt lat="48.67486" lon="2.04593">
        <ele>167</ele>
        <time>2019-05-16T08:23:56Z</time>
      </trkpt>
      <trkpt lat="48.67492" lon="2.04595">
        <ele>167</ele>
        <time>2019-05-16T08:24:00Z</time>
      </trkpt>
      <trkpt lat="48.67498" lon="2.04597">
        <ele>167</ele>
        <time>2019-05-16T08:24:04Z</time>
      </trkpt>
      <trkpt lat="48.67503" lon="2.04599">
        <ele>166</ele>
        <time>2019-05-16T08:24:08Z</time>
      </trkpt>
      <trkpt lat="48.67509" lon="2.046">
        <ele>166</ele>
        <time>2019-05-16T08:24:12Z</time>
      </trkpt>
      <trkpt lat="48.67515" lon="2.04602">
        <ele>166</ele>
        <time>2019-05-16T08:24:16Z</time>
      </trkpt>
      <trkpt lat="48.67521" lon="2.04604">
        <ele>166</ele>
        <time>2019-05-16T08:24:20Z</time>
      </trkpt>
      <trkpt lat="48.67527" lon="2.04606">
        <ele>166</ele>
        <time>2019-05-16T08:24:24Z</time>
      </trkpt>
      <trkpt lat="48.67533" lon="2.04607">
        <ele>166</ele>
        <time>2019-05-16T08:24:28Z</time>
      </trkpt>
      <trkpt lat="48.67539" lon="2.0461">
        <ele>166</ele>
        <time>2019-05-16T08:24:32Z</time>
      </trkpt>
      <trkpt lat="48.67544" lon="2.04611">
        <ele>166</ele>
        <time>2019-05-16T08:24:36Z</time>
      </trkpt>
      <trkpt lat="48.6755" lon="2.04613">
        <ele>165</ele>
        <time>2019-05-16T08:24:40Z</time>
      </trkpt>
      <trkpt lat="48.67557" lon="2.04615">
        <ele>165</ele>
        <time>2019-05-16T08:24:44Z</time>
      </trkpt>
      <trkpt lat="48.67563" lon="2.04616">
        <ele>165</ele>
        <time>2019-05-16T08:24:48Z</time>
      </trkpt>
      <trkpt lat="48.67568" lon="2.04618">
        <ele>165</ele>
        <time>2019-05-16T08:24:52Z</time>
      </trkpt>
      <trkpt lat="48.67574" lon="2.0462">
        <ele>165</ele>
        <time>2019-05-16T08:24:56Z</time>
      </trkpt>
      <trkpt lat="48.67581" lon="2.04622">
        <ele>165</ele>
        <time>2019-05-16T08:25:00Z</time>
      </trkpt>
      <trkpt lat="48.67586" lon="2.04623">
        <ele>165</ele>
        <time>2019-05-16T08:25:04Z</time>
      </trkpt>
      <trkpt lat="48.67592" lon="2.04625">
        <ele>164</ele>
        <time>2019-05-16T08:25:08Z</time>
      </trkpt>
      <trkpt lat="48.67598" lon="2.04627">
        <ele>164</ele>
        <time>2019-05-16T08:25:12Z</time>
      </trkpt>
      <trkpt lat="48.67604" lon="2.0463">
        <ele>164</ele>
        <time>2019-05-16T08:25:16Z</time>
      </trkpt>
      <trkpt lat="48.6761" lon="2.04632">
        <ele>164</ele>
        <time>2019-05-16T08:25:20Z</time>
      </trkpt>
      <trkpt lat="48.67615" lon="2.04635">
        <ele>164</ele>
        <time>2019-05-16T08:25:24Z</time>
      </trkpt>
      <trkpt lat="48.67621" lon="2.04639">
        <ele>164</ele>
        <time>2019-05-16T08:25:28Z</time>
      </trkpt>
      <trkpt lat="48.67627" lon="2.04643">
        <ele>164</ele>
        <time>2019-05-16T08:25:32Z</time>
      </trkpt>
      <trkpt lat="48.67632" lon="2.04647">
        <ele>164</ele>
        <time>2019-05-16T08:25:36Z</time>
      </trkpt>
      <trkpt lat="48.67637" lon="2.04653">
        <ele>164</ele>
        <time>2019-05-16T08:25:40Z</time>
      </trkpt>
      <trkpt lat="48.6764" lon="2.0466">
        <ele>164</ele>
        <time>2019-05-16T08:25:44Z</time>
      </trkpt>
      <trkpt lat="48.67642" lon="2.04669">
        <ele>164</ele>
        <time>2019-05-16T08:25:48Z</time>
      </trkpt>
      <trkpt lat="48.67644" lon="2.04677">
        <ele>164</ele>
        <time>2019-05-16T08:25:52Z</time>
      </trkpt>
      <trkpt lat="48.67645" lon="2.04687">
        <ele>164</ele>
        <time>2019-05-16T08:25:56Z</time>
      </trkpt>
      <trkpt lat="48.67645" lon="2.04695">
        <ele>164</ele>
        <time>2019-05-16T08:26:00Z</time>
      </trkpt>
      <trkpt lat="48.67645" lon="2.04705">
        <ele>164</ele>
        <time>2019-05-16T08:26:04Z</time>
      </trkpt>
      <trkpt lat="48.67645" lon="2.04713">
        <ele>163</ele>
        <time>2019-05-16T08:26:08Z</time>
      </trkpt>
      <trkpt lat="48.67646" lon="2.04721">
        <ele>163</ele>
        <time>2019-05-16T08:26:12Z</time>
      </trkpt>
      <trkpt lat="48.67647" lon="2.04729">
        <ele>163</ele>
        <time>2019-05-16T08:26:16Z</time>
      </trkpt>
      <trkpt lat="48.67648" lon="2.04738">
        <ele>163</ele>
        <time>2019-05-16T08:26:20Z</time>
      </trkpt>
      <trkpt lat="48.6765" lon="2.04746">
        <ele>163</ele>
        <time>2019-05-16T08:26:24Z</time>
      </trkpt>
      <trkpt lat="48.67653" lon="2.04754">
        <ele>163</ele>
        <time>2019-05-16T08:26:28Z</time>
      </trkpt>
      <trkpt lat="48.67656" lon="2.04762">
        <ele>163</ele>
        <time>2019-05-16T08:26:32Z</time>
      </trkpt>
      <trkpt lat="48.67659" lon="2.04769">
        <ele>163</ele>
        <time>2019-05-16T08:26:36Z</time>
      </trkpt>
      <trkpt lat="48.67663" lon="2.04775">
        <ele>163</ele>
        <time>2019-05-16T08:26:40Z</time>
      </trkpt>
      <trkpt lat="48.67666" lon="2.04782">
        <ele>163</ele>
        <time>2019-05-16T08:26:44Z</time>
      </trkpt>
      <trkpt lat="48.6767" lon="2.0479">
        <ele>164</ele>
        <time>2019-05-16T08:26:48Z</time>
      </trkpt>
      <trkpt lat="48.67672" lon="2.04796">
        <ele>164</ele>
        <time>2019-05-16T08:26:52Z</time>
      </trkpt>
      <trkpt lat="48.67674" lon="2.04802">
        <ele>164</ele>
        <time>2019-05-16T08:26:56Z</time>
      </trkpt>
      <trkpt lat="48.67677" lon="2.04808">
        <ele>164</ele>
        <time>2019-05-16T08:27:40Z</time>
      </trkpt>
      <trkpt lat="48.67678" lon="2.04818">
        <ele>164</ele>
        <time>2019-05-16T08:27:52Z</time>
      </trkpt>
      <trkpt lat="48.67678" lon="2.04826">
        <ele>164</ele>
        <time>2019-05-16T08:27:58Z</time>
      </trkpt>
      <trkpt lat="48.67679" lon="2.04833">
        <ele>164</ele>
        <time>2019-05-16T08:28:06Z</time>
      </trkpt>
      <trkpt lat="48.6768" lon="2.04841">
        <ele>164</ele>
        <time>2019-05-16T08:28:14Z</time>
      </trkpt>
      <trkpt lat="48.67681" lon="2.0485">
        <ele>164</ele>
        <time>2019-05-16T08:28:20Z</time>
      </trkpt>
      <trkpt lat="48.67682" lon="2.04858">
        <ele>164</ele>
        <time>2019-05-16T08:28:24Z</time>
      </trkpt>
      <trkpt lat="48.67685" lon="2.04865">
        <ele>164</ele>
        <time>2019-05-16T08:28:28Z</time>
      </trkpt>
      <trkpt lat="48.67687" lon="2.04873">
        <ele>164</ele>
        <time>2019-05-16T08:28:32Z</time>
      </trkpt>
      <trkpt lat="48.67691" lon="2.0488">
        <ele>164</ele>
        <time>2019-05-16T08:28:36Z</time>
      </trkpt>
      <trkpt lat="48.67694" lon="2.04886">
        <ele>164</ele>
        <time>2019-05-16T08:28:38Z</time>
      </trkpt>
      <trkpt lat="48.67696" lon="2.04894">
        <ele>164</ele>
        <time>2019-05-16T08:28:42Z</time>
      </trkpt>
      <trkpt lat="48.67697" lon="2.04903">
        <ele>164</ele>
        <time>2019-05-16T08:28:48Z</time>
      </trkpt>
      <trkpt lat="48.67699" lon="2.04911">
        <ele>164</ele>
        <time>2019-05-16T08:28:52Z</time>
      </trkpt>
      <trkpt lat="48.67701" lon="2.04921">
        <ele>163</ele>
        <time>2019-05-16T08:28:56Z</time>
      </trkpt>
      <trkpt lat="48.677" lon="2.04929">
        <ele>162</ele>
        <time>2019-05-16T08:29:00Z</time>
      </trkpt>
      <trkpt lat="48.67703" lon="2.04935">
        <ele>163</ele>
        <time>2019-05-16T08:29:02Z</time>
      </trkpt>
      <trkpt lat="48.67704" lon="2.04945">
        <ele>163</ele>
        <time>2019-05-16T08:29:06Z</time>
      </trkpt>
      <trkpt lat="48.67703" lon="2.04953">
        <ele>162</ele>
        <time>2019-05-16T08:29:12Z</time>
      </trkpt>
      <trkpt lat="48.67701" lon="2.0496">
        <ele>162</ele>
        <time>2019-05-16T08:29:16Z</time>
      </trkpt>
      <trkpt lat="48.67697" lon="2.0497">
        <ele>162</ele>
        <time>2019-05-16T08:29:22Z</time>
      </trkpt>
      <trkpt lat="48.67695" lon="2.04981">
        <ele>161</ele>
        <time>2019-05-16T08:29:26Z</time>
      </trkpt>
      <trkpt lat="48.67694" lon="2.04989">
        <ele>161</ele>
        <time>2019-05-16T08:29:30Z</time>
      </trkpt>
      <trkpt lat="48.67694" lon="2.04996">
        <ele>161</ele>
        <time>2019-05-16T08:29:34Z</time>
      </trkpt>
      <trkpt lat="48.67693" lon="2.05002">
        <ele>159</ele>
        <time>2019-05-16T08:29:38Z</time>
      </trkpt>
      <trkpt lat="48.67691" lon="2.05009">
        <ele>159</ele>
        <time>2019-05-16T08:29:42Z</time>
      </trkpt>
      <trkpt lat="48.67692" lon="2.05016">
        <ele>159</ele>
        <time>2019-05-16T08:29:44Z</time>
      </trkpt>
      <trkpt lat="48.67692" lon="2.05025">
        <ele>159</ele>
        <time>2019-05-16T08:29:48Z</time>
      </trkpt>
      <trkpt lat="48.67688" lon="2.05031">
        <ele>159</ele>
        <time>2019-05-16T08:29:52Z</time>
      </trkpt>
      <trkpt lat="48.6769" lon="2.05043">
        <ele>159</ele>
        <time>2019-05-16T08:29:56Z</time>
      </trkpt>
      <trkpt lat="48.67691" lon="2.05053">
        <ele>159</ele>
        <time>2019-05-16T08:30:00Z</time>
      </trkpt>
      <trkpt lat="48.67696" lon="2.05064">
        <ele>159</ele>
        <time>2019-05-16T08:30:04Z</time>
      </trkpt>
      <trkpt lat="48.67696" lon="2.05071">
        <ele>159</ele>
        <time>2019-05-16T08:30:08Z</time>
      </trkpt>
      <trkpt lat="48.67695" lon="2.0508">
        <ele>159</ele>
        <time>2019-05-16T08:30:14Z</time>
      </trkpt>
      <trkpt lat="48.67692" lon="2.05087">
        <ele>158</ele>
        <time>2019-05-16T08:30:18Z</time>
      </trkpt>
      <trkpt lat="48.67691" lon="2.05097">
        <ele>158</ele>
        <time>2019-05-16T08:30:22Z</time>
      </trkpt>
      <trkpt lat="48.67691" lon="2.05106">
        <ele>158</ele>
        <time>2019-05-16T08:30:26Z</time>
      </trkpt>
      <trkpt lat="48.67692" lon="2.05112">
        <ele>158</ele>
        <time>2019-05-16T08:30:30Z</time>
      </trkpt>
      <trkpt lat="48.67696" lon="2.05119">
        <ele>158</ele>
        <time>2019-05-16T08:30:36Z</time>
      </trkpt>
      <trkpt lat="48.67698" lon="2.05127">
        <ele>158</ele>
        <time>2019-05-16T08:30:40Z</time>
      </trkpt>
      <trkpt lat="48.67701" lon="2.05135">
        <ele>158</ele>
        <time>2019-05-16T08:30:48Z</time>
      </trkpt>
      <trkpt lat="48.67702" lon="2.05144">
        <ele>158</ele>
        <time>2019-05-16T08:30:52Z</time>
      </trkpt>
      <trkpt lat="48.67707" lon="2.05155">
        <ele>158</ele>
        <time>2019-05-16T08:30:56Z</time>
      </trkpt>
      <trkpt lat="48.67709" lon="2.05165">
        <ele>158</ele>
        <time>2019-05-16T08:31:02Z</time>
      </trkpt>
      <trkpt lat="48.67713" lon="2.05172">
        <ele>156</ele>
        <time>2019-05-16T08:31:08Z</time>
      </trkpt>
      <trkpt lat="48.67716" lon="2.05181">
        <ele>156</ele>
        <time>2019-05-16T08:31:12Z</time>
      </trkpt>
      <trkpt lat="48.67718" lon="2.05188">
        <ele>156</ele>
        <time>2019-05-16T08:31:16Z</time>
      </trkpt>
      <trkpt lat="48.67722" lon="2.05195">
        <ele>156</ele>
        <time>2019-05-16T08:31:22Z</time>
      </trkpt>
      <trkpt lat="48.67724" lon="2.05202">
        <ele>155</ele>
        <time>2019-05-16T08:31:26Z</time>
      </trkpt>
      <trkpt lat="48.67726" lon="2.0521">
        <ele>155</ele>
        <time>2019-05-16T08:31:40Z</time>
      </trkpt>
      <trkpt lat="48.67725" lon="2.05216">
        <ele>155</ele>
        <time>2019-05-16T08:31:56Z</time>
      </trkpt>
      <trkpt lat="48.67729" lon="2.0522">
        <ele>155</ele>
        <time>2019-05-16T08:33:42Z</time>
      </trkpt>
      <trkpt lat="48.67733" lon="2.05214">
        <ele>155</ele>
        <time>2019-05-16T08:35:56Z</time>
      </trkpt>
      <trkpt lat="48.67737" lon="2.05217">
        <ele>155</ele>
        <time>2019-05-16T08:37:12Z</time>
      </trkpt>
      <trkpt lat="48.67742" lon="2.05219">
        <ele>155</ele>
        <time>2019-05-16T08:37:30Z</time>
      </trkpt>
      <trkpt lat="48.67747" lon="2.05221">
        <ele>155</ele>
        <time>2019-05-16T08:37:38Z</time>
      </trkpt>
      <trkpt lat="48.67752" lon="2.05226">
        <ele>158</ele>
        <time>2019-05-16T08:37:44Z</time>
      </trkpt>
      <trkpt lat="48.67759" lon="2.05232">
        <ele>157</ele>
        <time>2019-05-16T08:37:48Z</time>
      </trkpt>
      <trkpt lat="48.67764" lon="2.05234">
        <ele>157</ele>
        <time>2019-05-16T08:37:52Z</time>
      </trkpt>
      <trkpt lat="48.6777" lon="2.05235">
        <ele>158</ele>
        <time>2019-05-16T08:37:56Z</time>
      </trkpt>
      <trkpt lat="48.67776" lon="2.05238">
        <ele>158</ele>
        <time>2019-05-16T08:38:00Z</time>
      </trkpt>
      <trkpt lat="48.67781" lon="2.05243">
        <ele>159</ele>
        <time>2019-05-16T08:38:04Z</time>
      </trkpt>
      <trkpt lat="48.67786" lon="2.05247">
        <ele>159</ele>
        <time>2019-05-16T08:38:08Z</time>
      </trkpt>
      <trkpt lat="48.6779" lon="2.0525">
        <ele>154</ele>
        <time>2019-05-16T08:38:12Z</time>
      </trkpt>
      <trkpt lat="48.67798" lon="2.05257">
        <ele>155</ele>
        <time>2019-05-16T08:38:18Z</time>
      </trkpt>
      <trkpt lat="48.67803" lon="2.05263">
        <ele>155</ele>
        <time>2019-05-16T08:38:24Z</time>
      </trkpt>
      <trkpt lat="48.67807" lon="2.05266">
        <ele>155</ele>
        <time>2019-05-16T08:38:28Z</time>
      </trkpt>
      <trkpt lat="48.67812" lon="2.05271">
        <ele>155</ele>
        <time>2019-05-16T08:38:32Z</time>
      </trkpt>
      <trkpt lat="48.67818" lon="2.05273">
        <ele>155</ele>
        <time>2019-05-16T08:38:36Z</time>
      </trkpt>
      <trkpt lat="48.67824" lon="2.0528">
        <ele>155</ele>
        <time>2019-05-16T08:38:42Z</time>
      </trkpt>
      <trkpt lat="48.67829" lon="2.05285">
        <ele>155</ele>
        <time>2019-05-16T08:38:44Z</time>
      </trkpt>
      <trkpt lat="48.67837" lon="2.05291">
        <ele>159</ele>
        <time>2019-05-16T08:38:48Z</time>
      </trkpt>
      <trkpt lat="48.67843" lon="2.05294">
        <ele>159</ele>
        <time>2019-05-16T08:38:52Z</time>
      </trkpt>
      <trkpt lat="48.67848" lon="2.053">
        <ele>158</ele>
        <time>2019-05-16T08:38:56Z</time>
      </trkpt>
      <trkpt lat="48.67852" lon="2.05306">
        <ele>158</ele>
        <time>2019-05-16T08:39:00Z</time>
      </trkpt>
      <trkpt lat="48.67859" lon="2.0531">
        <ele>158</ele>
        <time>2019-05-16T08:39:06Z</time>
      </trkpt>
      <trkpt lat="48.67865" lon="2.05313">
        <ele>158</ele>
        <time>2019-05-16T08:39:10Z</time>
      </trkpt>
      <trkpt lat="48.67872" lon="2.05315">
        <ele>159</ele>
        <time>2019-05-16T08:39:14Z</time>
      </trkpt>
      <trkpt lat="48.67877" lon="2.05316">
        <ele>159</ele>
        <time>2019-05-16T08:39:18Z</time>
      </trkpt>
      <trkpt lat="48.67883" lon="2.05322">
        <ele>159</ele>
        <time>2019-05-16T08:39:22Z</time>
      </trkpt>
      <trkpt lat="48.67891" lon="2.05326">
        <ele>159</ele>
        <time>2019-05-16T08:39:28Z</time>
      </trkpt>
      <trkpt lat="48.67899" lon="2.05331">
        <ele>160</ele>
        <time>2019-05-16T08:39:32Z</time>
      </trkpt>
      <trkpt lat="48.67905" lon="2.05338">
        <ele>156</ele>
        <time>2019-05-16T08:39:36Z</time>
      </trkpt>
      <trkpt lat="48.6791" lon="2.05339">
        <ele>157</ele>
        <time>2019-05-16T08:39:40Z</time>
      </trkpt>
      <trkpt lat="48.67916" lon="2.05345">
        <ele>157</ele>
        <time>2019-05-16T08:39:44Z</time>
      </trkpt>
      <trkpt lat="48.67922" lon="2.05347">
        <ele>159</ele>
        <time>2019-05-16T08:39:46Z</time>
      </trkpt>
      <trkpt lat="48.67927" lon="2.05353">
        <ele>158</ele>
        <time>2019-05-16T08:39:50Z</time>
      </trkpt>
      <trkpt lat="48.67933" lon="2.05359">
        <ele>158</ele>
        <time>2019-05-16T08:39:54Z</time>
      </trkpt>
      <trkpt lat="48.67942" lon="2.0536">
        <ele>158</ele>
        <time>2019-05-16T08:40:00Z</time>
      </trkpt>
      <trkpt lat="48.67948" lon="2.05357">
        <ele>158</ele>
        <time>2019-05-16T08:40:02Z</time>
      </trkpt>
      <trkpt lat="48.67952" lon="2.05353">
        <ele>158</ele>
        <time>2019-05-16T08:40:04Z</time>
      </trkpt>
      <trkpt lat="48.67956" lon="2.05357">
        <ele>158</ele>
        <time>2019-05-16T08:40:08Z</time>
      </trkpt>
      <trkpt lat="48.67962" lon="2.05364">
        <ele>158</ele>
        <time>2019-05-16T08:40:12Z</time>
      </trkpt>
      <trkpt lat="48.67965" lon="2.0537">
        <ele>158</ele>
        <time>2019-05-16T08:40:16Z</time>
      </trkpt>
      <trkpt lat="48.67971" lon="2.05377">
        <ele>158</ele>
        <time>2019-05-16T08:40:22Z</time>
      </trkpt>
      <trkpt lat="48.67976" lon="2.0538">
        <ele>158</ele>
        <time>2019-05-16T08:40:26Z</time>
      </trkpt>
      <trkpt lat="48.6798" lon="2.05384">
        <ele>158</ele>
        <time>2019-05-16T08:40:30Z</time>
      </trkpt>
      <trkpt lat="48.67987" lon="2.05387">
        <ele>158</ele>
        <time>2019-05-16T08:40:34Z</time>
      </trkpt>
      <trkpt lat="48.67991" lon="2.05393">
        <ele>158</ele>
        <time>2019-05-16T08:40:42Z</time>
      </trkpt>
      <trkpt lat="48.67996" lon="2.05399">
        <ele>157</ele>
        <time>2019-05-16T08:40:46Z</time>
      </trkpt>
      <trkpt lat="48.68001" lon="2.05404">
        <ele>159</ele>
        <time>2019-05-16T08:40:50Z</time>
      </trkpt>
      <trkpt lat="48.68009" lon="2.05409">
        <ele>159</ele>
        <time>2019-05-16T08:40:56Z</time>
      </trkpt>
      <trkpt lat="48.68013" lon="2.05416">
        <ele>159</ele>
        <time>2019-05-16T08:41:02Z</time>
      </trkpt>
      <trkpt lat="48.68016" lon="2.05424">
        <ele>155</ele>
        <time>2019-05-16T08:41:06Z</time>
      </trkpt>
      <trkpt lat="48.6802" lon="2.05426">
        <ele>154</ele>
        <time>2019-05-16T08:41:10Z</time>
      </trkpt>
      <trkpt lat="48.68025" lon="2.05431">
        <ele>154</ele>
        <time>2019-05-16T08:41:14Z</time>
      </trkpt>
      <trkpt lat="48.68032" lon="2.05438">
        <ele>153</ele>
        <time>2019-05-16T08:41:18Z</time>
      </trkpt>
      <trkpt lat="48.68037" lon="2.05441">
        <ele>153</ele>
        <time>2019-05-16T08:41:22Z</time>
      </trkpt>
      <trkpt lat="48.68044" lon="2.05445">
        <ele>153</ele>
        <time>2019-05-16T08:41:26Z</time>
      </trkpt>
      <trkpt lat="48.68052" lon="2.05442">
        <ele>154</ele>
        <time>2019-05-16T08:41:28Z</time>
      </trkpt>
      <trkpt lat="48.68058" lon="2.05445">
        <ele>154</ele>
        <time>2019-05-16T08:41:30Z</time>
      </trkpt>
      <trkpt lat="48.68062" lon="2.05453">
        <ele>153</ele>
        <time>2019-05-16T08:41:34Z</time>
      </trkpt>
      <trkpt lat="48.68067" lon="2.0545">
        <ele>153</ele>
        <time>2019-05-16T08:41:36Z</time>
      </trkpt>
      <trkpt lat="48.68074" lon="2.05448">
        <ele>154</ele>
        <time>2019-05-16T08:41:40Z</time>
      </trkpt>
      <trkpt lat="48.68079" lon="2.05448">
        <ele>154</ele>
        <time>2019-05-16T08:41:44Z</time>
      </trkpt>
      <trkpt lat="48.68083" lon="2.05454">
        <ele>155</ele>
        <time>2019-05-16T08:41:48Z</time>
      </trkpt>
      <trkpt lat="48.68089" lon="2.05454">
        <ele>155</ele>
        <time>2019-05-16T08:41:52Z</time>
      </trkpt>
      <trkpt lat="48.68094" lon="2.05459">
        <ele>155</ele>
        <time>2019-05-16T08:41:58Z</time>
      </trkpt>
      <trkpt lat="48.68101" lon="2.05463">
        <ele>154</ele>
        <time>2019-05-16T08:42:02Z</time>
      </trkpt>
      <trkpt lat="48.68107" lon="2.05466">
        <ele>154</ele>
        <time>2019-05-16T08:42:06Z</time>
      </trkpt>
      <trkpt lat="48.68113" lon="2.05473">
        <ele>154</ele>
        <time>2019-05-16T08:42:10Z</time>
      </trkpt>
      <trkpt lat="48.68118" lon="2.05479">
        <ele>154</ele>
        <time>2019-05-16T08:42:14Z</time>
      </trkpt>
      <trkpt lat="48.68123" lon="2.05484">
        <ele>154</ele>
        <time>2019-05-16T08:42:18Z</time>
      </trkpt>
      <trkpt lat="48.68128" lon="2.05487">
        <ele>154</ele>
        <time>2019-05-16T08:42:22Z</time>
      </trkpt>
      <trkpt lat="48.68132" lon="2.05491">
        <ele>154</ele>
        <time>2019-05-16T08:42:26Z</time>
      </trkpt>
      <trkpt lat="48.68135" lon="2.05497">
        <ele>154</ele>
        <time>2019-05-16T08:42:28Z</time>
      </trkpt>
      <trkpt lat="48.6814" lon="2.05505">
        <ele>148</ele>
        <time>2019-05-16T08:42:32Z</time>
      </trkpt>
      <trkpt lat="48.68143" lon="2.05511">
        <ele>148</ele>
        <time>2019-05-16T08:42:36Z</time>
      </trkpt>
      <trkpt lat="48.68146" lon="2.05517">
        <ele>148</ele>
        <time>2019-05-16T08:42:38Z</time>
      </trkpt>
      <trkpt lat="48.68149" lon="2.05524">
        <ele>147</ele>
        <time>2019-05-16T08:42:44Z</time>
      </trkpt>
      <trkpt lat="48.68154" lon="2.0553">
        <ele>147</ele>
        <time>2019-05-16T08:42:48Z</time>
      </trkpt>
      <trkpt lat="48.6816" lon="2.0554">
        <ele>146</ele>
        <time>2019-05-16T08:42:52Z</time>
      </trkpt>
      <trkpt lat="48.68165" lon="2.05547">
        <ele>145</ele>
        <time>2019-05-16T08:42:56Z</time>
      </trkpt>
      <trkpt lat="48.68168" lon="2.05554">
        <ele>149</ele>
        <time>2019-05-16T08:43:00Z</time>
      </trkpt>
      <trkpt lat="48.68171" lon="2.05559">
        <ele>149</ele>
        <time>2019-05-16T08:43:06Z</time>
      </trkpt>
      <trkpt lat="48.68176" lon="2.05562">
        <ele>148</ele>
        <time>2019-05-16T08:43:10Z</time>
      </trkpt>
      <trkpt lat="48.68185" lon="2.0557">
        <ele>148</ele>
        <time>2019-05-16T08:43:12Z</time>
      </trkpt>
      <trkpt lat="48.68191" lon="2.05577">
        <ele>149</ele>
        <time>2019-05-16T08:43:18Z</time>
      </trkpt>
      <trkpt lat="48.68197" lon="2.05587">
        <ele>145</ele>
        <time>2019-05-16T08:43:22Z</time>
      </trkpt>
      <trkpt lat="48.68201" lon="2.05593">
        <ele>145</ele>
        <time>2019-05-16T08:43:24Z</time>
      </trkpt>
      <trkpt lat="48.68203" lon="2.056">
        <ele>145</ele>
        <time>2019-05-16T08:43:28Z</time>
      </trkpt>
      <trkpt lat="48.68205" lon="2.05608">
        <ele>145</ele>
        <time>2019-05-16T08:43:32Z</time>
      </trkpt>
      <trkpt lat="48.6821" lon="2.05616">
        <ele>145</ele>
        <time>2019-05-16T08:43:38Z</time>
      </trkpt>
      <trkpt lat="48.68212" lon="2.05622">
        <ele>145</ele>
        <time>2019-05-16T08:43:42Z</time>
      </trkpt>
      <trkpt lat="48.68216" lon="2.05627">
        <ele>145</ele>
        <time>2019-05-16T08:43:46Z</time>
      </trkpt>
      <trkpt lat="48.6822" lon="2.05633">
        <ele>145</ele>
        <time>2019-05-16T08:43:48Z</time>
      </trkpt>
      <trkpt lat="48.68223" lon="2.0564">
        <ele>145</ele>
        <time>2019-05-16T08:43:50Z</time>
      </trkpt>
      <trkpt lat="48.68229" lon="2.0565">
        <ele>146</ele>
        <time>2019-05-16T08:43:54Z</time>
      </trkpt>
      <trkpt lat="48.68233" lon="2.05654">
        <ele>146</ele>
        <time>2019-05-16T08:43:56Z</time>
      </trkpt>
      <trkpt lat="48.68234" lon="2.05662">
        <ele>146</ele>
        <time>2019-05-16T08:44:00Z</time>
      </trkpt>
      <trkpt lat="48.68237" lon="2.0567">
        <ele>144</ele>
        <time>2019-05-16T08:44:02Z</time>
      </trkpt>
      <trkpt lat="48.68239" lon="2.05678">
        <ele>144</ele>
        <time>2019-05-16T08:44:06Z</time>
      </trkpt>
      <trkpt lat="48.68242" lon="2.05687">
        <ele>143</ele>
        <time>2019-05-16T08:44:10Z</time>
      </trkpt>
      <trkpt lat="48.68249" lon="2.05697">
        <ele>141</ele>
        <time>2019-05-16T08:44:14Z</time>
      </trkpt>
      <trkpt lat="48.68251" lon="2.05707">
        <ele>149</ele>
        <time>2019-05-16T08:44:18Z</time>
      </trkpt>
      <trkpt lat="48.68253" lon="2.05716">
        <ele>148</ele>
        <time>2019-05-16T08:44:22Z</time>
      </trkpt>
      <trkpt lat="48.68256" lon="2.05727">
        <ele>146</ele>
        <time>2019-05-16T08:44:26Z</time>
      </trkpt>
      <trkpt lat="48.68259" lon="2.05735">
        <ele>145</ele>
        <time>2019-05-16T08:44:30Z</time>
      </trkpt>
      <trkpt lat="48.68262" lon="2.05746">
        <ele>144</ele>
        <time>2019-05-16T08:44:34Z</time>
      </trkpt>
      <trkpt lat="48.68265" lon="2.05754">
        <ele>142</ele>
        <time>2019-05-16T08:44:38Z</time>
      </trkpt>
      <trkpt lat="48.68267" lon="2.05763">
        <ele>142</ele>
        <time>2019-05-16T08:44:46Z</time>
      </trkpt>
      <trkpt lat="48.6827" lon="2.05769">
        <ele>143</ele>
        <time>2019-05-16T08:44:48Z</time>
      </trkpt>
      <trkpt lat="48.68273" lon="2.05775">
        <ele>143</ele>
        <time>2019-05-16T08:44:50Z</time>
      </trkpt>
      <trkpt lat="48.68275" lon="2.05782">
        <ele>143</ele>
        <time>2019-05-16T08:44:52Z</time>
      </trkpt>
      <trkpt lat="48.68278" lon="2.05792">
        <ele>143</ele>
        <time>2019-05-16T08:44:56Z</time>
      </trkpt>
      <trkpt lat="48.6828" lon="2.05802">
        <ele>142</ele>
        <time>2019-05-16T08:45:00Z</time>
      </trkpt>
      <trkpt lat="48.68283" lon="2.0581">
        <ele>142</ele>
        <time>2019-05-16T08:45:04Z</time>
      </trkpt>
      <trkpt lat="48.68285" lon="2.0582">
        <ele>142</ele>
        <time>2019-05-16T08:45:08Z</time>
      </trkpt>
      <trkpt lat="48.68289" lon="2.05828">
        <ele>142</ele>
        <time>2019-05-16T08:45:10Z</time>
      </trkpt>
      <trkpt lat="48.6829" lon="2.05835">
        <ele>138</ele>
        <time>2019-05-16T08:45:14Z</time>
      </trkpt>
      <trkpt lat="48.68292" lon="2.05843">
        <ele>138</ele>
        <time>2019-05-16T08:45:20Z</time>
      </trkpt>
      <trkpt lat="48.68295" lon="2.05848">
        <ele>138</ele>
        <time>2019-05-16T08:45:22Z</time>
      </trkpt>
      <trkpt lat="48.68298" lon="2.05857">
        <ele>138</ele>
        <time>2019-05-16T08:45:26Z</time>
      </trkpt>
      <trkpt lat="48.683" lon="2.05865">
        <ele>138</ele>
        <time>2019-05-16T08:45:30Z</time>
      </trkpt>
      <trkpt lat="48.68308" lon="2.05878">
        <ele>138</ele>
        <time>2019-05-16T08:45:36Z</time>
      </trkpt>
      <trkpt lat="48.68312" lon="2.05885">
        <ele>138</ele>
        <time>2019-05-16T08:45:40Z</time>
      </trkpt>
      <trkpt lat="48.68315" lon="2.05893">
        <ele>138</ele>
        <time>2019-05-16T08:45:44Z</time>
      </trkpt>
      <trkpt lat="48.6832" lon="2.05902">
        <ele>138</ele>
        <time>2019-05-16T08:45:48Z</time>
      </trkpt>
      <trkpt lat="48.68322" lon="2.05909">
        <ele>139</ele>
        <time>2019-05-16T08:45:52Z</time>
      </trkpt>
      <trkpt lat="48.68324" lon="2.05919">
        <ele>137</ele>
        <time>2019-05-16T08:45:56Z</time>
      </trkpt>
      <trkpt lat="48.68326" lon="2.05928">
        <ele>136</ele>
        <time>2019-05-16T08:46:00Z</time>
      </trkpt>
      <trkpt lat="48.68329" lon="2.05935">
        <ele>135</ele>
        <time>2019-05-16T08:46:04Z</time>
      </trkpt>
      <trkpt lat="48.68332" lon="2.05944">
        <ele>134</ele>
        <time>2019-05-16T08:46:08Z</time>
      </trkpt>
      <trkpt lat="48.68335" lon="2.05952">
        <ele>141</ele>
        <time>2019-05-16T08:46:12Z</time>
      </trkpt>
      <trkpt lat="48.6834" lon="2.05962">
        <ele>141</ele>
        <time>2019-05-16T08:46:16Z</time>
      </trkpt>
      <trkpt lat="48.68342" lon="2.05972">
        <ele>140</ele>
        <time>2019-05-16T08:46:20Z</time>
      </trkpt>
      <trkpt lat="48.68343" lon="2.05979">
        <ele>139</ele>
        <time>2019-05-16T08:46:24Z</time>
      </trkpt>
      <trkpt lat="48.68346" lon="2.05985">
        <ele>138</ele>
        <time>2019-05-16T08:46:28Z</time>
      </trkpt>
      <trkpt lat="48.68351" lon="2.05989">
        <ele>138</ele>
        <time>2019-05-16T08:46:30Z</time>
      </trkpt>
      <trkpt lat="48.68355" lon="2.05993">
        <ele>139</ele>
        <time>2019-05-16T08:46:34Z</time>
      </trkpt>
      <trkpt lat="48.68359" lon="2.06">
        <ele>140</ele>
        <time>2019-05-16T08:46:38Z</time>
      </trkpt>
      <trkpt lat="48.68364" lon="2.06004">
        <ele>134</ele>
        <time>2019-05-16T08:46:42Z</time>
      </trkpt>
      <trkpt lat="48.6837" lon="2.06011">
        <ele>135</ele>
        <time>2019-05-16T08:46:46Z</time>
      </trkpt>
      <trkpt lat="48.68374" lon="2.06018">
        <ele>135</ele>
        <time>2019-05-16T08:46:50Z</time>
      </trkpt>
      <trkpt lat="48.68377" lon="2.06023">
        <ele>136</ele>
        <time>2019-05-16T08:46:54Z</time>
      </trkpt>
      <trkpt lat="48.6838" lon="2.0603">
        <ele>135</ele>
        <time>2019-05-16T08:47:02Z</time>
      </trkpt>
      <trkpt lat="48.68384" lon="2.06035">
        <ele>135</ele>
        <time>2019-05-16T08:47:08Z</time>
      </trkpt>
      <trkpt lat="48.68388" lon="2.0604">
        <ele>136</ele>
        <time>2019-05-16T08:47:12Z</time>
      </trkpt>
      <trkpt lat="48.68391" lon="2.06045">
        <ele>135</ele>
        <time>2019-05-16T08:47:16Z</time>
      </trkpt>
      <trkpt lat="48.68395" lon="2.0605">
        <ele>135</ele>
        <time>2019-05-16T08:47:18Z</time>
      </trkpt>
      <trkpt lat="48.68397" lon="2.06056">
        <ele>135</ele>
        <time>2019-05-16T08:47:22Z</time>
      </trkpt>
      <trkpt lat="48.68402" lon="2.06063">
        <ele>135</ele>
        <time>2019-05-16T08:47:26Z</time>
      </trkpt>
      <trkpt lat="48.68405" lon="2.06068">
        <ele>136</ele>
        <time>2019-05-16T08:47:28Z</time>
      </trkpt>
      <trkpt lat="48.6841" lon="2.06077">
        <ele>136</ele>
        <time>2019-05-16T08:47:32Z</time>
      </trkpt>
      <trkpt lat="48.68413" lon="2.06086">
        <ele>135</ele>
        <time>2019-05-16T08:47:38Z</time>
      </trkpt>
      <trkpt lat="48.68418" lon="2.06093">
        <ele>138</ele>
        <time>2019-05-16T08:47:42Z</time>
      </trkpt>
      <trkpt lat="48.68423" lon="2.06097">
        <ele>138</ele>
        <time>2019-05-16T08:47:46Z</time>
      </trkpt>
      <trkpt lat="48.68428" lon="2.06103">
        <ele>139</ele>
        <time>2019-05-16T08:47:50Z</time>
      </trkpt>
      <trkpt lat="48.68435" lon="2.0611">
        <ele>139</ele>
        <time>2019-05-16T08:47:56Z</time>
      </trkpt>
      <trkpt lat="48.68442" lon="2.06115">
        <ele>140</ele>
        <time>2019-05-16T08:47:58Z</time>
      </trkpt>
      <trkpt lat="48.68445" lon="2.06123">
        <ele>139</ele>
        <time>2019-05-16T08:48:04Z</time>
      </trkpt>
      <trkpt lat="48.68449" lon="2.06129">
        <ele>139</ele>
        <time>2019-05-16T08:48:10Z</time>
      </trkpt>
      <trkpt lat="48.68456" lon="2.06135">
        <ele>140</ele>
        <time>2019-05-16T08:48:16Z</time>
      </trkpt>
      <trkpt lat="48.68461" lon="2.06139">
        <ele>140</ele>
        <time>2019-05-16T08:48:20Z</time>
      </trkpt>
      <trkpt lat="48.68466" lon="2.06139">
        <ele>140</ele>
        <time>2019-05-16T08:48:24Z</time>
      </trkpt>
      <trkpt lat="48.6847" lon="2.06142">
        <ele>141</ele>
        <time>2019-05-16T08:48:28Z</time>
      </trkpt>
      <trkpt lat="48.68475" lon="2.06146">
        <ele>141</ele>
        <time>2019-05-16T08:48:34Z</time>
      </trkpt>
      <trkpt lat="48.6848" lon="2.0615">
        <ele>141</ele>
        <time>2019-05-16T08:48:38Z</time>
      </trkpt>
      <trkpt lat="48.68485" lon="2.06153">
        <ele>141</ele>
        <time>2019-05-16T08:48:42Z</time>
      </trkpt>
      <trkpt lat="48.68491" lon="2.06156">
        <ele>141</ele>
        <time>2019-05-16T08:48:44Z</time>
      </trkpt>
      <trkpt lat="48.68496" lon="2.06161">
        <ele>142</ele>
        <time>2019-05-16T08:48:48Z</time>
      </trkpt>
      <trkpt lat="48.68501" lon="2.06164">
        <ele>143</ele>
        <time>2019-05-16T08:48:54Z</time>
      </trkpt>
      <trkpt lat="48.68506" lon="2.06168">
        <ele>141</ele>
        <time>2019-05-16T08:49:00Z</time>
      </trkpt>
      <trkpt lat="48.68512" lon="2.06172">
        <ele>141</ele>
        <time>2019-05-16T08:49:06Z</time>
      </trkpt>
      <trkpt lat="48.68519" lon="2.06181">
        <ele>140</ele>
        <time>2019-05-16T08:49:10Z</time>
      </trkpt>
      <trkpt lat="48.68527" lon="2.06184">
        <ele>140</ele>
        <time>2019-05-16T08:49:14Z</time>
      </trkpt>
      <trkpt lat="48.68534" lon="2.06184">
        <ele>140</ele>
        <time>2019-05-16T08:49:18Z</time>
      </trkpt>
      <trkpt lat="48.68543" lon="2.06184">
        <ele>140</ele>
        <time>2019-05-16T08:49:22Z</time>
      </trkpt>
      <trkpt lat="48.68548" lon="2.06185">
        <ele>140</ele>
        <time>2019-05-16T08:49:28Z</time>
      </trkpt>
      <trkpt lat="48.68553" lon="2.06184">
        <ele>140</ele>
        <time>2019-05-16T08:49:30Z</time>
      </trkpt>
      <trkpt lat="48.68559" lon="2.06186">
        <ele>140</ele>
        <time>2019-05-16T08:49:34Z</time>
      </trkpt>
      <trkpt lat="48.68565" lon="2.06186">
        <ele>140</ele>
        <time>2019-05-16T08:49:40Z</time>
      </trkpt>
      <trkpt lat="48.68573" lon="2.06186">
        <ele>141</ele>
        <time>2019-05-16T08:49:44Z</time>
      </trkpt>
      <trkpt lat="48.6858" lon="2.06185">
        <ele>141</ele>
        <time>2019-05-16T08:49:46Z</time>
      </trkpt>
      <trkpt lat="48.68585" lon="2.06189">
        <ele>137</ele>
        <time>2019-05-16T08:49:52Z</time>
      </trkpt>
      <trkpt lat="48.6859" lon="2.06187">
        <ele>137</ele>
        <time>2019-05-16T08:49:54Z</time>
      </trkpt>
      <trkpt lat="48.68597" lon="2.06187">
        <ele>136</ele>
        <time>2019-05-16T08:49:58Z</time>
      </trkpt>
      <trkpt lat="48.68602" lon="2.06189">
        <ele>136</ele>
        <time>2019-05-16T08:50:00Z</time>
      </trkpt>
      <trkpt lat="48.68607" lon="2.06191">
        <ele>135</ele>
        <time>2019-05-16T08:50:04Z</time>
      </trkpt>
      <trkpt lat="48.68611" lon="2.06194">
        <ele>134</ele>
        <time>2019-05-16T08:50:08Z</time>
      </trkpt>
      <trkpt lat="48.68617" lon="2.06197">
        <ele>134</ele>
        <time>2019-05-16T08:50:12Z</time>
      </trkpt>
      <trkpt lat="48.68622" lon="2.06195">
        <ele>133</ele>
        <time>2019-05-16T08:50:20Z</time>
      </trkpt>
      <trkpt lat="48.68625" lon="2.0619">
        <ele>133</ele>
        <time>2019-05-16T08:50:28Z</time>
      </trkpt>
      <trkpt lat="48.68633" lon="2.06185">
        <ele>132</ele>
        <time>2019-05-16T08:50:32Z</time>
      </trkpt>
      <trkpt lat="48.68637" lon="2.06181">
        <ele>132</ele>
        <time>2019-05-16T08:50:34Z</time>
      </trkpt>
      <trkpt lat="48.68642" lon="2.06177">
        <ele>131</ele>
        <time>2019-05-16T08:50:36Z</time>
      </trkpt>
      <trkpt lat="48.68648" lon="2.06172">
        <ele>131</ele>
        <time>2019-05-16T08:50:40Z</time>
      </trkpt>
      <trkpt lat="48.68654" lon="2.06168">
        <ele>130</ele>
        <time>2019-05-16T08:50:48Z</time>
      </trkpt>
      <trkpt lat="48.6866" lon="2.06162">
        <ele>130</ele>
        <time>2019-05-16T08:50:54Z</time>
      </trkpt>
      <trkpt lat="48.68664" lon="2.06159">
        <ele>130</ele>
        <time>2019-05-16T08:50:58Z</time>
      </trkpt>
      <trkpt lat="48.6867" lon="2.06151">
        <ele>126</ele>
        <time>2019-05-16T08:51:02Z</time>
      </trkpt>
      <trkpt lat="48.68675" lon="2.06144">
        <ele>125</ele>
        <time>2019-05-16T08:51:06Z</time>
      </trkpt>
      <trkpt lat="48.68678" lon="2.06139">
        <ele>125</ele>
        <time>2019-05-16T08:51:10Z</time>
      </trkpt>
      <trkpt lat="48.68678" lon="2.0613">
        <ele>125</ele>
        <time>2019-05-16T08:51:16Z</time>
      </trkpt>
      <trkpt lat="48.68678" lon="2.06122">
        <ele>125</ele>
        <time>2019-05-16T08:51:22Z</time>
      </trkpt>
      <trkpt lat="48.68677" lon="2.06116">
        <ele>125</ele>
        <time>2019-05-16T08:51:26Z</time>
      </trkpt>
      <trkpt lat="48.68676" lon="2.06107">
        <ele>125</ele>
        <time>2019-05-16T08:51:30Z</time>
      </trkpt>
      <trkpt lat="48.68675" lon="2.06099">
        <ele>125</ele>
        <time>2019-05-16T08:51:36Z</time>
      </trkpt>
      <trkpt lat="48.68673" lon="2.06089">
        <ele>125</ele>
        <time>2019-05-16T08:51:42Z</time>
      </trkpt>
      <trkpt lat="48.68672" lon="2.06081">
        <ele>126</ele>
        <time>2019-05-16T08:51:46Z</time>
      </trkpt>
      <trkpt lat="48.68669" lon="2.06072">
        <ele>126</ele>
        <time>2019-05-16T08:51:50Z</time>
      </trkpt>
      <trkpt lat="48.68672" lon="2.06064">
        <ele>126</ele>
        <time>2019-05-16T08:51:54Z</time>
      </trkpt>
      <trkpt lat="48.6867" lon="2.06055">
        <ele>126</ele>
        <time>2019-05-16T08:52:00Z</time>
      </trkpt>
      <trkpt lat="48.68666" lon="2.06051">
        <ele>134</ele>
        <time>2019-05-16T08:52:02Z</time>
      </trkpt>
      <trkpt lat="48.68664" lon="2.06043">
        <ele>134</ele>
        <time>2019-05-16T08:52:06Z</time>
      </trkpt>
      <trkpt lat="48.68665" lon="2.06036">
        <ele>134</ele>
        <time>2019-05-16T08:52:10Z</time>
      </trkpt>
      <trkpt lat="48.68665" lon="2.06028">
        <ele>134</ele>
        <time>2019-05-16T08:52:14Z</time>
      </trkpt>
      <trkpt lat="48.68666" lon="2.06018">
        <ele>132</ele>
        <time>2019-05-16T08:52:20Z</time>
      </trkpt>
      <trkpt lat="48.68663" lon="2.06011">
        <ele>131</ele>
        <time>2019-05-16T08:52:24Z</time>
      </trkpt>
      <trkpt lat="48.68662" lon="2.06002">
        <ele>129</ele>
        <time>2019-05-16T08:52:28Z</time>
      </trkpt>
      <trkpt lat="48.68661" lon="2.05995">
        <ele>131</ele>
        <time>2019-05-16T08:52:34Z</time>
      </trkpt>
      <trkpt lat="48.68661" lon="2.05983">
        <ele>134</ele>
        <time>2019-05-16T08:52:40Z</time>
      </trkpt>
      <trkpt lat="48.68662" lon="2.05975">
        <ele>135</ele>
        <time>2019-05-16T08:52:44Z</time>
      </trkpt>
      <trkpt lat="48.68662" lon="2.05964">
        <ele>137</ele>
        <time>2019-05-16T08:52:48Z</time>
      </trkpt>
      <trkpt lat="48.68663" lon="2.05956">
        <ele>137</ele>
        <time>2019-05-16T08:52:52Z</time>
      </trkpt>
      <trkpt lat="48.68662" lon="2.05948">
        <ele>137</ele>
        <time>2019-05-16T08:52:56Z</time>
      </trkpt>
      <trkpt lat="48.68657" lon="2.05943">
        <ele>137</ele>
        <time>2019-05-16T08:52:58Z</time>
      </trkpt>
      <trkpt lat="48.68658" lon="2.05933">
        <ele>136</ele>
        <time>2019-05-16T08:53:04Z</time>
      </trkpt>
      <trkpt lat="48.68653" lon="2.05925">
        <ele>136</ele>
        <time>2019-05-16T08:53:08Z</time>
      </trkpt>
      <trkpt lat="48.68652" lon="2.05917">
        <ele>136</ele>
        <time>2019-05-16T08:53:14Z</time>
      </trkpt>
      <trkpt lat="48.68645" lon="2.05914">
        <ele>140</ele>
        <time>2019-05-16T08:53:16Z</time>
      </trkpt>
      <trkpt lat="48.68641" lon="2.05909">
        <ele>141</ele>
        <time>2019-05-16T08:53:22Z</time>
      </trkpt>
      <trkpt lat="48.68642" lon="2.05902">
        <ele>141</ele>
        <time>2019-05-16T08:53:26Z</time>
      </trkpt>
      <trkpt lat="48.68645" lon="2.05895">
        <ele>141</ele>
        <time>2019-05-16T08:53:32Z</time>
      </trkpt>
      <trkpt lat="48.68648" lon="2.05887">
        <ele>142</ele>
        <time>2019-05-16T08:53:38Z</time>
      </trkpt>
      <trkpt lat="48.68651" lon="2.05876">
        <ele>142</ele>
        <time>2019-05-16T08:53:42Z</time>
      </trkpt>
      <trkpt lat="48.68656" lon="2.05868">
        <ele>142</ele>
        <time>2019-05-16T08:53:48Z</time>
      </trkpt>
      <trkpt lat="48.6865" lon="2.05865">
        <ele>143</ele>
        <time>2019-05-16T08:53:50Z</time>
      </trkpt>
      <trkpt lat="48.68649" lon="2.05857">
        <ele>143</ele>
        <time>2019-05-16T08:53:56Z</time>
      </trkpt>
      <trkpt lat="48.68648" lon="2.05847">
        <ele>143</ele>
        <time>2019-05-16T08:54:00Z</time>
      </trkpt>
      <trkpt lat="48.68647" lon="2.05838">
        <ele>143</ele>
        <time>2019-05-16T08:54:04Z</time>
      </trkpt>
      <trkpt lat="48.68649" lon="2.0583">
        <ele>144</ele>
        <time>2019-05-16T08:54:08Z</time>
      </trkpt>
      <trkpt lat="48.68649" lon="2.05822">
        <ele>144</ele>
        <time>2019-05-16T08:54:12Z</time>
      </trkpt>
      <trkpt lat="48.6865" lon="2.05814">
        <ele>145</ele>
        <time>2019-05-16T08:54:16Z</time>
      </trkpt>
      <trkpt lat="48.68651" lon="2.05804">
        <ele>146</ele>
        <time>2019-05-16T08:54:22Z</time>
      </trkpt>
      <trkpt lat="48.68651" lon="2.05796">
        <ele>146</ele>
        <time>2019-05-16T08:54:28Z</time>
      </trkpt>
      <trkpt lat="48.68651" lon="2.05781">
        <ele>146</ele>
        <time>2019-05-16T08:54:32Z</time>
      </trkpt>
      <trkpt lat="48.6865" lon="2.05772">
        <ele>146</ele>
        <time>2019-05-16T08:54:36Z</time>
      </trkpt>
      <trkpt lat="48.68646" lon="2.05763">
        <ele>146</ele>
        <time>2019-05-16T08:54:40Z</time>
      </trkpt>
      <trkpt lat="48.68647" lon="2.05754">
        <ele>146</ele>
        <time>2019-05-16T08:54:46Z</time>
      </trkpt>
      <trkpt lat="48.68647" lon="2.05746">
        <ele>147</ele>
        <time>2019-05-16T08:54:50Z</time>
      </trkpt>
      <trkpt lat="48.68647" lon="2.05738">
        <ele>147</ele>
        <time>2019-05-16T08:54:54Z</time>
      </trkpt>
      <trkpt lat="48.68648" lon="2.05731">
        <ele>147</ele>
        <time>2019-05-16T08:54:58Z</time>
      </trkpt>
      <trkpt lat="48.6865" lon="2.05722">
        <ele>148</ele>
        <time>2019-05-16T08:55:02Z</time>
      </trkpt>
      <trkpt lat="48.68649" lon="2.05715">
        <ele>148</ele>
        <time>2019-05-16T08:55:06Z</time>
      </trkpt>
      <trkpt lat="48.68645" lon="2.05703">
        <ele>148</ele>
        <time>2019-05-16T08:55:10Z</time>
      </trkpt>
      <trkpt lat="48.68644" lon="2.05694">
        <ele>148</ele>
        <time>2019-05-16T08:55:14Z</time>
      </trkpt>
      <trkpt lat="48.6864" lon="2.05688">
        <ele>148</ele>
        <time>2019-05-16T08:55:18Z</time>
      </trkpt>
      <trkpt lat="48.68638" lon="2.05681">
        <ele>149</ele>
        <time>2019-05-16T08:55:22Z</time>
      </trkpt>
      <trkpt lat="48.68636" lon="2.05674">
        <ele>149</ele>
        <time>2019-05-16T08:55:26Z</time>
      </trkpt>
      <trkpt lat="48.68637" lon="2.05665">
        <ele>149</ele>
        <time>2019-05-16T08:55:32Z</time>
      </trkpt>
      <trkpt lat="48.6864" lon="2.05658">
        <ele>149</ele>
        <time>2019-05-16T08:55:36Z</time>
      </trkpt>
      <trkpt lat="48.68642" lon="2.05651">
        <ele>149</ele>
        <time>2019-05-16T08:55:40Z</time>
      </trkpt>
      <trkpt lat="48.68643" lon="2.05643">
        <ele>149</ele>
        <time>2019-05-16T08:55:44Z</time>
      </trkpt>
      <trkpt lat="48.68643" lon="2.05632">
        <ele>150</ele>
        <time>2019-05-16T08:55:48Z</time>
      </trkpt>
      <trkpt lat="48.68645" lon="2.05622">
        <ele>150</ele>
        <time>2019-05-16T08:55:52Z</time>
      </trkpt>
      <trkpt lat="48.6864" lon="2.05615">
        <ele>150</ele>
        <time>2019-05-16T08:55:56Z</time>
      </trkpt>
      <trkpt lat="48.68639" lon="2.05605">
        <ele>150</ele>
        <time>2019-05-16T08:56:00Z</time>
      </trkpt>
      <trkpt lat="48.6864" lon="2.05597">
        <ele>150</ele>
        <time>2019-05-16T08:56:04Z</time>
      </trkpt>
      <trkpt lat="48.68641" lon="2.05588">
        <ele>150</ele>
        <time>2019-05-16T08:56:08Z</time>
      </trkpt>
      <trkpt lat="48.68639" lon="2.05581">
        <ele>151</ele>
        <time>2019-05-16T08:56:12Z</time>
      </trkpt>
      <trkpt lat="48.68638" lon="2.05572">
        <ele>151</ele>
        <time>2019-05-16T08:56:18Z</time>
      </trkpt>
      <trkpt lat="48.68638" lon="2.05565">
        <ele>151</ele>
        <time>2019-05-16T08:56:20Z</time>
      </trkpt>
      <trkpt lat="48.68639" lon="2.05556">
        <ele>151</ele>
        <time>2019-05-16T08:56:26Z</time>
      </trkpt>
      <trkpt lat="48.68642" lon="2.0555">
        <ele>151</ele>
        <time>2019-05-16T08:56:32Z</time>
      </trkpt>
      <trkpt lat="48.68646" lon="2.05545">
        <ele>151</ele>
        <time>2019-05-16T08:56:42Z</time>
      </trkpt>
      <trkpt lat="48.6865" lon="2.05543">
        <ele>151</ele>
        <time>2019-05-16T08:56:46Z</time>
      </trkpt>
      <trkpt lat="48.68655" lon="2.05538">
        <ele>151</ele>
        <time>2019-05-16T08:56:52Z</time>
      </trkpt>
      <trkpt lat="48.68659" lon="2.05533">
        <ele>151</ele>
        <time>2019-05-16T08:56:56Z</time>
      </trkpt>
      <trkpt lat="48.68666" lon="2.05526">
        <ele>151</ele>
        <time>2019-05-16T08:57:02Z</time>
      </trkpt>
      <trkpt lat="48.6867" lon="2.05517">
        <ele>151</ele>
        <time>2019-05-16T08:57:08Z</time>
      </trkpt>
      <trkpt lat="48.68672" lon="2.05508">
        <ele>151</ele>
        <time>2019-05-16T08:57:14Z</time>
      </trkpt>
      <trkpt lat="48.68673" lon="2.05501">
        <ele>151</ele>
        <time>2019-05-16T08:57:18Z</time>
      </trkpt>
      <trkpt lat="48.68671" lon="2.05493">
        <ele>151</ele>
        <time>2019-05-16T08:57:22Z</time>
      </trkpt>
      <trkpt lat="48.68671" lon="2.05485">
        <ele>152</ele>
        <time>2019-05-16T08:57:26Z</time>
      </trkpt>
      <trkpt lat="48.68674" lon="2.0548">
        <ele>152</ele>
        <time>2019-05-16T08:57:30Z</time>
      </trkpt>
      <trkpt lat="48.68673" lon="2.05471">
        <ele>152</ele>
        <time>2019-05-16T08:57:36Z</time>
      </trkpt>
      <trkpt lat="48.68676" lon="2.05464">
        <ele>153</ele>
        <time>2019-05-16T08:57:40Z</time>
      </trkpt>
      <trkpt lat="48.68679" lon="2.05458">
        <ele>153</ele>
        <time>2019-05-16T08:57:42Z</time>
      </trkpt>
      <trkpt lat="48.68681" lon="2.05447">
        <ele>153</ele>
        <time>2019-05-16T08:57:46Z</time>
      </trkpt>
      <trkpt lat="48.68683" lon="2.0544">
        <ele>153</ele>
        <time>2019-05-16T08:57:50Z</time>
      </trkpt>
      <trkpt lat="48.68686" lon="2.05432">
        <ele>152</ele>
        <time>2019-05-16T08:57:58Z</time>
      </trkpt>
      <trkpt lat="48.68686" lon="2.05425">
        <ele>152</ele>
        <time>2019-05-16T08:58:02Z</time>
      </trkpt>
      <trkpt lat="48.68686" lon="2.05418">
        <ele>152</ele>
        <time>2019-05-16T08:58:06Z</time>
      </trkpt>
      <trkpt lat="48.68687" lon="2.05406">
        <ele>153</ele>
        <time>2019-05-16T08:58:12Z</time>
      </trkpt>
      <trkpt lat="48.6869" lon="2.05396">
        <ele>154</ele>
        <time>2019-05-16T08:58:16Z</time>
      </trkpt>
      <trkpt lat="48.68692" lon="2.0539">
        <ele>154</ele>
        <time>2019-05-16T08:58:20Z</time>
      </trkpt>
      <trkpt lat="48.68696" lon="2.05383">
        <ele>154</ele>
        <time>2019-05-16T08:58:24Z</time>
      </trkpt>
      <trkpt lat="48.687" lon="2.05375">
        <ele>155</ele>
        <time>2019-05-16T08:58:28Z</time>
      </trkpt>
      <trkpt lat="48.68702" lon="2.05366">
        <ele>155</ele>
        <time>2019-05-16T08:58:34Z</time>
      </trkpt>
      <trkpt lat="48.68705" lon="2.05357">
        <ele>155</ele>
        <time>2019-05-16T08:58:40Z</time>
      </trkpt>
      <trkpt lat="48.68705" lon="2.05347">
        <ele>155</ele>
        <time>2019-05-16T08:58:44Z</time>
      </trkpt>
      <trkpt lat="48.68707" lon="2.0534">
        <ele>156</ele>
        <time>2019-05-16T08:58:48Z</time>
      </trkpt>
      <trkpt lat="48.68711" lon="2.05333">
        <ele>157</ele>
        <time>2019-05-16T08:58:54Z</time>
      </trkpt>
      <trkpt lat="48.68714" lon="2.05326">
        <ele>157</ele>
        <time>2019-05-16T08:58:58Z</time>
      </trkpt>
      <trkpt lat="48.68717" lon="2.05319">
        <ele>158</ele>
        <time>2019-05-16T08:59:04Z</time>
      </trkpt>
      <trkpt lat="48.68721" lon="2.05315">
        <ele>158</ele>
        <time>2019-05-16T08:59:12Z</time>
      </trkpt>
      <trkpt lat="48.68726" lon="2.05313">
        <ele>158</ele>
        <time>2019-05-16T08:59:42Z</time>
      </trkpt>
      <trkpt lat="48.68729" lon="2.05304">
        <ele>158</ele>
        <time>2019-05-16T08:59:50Z</time>
      </trkpt>
      <trkpt lat="48.68733" lon="2.053">
        <ele>158</ele>
        <time>2019-05-16T08:59:54Z</time>
      </trkpt>
      <trkpt lat="48.68737" lon="2.05295">
        <ele>159</ele>
        <time>2019-05-16T08:59:58Z</time>
      </trkpt>
      <trkpt lat="48.6874" lon="2.0529">
        <ele>159</ele>
        <time>2019-05-16T09:00:06Z</time>
      </trkpt>
      <trkpt lat="48.68745" lon="2.05285">
        <ele>159</ele>
        <time>2019-05-16T09:00:10Z</time>
      </trkpt>
      <trkpt lat="48.68748" lon="2.05275">
        <ele>159</ele>
        <time>2019-05-16T09:00:16Z</time>
      </trkpt>
      <trkpt lat="48.6875" lon="2.05268">
        <ele>160</ele>
        <time>2019-05-16T09:00:20Z</time>
      </trkpt>
      <trkpt lat="48.68754" lon="2.05259">
        <ele>163</ele>
        <time>2019-05-16T09:00:26Z</time>
      </trkpt>
      <trkpt lat="48.68757" lon="2.05254">
        <ele>163</ele>
        <time>2019-05-16T09:00:32Z</time>
      </trkpt>
      <trkpt lat="48.68762" lon="2.05249">
        <ele>163</ele>
        <time>2019-05-16T09:00:38Z</time>
      </trkpt>
      <trkpt lat="48.68765" lon="2.05244">
        <ele>163</ele>
        <time>2019-05-16T09:00:42Z</time>
      </trkpt>
      <trkpt lat="48.68773" lon="2.05239">
        <ele>163</ele>
        <time>2019-05-16T09:00:50Z</time>
      </trkpt>
      <trkpt lat="48.68778" lon="2.05236">
        <ele>163</ele>
        <time>2019-05-16T09:00:54Z</time>
      </trkpt>
      <trkpt lat="48.68783" lon="2.05234">
        <ele>163</ele>
        <time>2019-05-16T09:01:04Z</time>
      </trkpt>
      <trkpt lat="48.68788" lon="2.05231">
        <ele>163</ele>
        <time>2019-05-16T09:01:36Z</time>
      </trkpt>
      <trkpt lat="48.68791" lon="2.05227">
        <ele>163</ele>
        <time>2019-05-16T09:03:06Z</time>
      </trkpt>
      <trkpt lat="48.68796" lon="2.05228">
        <ele>163</ele>
        <time>2019-05-16T09:03:12Z</time>
      </trkpt>
      <trkpt lat="48.68801" lon="2.05233">
        <ele>164</ele>
        <time>2019-05-16T09:03:16Z</time>
      </trkpt>
      <trkpt lat="48.68807" lon="2.05235">
        <ele>164</ele>
        <time>2019-05-16T09:03:20Z</time>
      </trkpt>
      <trkpt lat="48.68811" lon="2.05241">
        <ele>164</ele>
        <time>2019-05-16T09:03:26Z</time>
      </trkpt>
      <trkpt lat="48.68817" lon="2.05245">
        <ele>165</ele>
        <time>2019-05-16T09:03:30Z</time>
      </trkpt>
      <trkpt lat="48.68822" lon="2.05249">
        <ele>165</ele>
        <time>2019-05-16T09:03:34Z</time>
      </trkpt>
      <trkpt lat="48.68825" lon="2.05254">
        <ele>166</ele>
        <time>2019-05-16T09:03:38Z</time>
      </trkpt>
      <trkpt lat="48.6883" lon="2.05258">
        <ele>166</ele>
        <time>2019-05-16T09:03:42Z</time>
      </trkpt>
      <trkpt lat="48.68833" lon="2.05266">
        <ele>168</ele>
        <time>2019-05-16T09:03:46Z</time>
      </trkpt>
      <trkpt lat="48.68839" lon="2.05274">
        <ele>168</ele>
        <time>2019-05-16T09:03:52Z</time>
      </trkpt>
      <trkpt lat="48.68845" lon="2.0528">
        <ele>168</ele>
        <time>2019-05-16T09:03:58Z</time>
      </trkpt>
      <trkpt lat="48.68851" lon="2.05282">
        <ele>168</ele>
        <time>2019-05-16T09:04:02Z</time>
      </trkpt>
      <trkpt lat="48.68857" lon="2.05286">
        <ele>168</ele>
        <time>2019-05-16T09:04:06Z</time>
      </trkpt>
      <trkpt lat="48.68861" lon="2.05291">
        <ele>168</ele>
        <time>2019-05-16T09:04:10Z</time>
      </trkpt>
      <trkpt lat="48.68867" lon="2.05296">
        <ele>168</ele>
        <time>2019-05-16T09:04:16Z</time>
      </trkpt>
      <trkpt lat="48.68872" lon="2.05301">
        <ele>168</ele>
        <time>2019-05-16T09:04:20Z</time>
      </trkpt>
      <trkpt lat="48.68875" lon="2.05308">
        <ele>168</ele>
        <time>2019-05-16T09:04:24Z</time>
      </trkpt>
      <trkpt lat="48.6888" lon="2.05312">
        <ele>169</ele>
        <time>2019-05-16T09:04:28Z</time>
      </trkpt>
      <trkpt lat="48.68884" lon="2.05317">
        <ele>169</ele>
        <time>2019-05-16T09:04:32Z</time>
      </trkpt>
      <trkpt lat="48.68889" lon="2.05325">
        <ele>169</ele>
        <time>2019-05-16T09:04:36Z</time>
      </trkpt>
      <trkpt lat="48.68893" lon="2.0533">
        <ele>169</ele>
        <time>2019-05-16T09:04:40Z</time>
      </trkpt>
      <trkpt lat="48.689" lon="2.05336">
        <ele>170</ele>
        <time>2019-05-16T09:04:44Z</time>
      </trkpt>
      <trkpt lat="48.68904" lon="2.05341">
        <ele>170</ele>
        <time>2019-05-16T09:04:48Z</time>
      </trkpt>
      <trkpt lat="48.68908" lon="2.05346">
        <ele>170</ele>
        <time>2019-05-16T09:04:54Z</time>
      </trkpt>
      <trkpt lat="48.68913" lon="2.05351">
        <ele>170</ele>
        <time>2019-05-16T09:05:00Z</time>
      </trkpt>
      <trkpt lat="48.6892" lon="2.05353">
        <ele>170</ele>
        <time>2019-05-16T09:05:04Z</time>
      </trkpt>
      <trkpt lat="48.68927" lon="2.05351">
        <ele>170</ele>
        <time>2019-05-16T09:05:08Z</time>
      </trkpt>
      <trkpt lat="48.68932" lon="2.0535">
        <ele>170</ele>
        <time>2019-05-16T09:05:12Z</time>
      </trkpt>
      <trkpt lat="48.68941" lon="2.05346">
        <ele>170</ele>
        <time>2019-05-16T09:05:16Z</time>
      </trkpt>
      <trkpt lat="48.68946" lon="2.05343">
        <ele>170</ele>
        <time>2019-05-16T09:05:18Z</time>
      </trkpt>
      <trkpt lat="48.68953" lon="2.05343">
        <ele>170</ele>
        <time>2019-05-16T09:05:20Z</time>
      </trkpt>
      <trkpt lat="48.68959" lon="2.05342">
        <ele>170</ele>
        <time>2019-05-16T09:05:22Z</time>
      </trkpt>
      <trkpt lat="48.68964" lon="2.05342">
        <ele>170</ele>
        <time>2019-05-16T09:05:24Z</time>
      </trkpt>
      <trkpt lat="48.6897" lon="2.05344">
        <ele>170</ele>
        <time>2019-05-16T09:05:28Z</time>
      </trkpt>
      <trkpt lat="48.68976" lon="2.05349">
        <ele>170</ele>
        <time>2019-05-16T09:05:32Z</time>
      </trkpt>
      <trkpt lat="48.68982" lon="2.05355">
        <ele>170</ele>
        <time>2019-05-16T09:05:38Z</time>
      </trkpt>
      <trkpt lat="48.68986" lon="2.05359">
        <ele>170</ele>
        <time>2019-05-16T09:05:42Z</time>
      </trkpt>
      <trkpt lat="48.6899" lon="2.05364">
        <ele>170</ele>
        <time>2019-05-16T09:05:46Z</time>
      </trkpt>
      <trkpt lat="48.68996" lon="2.05364">
        <ele>170</ele>
        <time>2019-05-16T09:05:50Z</time>
      </trkpt>
      <trkpt lat="48.69001" lon="2.05367">
        <ele>170</ele>
        <time>2019-05-16T09:05:54Z</time>
      </trkpt>
      <trkpt lat="48.69008" lon="2.05369">
        <ele>170</ele>
        <time>2019-05-16T09:05:58Z</time>
      </trkpt>
      <trkpt lat="48.69015" lon="2.05372">
        <ele>170</ele>
        <time>2019-05-16T09:06:04Z</time>
      </trkpt>
      <trkpt lat="48.69021" lon="2.05374">
        <ele>170</ele>
        <time>2019-05-16T09:06:08Z</time>
      </trkpt>
      <trkpt lat="48.69026" lon="2.05378">
        <ele>170</ele>
        <time>2019-05-16T09:06:12Z</time>
      </trkpt>
      <trkpt lat="48.69031" lon="2.05379">
        <ele>170</ele>
        <time>2019-05-16T09:06:14Z</time>
      </trkpt>
      <trkpt lat="48.69036" lon="2.0538">
        <ele>170</ele>
        <time>2019-05-16T09:06:16Z</time>
      </trkpt>
      <trkpt lat="48.69042" lon="2.05381">
        <ele>171</ele>
        <time>2019-05-16T09:06:20Z</time>
      </trkpt>
      <trkpt lat="48.69048" lon="2.0538">
        <ele>171</ele>
        <time>2019-05-16T09:06:24Z</time>
      </trkpt>
      <trkpt lat="48.69055" lon="2.05382">
        <ele>171</ele>
        <time>2019-05-16T09:06:28Z</time>
      </trkpt>
      <trkpt lat="48.69059" lon="2.05383">
        <ele>171</ele>
        <time>2019-05-16T09:06:32Z</time>
      </trkpt>
      <trkpt lat="48.69064" lon="2.05385">
        <ele>171</ele>
        <time>2019-05-16T09:06:36Z</time>
      </trkpt>
      <trkpt lat="48.69069" lon="2.05386">
        <ele>171</ele>
        <time>2019-05-16T09:06:38Z</time>
      </trkpt>
      <trkpt lat="48.69075" lon="2.0539">
        <ele>171</ele>
        <time>2019-05-16T09:06:42Z</time>
      </trkpt>
      <trkpt lat="48.6908" lon="2.0539">
        <ele>171</ele>
        <time>2019-05-16T09:06:46Z</time>
      </trkpt>
      <trkpt lat="48.69086" lon="2.05392">
        <ele>170</ele>
        <time>2019-05-16T09:06:50Z</time>
      </trkpt>
      <trkpt lat="48.69093" lon="2.05391">
        <ele>170</ele>
        <time>2019-05-16T09:06:54Z</time>
      </trkpt>
      <trkpt lat="48.691" lon="2.05389">
        <ele>170</ele>
        <time>2019-05-16T09:06:58Z</time>
      </trkpt>
      <trkpt lat="48.69105" lon="2.05389">
        <ele>170</ele>
        <time>2019-05-16T09:07:02Z</time>
      </trkpt>
      <trkpt lat="48.69111" lon="2.05392">
        <ele>170</ele>
        <time>2019-05-16T09:07:06Z</time>
      </trkpt>
      <trkpt lat="48.69118" lon="2.05394">
        <ele>170</ele>
        <time>2019-05-16T09:07:12Z</time>
      </trkpt>
      <trkpt lat="48.69125" lon="2.05396">
        <ele>170</ele>
        <time>2019-05-16T09:07:18Z</time>
      </trkpt>
      <trkpt lat="48.69131" lon="2.05393">
        <ele>170</ele>
        <time>2019-05-16T09:07:22Z</time>
      </trkpt>
      <trkpt lat="48.69137" lon="2.05392">
        <ele>170</ele>
        <time>2019-05-16T09:07:26Z</time>
      </trkpt>
      <trkpt lat="48.69144" lon="2.05391">
        <ele>170</ele>
        <time>2019-05-16T09:07:30Z</time>
      </trkpt>
      <trkpt lat="48.69152" lon="2.05394">
        <ele>170</ele>
        <time>2019-05-16T09:07:34Z</time>
      </trkpt>
      <trkpt lat="48.69157" lon="2.05395">
        <ele>170</ele>
        <time>2019-05-16T09:07:38Z</time>
      </trkpt>
      <trkpt lat="48.69162" lon="2.05397">
        <ele>170</ele>
        <time>2019-05-16T09:07:42Z</time>
      </trkpt>
      <trkpt lat="48.69169" lon="2.05399">
        <ele>169</ele>
        <time>2019-05-16T09:07:46Z</time>
      </trkpt>
      <trkpt lat="48.69175" lon="2.05403">
        <ele>169</ele>
        <time>2019-05-16T09:07:50Z</time>
      </trkpt>
      <trkpt lat="48.69182" lon="2.05405">
        <ele>169</ele>
        <time>2019-05-16T09:07:56Z</time>
      </trkpt>
      <trkpt lat="48.69187" lon="2.05407">
        <ele>169</ele>
        <time>2019-05-16T09:08:00Z</time>
      </trkpt>
      <trkpt lat="48.69193" lon="2.05406">
        <ele>168</ele>
        <time>2019-05-16T09:08:04Z</time>
      </trkpt>
      <trkpt lat="48.69198" lon="2.05407">
        <ele>168</ele>
        <time>2019-05-16T09:08:08Z</time>
      </trkpt>
      <trkpt lat="48.69203" lon="2.05407">
        <ele>168</ele>
        <time>2019-05-16T09:08:12Z</time>
      </trkpt>
      <trkpt lat="48.69211" lon="2.0541">
        <ele>168</ele>
        <time>2019-05-16T09:08:16Z</time>
      </trkpt>
      <trkpt lat="48.69217" lon="2.05413">
        <ele>168</ele>
        <time>2019-05-16T09:08:20Z</time>
      </trkpt>
      <trkpt lat="48.69224" lon="2.05415">
        <ele>168</ele>
        <time>2019-05-16T09:08:24Z</time>
      </trkpt>
      <trkpt lat="48.69229" lon="2.0542">
        <ele>169</ele>
        <time>2019-05-16T09:08:28Z</time>
      </trkpt>
      <trkpt lat="48.69235" lon="2.05426">
        <ele>169</ele>
        <time>2019-05-16T09:08:32Z</time>
      </trkpt>
      <trkpt lat="48.69241" lon="2.05428">
        <ele>169</ele>
        <time>2019-05-16T09:08:38Z</time>
      </trkpt>
      <trkpt lat="48.69247" lon="2.05429">
        <ele>169</ele>
        <time>2019-05-16T09:08:44Z</time>
      </trkpt>
      <trkpt lat="48.69254" lon="2.0543">
        <ele>168</ele>
        <time>2019-05-16T09:08:48Z</time>
      </trkpt>
      <trkpt lat="48.6926" lon="2.05432">
        <ele>169</ele>
        <time>2019-05-16T09:08:52Z</time>
      </trkpt>
      <trkpt lat="48.69265" lon="2.05435">
        <ele>169</ele>
        <time>2019-05-16T09:08:56Z</time>
      </trkpt>
      <trkpt lat="48.69271" lon="2.05438">
        <ele>169</ele>
        <time>2019-05-16T09:09:00Z</time>
      </trkpt>
      <trkpt lat="48.69278" lon="2.0544">
        <ele>169</ele>
        <time>2019-05-16T09:09:04Z</time>
      </trkpt>
      <trkpt lat="48.69284" lon="2.0544">
        <ele>169</ele>
        <time>2019-05-16T09:09:08Z</time>
      </trkpt>
      <trkpt lat="48.69291" lon="2.0544">
        <ele>169</ele>
        <time>2019-05-16T09:09:12Z</time>
      </trkpt>
      <trkpt lat="48.69296" lon="2.05441">
        <ele>169</ele>
        <time>2019-05-16T09:09:14Z</time>
      </trkpt>
      <trkpt lat="48.69302" lon="2.05444">
        <ele>169</ele>
        <time>2019-05-16T09:09:18Z</time>
      </trkpt>
      <trkpt lat="48.6931" lon="2.05448">
        <ele>169</ele>
        <time>2019-05-16T09:09:22Z</time>
      </trkpt>
      <trkpt lat="48.69318" lon="2.05451">
        <ele>169</ele>
        <time>2019-05-16T09:09:26Z</time>
      </trkpt>
      <trkpt lat="48.69325" lon="2.05456">
        <ele>169</ele>
        <time>2019-05-16T09:09:30Z</time>
      </trkpt>
      <trkpt lat="48.69331" lon="2.0546">
        <ele>169</ele>
        <time>2019-05-16T09:09:32Z</time>
      </trkpt>
      <trkpt lat="48.69339" lon="2.05464">
        <ele>168</ele>
        <time>2019-05-16T09:09:36Z</time>
      </trkpt>
      <trkpt lat="48.69343" lon="2.05467">
        <ele>168</ele>
        <time>2019-05-16T09:09:38Z</time>
      </trkpt>
      <trkpt lat="48.69347" lon="2.05471">
        <ele>168</ele>
        <time>2019-05-16T09:09:40Z</time>
      </trkpt>
      <trkpt lat="48.69352" lon="2.05475">
        <ele>168</ele>
        <time>2019-05-16T09:09:42Z</time>
      </trkpt>
      <trkpt lat="48.69357" lon="2.05478">
        <ele>168</ele>
        <time>2019-05-16T09:09:44Z</time>
      </trkpt>
      <trkpt lat="48.69362" lon="2.05481">
        <ele>167</ele>
        <time>2019-05-16T09:09:46Z</time>
      </trkpt>
      <trkpt lat="48.69366" lon="2.05485">
        <ele>167</ele>
        <time>2019-05-16T09:09:50Z</time>
      </trkpt>
      <trkpt lat="48.69373" lon="2.05488">
        <ele>167</ele>
        <time>2019-05-16T09:09:56Z</time>
      </trkpt>
      <trkpt lat="48.69378" lon="2.05489">
        <ele>167</ele>
        <time>2019-05-16T09:10:02Z</time>
      </trkpt>
      <trkpt lat="48.69383" lon="2.05487">
        <ele>167</ele>
        <time>2019-05-16T09:10:08Z</time>
      </trkpt>
      <trkpt lat="48.69389" lon="2.05485">
        <ele>167</ele>
        <time>2019-05-16T09:10:14Z</time>
      </trkpt>
      <trkpt lat="48.69396" lon="2.05482">
        <ele>167</ele>
        <time>2019-05-16T09:10:20Z</time>
      </trkpt>
      <trkpt lat="48.69403" lon="2.05478">
        <ele>167</ele>
        <time>2019-05-16T09:10:24Z</time>
      </trkpt>
      <trkpt lat="48.69408" lon="2.05476">
        <ele>166</ele>
        <time>2019-05-16T09:10:28Z</time>
      </trkpt>
      <trkpt lat="48.69414" lon="2.05473">
        <ele>166</ele>
        <time>2019-05-16T09:10:30Z</time>
      </trkpt>
      <trkpt lat="48.6942" lon="2.05469">
        <ele>165</ele>
        <time>2019-05-16T09:10:34Z</time>
      </trkpt>
      <trkpt lat="48.69425" lon="2.05467">
        <ele>165</ele>
        <time>2019-05-16T09:10:38Z</time>
      </trkpt>
      <trkpt lat="48.69429" lon="2.05462">
        <ele>165</ele>
        <time>2019-05-16T09:10:46Z</time>
      </trkpt>
      <trkpt lat="48.69434" lon="2.0546">
        <ele>165</ele>
        <time>2019-05-16T09:10:58Z</time>
      </trkpt>
      <trkpt lat="48.69439" lon="2.05459">
        <ele>165</ele>
        <time>2019-05-16T09:11:16Z</time>
      </trkpt>
      <trkpt lat="48.69444" lon="2.05462">
        <ele>165</ele>
        <time>2019-05-16T09:11:26Z</time>
      </trkpt>
      <trkpt lat="48.69449" lon="2.05463">
        <ele>165</ele>
        <time>2019-05-16T09:11:46Z</time>
      </trkpt>
      <trkpt lat="48.69455" lon="2.05461">
        <ele>165</ele>
        <time>2019-05-16T09:11:54Z</time>
      </trkpt>
      <trkpt lat="48.6946" lon="2.0546">
        <ele>165</ele>
        <time>2019-05-16T09:12:08Z</time>
      </trkpt>
      <trkpt lat="48.69466" lon="2.05459">
        <ele>165</ele>
        <time>2019-05-16T09:12:16Z</time>
      </trkpt>
      <trkpt lat="48.69473" lon="2.05457">
        <ele>165</ele>
        <time>2019-05-16T09:12:22Z</time>
      </trkpt>
      <trkpt lat="48.6948" lon="2.05458">
        <ele>165</ele>
        <time>2019-05-16T09:12:26Z</time>
      </trkpt>
      <trkpt lat="48.69486" lon="2.0546">
        <ele>165</ele>
        <time>2019-05-16T09:12:30Z</time>
      </trkpt>
      <trkpt lat="48.69493" lon="2.05462">
        <ele>165</ele>
        <time>2019-05-16T09:12:34Z</time>
      </trkpt>
      <trkpt lat="48.69497" lon="2.05466">
        <ele>165</ele>
        <time>2019-05-16T09:12:38Z</time>
      </trkpt>
      <trkpt lat="48.69503" lon="2.05468">
        <ele>165</ele>
        <time>2019-05-16T09:12:44Z</time>
      </trkpt>
      <trkpt lat="48.69509" lon="2.0547">
        <ele>165</ele>
        <time>2019-05-16T09:12:48Z</time>
      </trkpt>
      <trkpt lat="48.69516" lon="2.05472">
        <ele>165</ele>
        <time>2019-05-16T09:12:52Z</time>
      </trkpt>
      <trkpt lat="48.69522" lon="2.05473">
        <ele>165</ele>
        <time>2019-05-16T09:12:56Z</time>
      </trkpt>
      <trkpt lat="48.69527" lon="2.05475">
        <ele>165</ele>
        <time>2019-05-16T09:13:02Z</time>
      </trkpt>
      <trkpt lat="48.69533" lon="2.05479">
        <ele>165</ele>
        <time>2019-05-16T09:13:08Z</time>
      </trkpt>
      <trkpt lat="48.69537" lon="2.05485">
        <ele>165</ele>
        <time>2019-05-16T09:13:12Z</time>
      </trkpt>
      <trkpt lat="48.69542" lon="2.05489">
        <ele>166</ele>
        <time>2019-05-16T09:13:16Z</time>
      </trkpt>
      <trkpt lat="48.69546" lon="2.05493">
        <ele>166</ele>
        <time>2019-05-16T09:13:20Z</time>
      </trkpt>
      <trkpt lat="48.6955" lon="2.05498">
        <ele>166</ele>
        <time>2019-05-16T09:13:26Z</time>
      </trkpt>
      <trkpt lat="48.69554" lon="2.05505">
        <ele>163</ele>
        <time>2019-05-16T09:13:32Z</time>
      </trkpt>
      <trkpt lat="48.69556" lon="2.05515">
        <ele>163</ele>
        <time>2019-05-16T09:13:38Z</time>
      </trkpt>
      <trkpt lat="48.69556" lon="2.05522">
        <ele>163</ele>
        <time>2019-05-16T09:13:42Z</time>
      </trkpt>
      <trkpt lat="48.69557" lon="2.05531">
        <ele>162</ele>
        <time>2019-05-16T09:13:48Z</time>
      </trkpt>
      <trkpt lat="48.69556" lon="2.05537">
        <ele>162</ele>
        <time>2019-05-16T09:13:54Z</time>
      </trkpt>
      <trkpt lat="48.69554" lon="2.05545">
        <ele>162</ele>
        <time>2019-05-16T09:14:04Z</time>
      </trkpt>
      <trkpt lat="48.69549" lon="2.05549">
        <ele>162</ele>
        <time>2019-05-16T09:14:22Z</time>
      </trkpt>
      <trkpt lat="48.69543" lon="2.05554">
        <ele>161</ele>
        <time>2019-05-16T09:14:46Z</time>
      </trkpt>
      <trkpt lat="48.69538" lon="2.05557">
        <ele>161</ele>
        <time>2019-05-16T09:14:52Z</time>
      </trkpt>
      <trkpt lat="48.69533" lon="2.05557">
        <ele>161</ele>
        <time>2019-05-16T09:14:56Z</time>
      </trkpt>
      <trkpt lat="48.69528" lon="2.05556">
        <ele>161</ele>
        <time>2019-05-16T09:15:00Z</time>
      </trkpt>
      <trkpt lat="48.69522" lon="2.05558">
        <ele>161</ele>
        <time>2019-05-16T09:15:06Z</time>
      </trkpt>
      <trkpt lat="48.69519" lon="2.05566">
        <ele>160</ele>
        <time>2019-05-16T09:15:14Z</time>
      </trkpt>
      <trkpt lat="48.69517" lon="2.05573">
        <ele>160</ele>
        <time>2019-05-16T09:15:18Z</time>
      </trkpt>
      <trkpt lat="48.69515" lon="2.05582">
        <ele>159</ele>
        <time>2019-05-16T09:15:22Z</time>
      </trkpt>
      <trkpt lat="48.69513" lon="2.05591">
        <ele>156</ele>
        <time>2019-05-16T09:15:28Z</time>
      </trkpt>
      <trkpt lat="48.69514" lon="2.05598">
        <ele>156</ele>
        <time>2019-05-16T09:15:32Z</time>
      </trkpt>
      <trkpt lat="48.69512" lon="2.05607">
        <ele>156</ele>
        <time>2019-05-16T09:15:36Z</time>
      </trkpt>
      <trkpt lat="48.69512" lon="2.05616">
        <ele>155</ele>
        <time>2019-05-16T09:15:40Z</time>
      </trkpt>
      <trkpt lat="48.69512" lon="2.05623">
        <ele>155</ele>
        <time>2019-05-16T09:15:44Z</time>
      </trkpt>
      <trkpt lat="48.69509" lon="2.05629">
        <ele>154</ele>
        <time>2019-05-16T09:15:48Z</time>
      </trkpt>
      <trkpt lat="48.69509" lon="2.05636">
        <ele>154</ele>
        <time>2019-05-16T09:15:52Z</time>
      </trkpt>
      <trkpt lat="48.69506" lon="2.05643">
        <ele>153</ele>
        <time>2019-05-16T09:16:02Z</time>
      </trkpt>
      <trkpt lat="48.69506" lon="2.05635">
        <ele>154</ele>
        <time>2019-05-16T09:16:28Z</time>
      </trkpt>
      <trkpt lat="48.69507" lon="2.05627">
        <ele>154</ele>
        <time>2019-05-16T09:16:34Z</time>
      </trkpt>
      <trkpt lat="48.69504" lon="2.0562">
        <ele>155</ele>
        <time>2019-05-16T09:16:38Z</time>
      </trkpt>
      <trkpt lat="48.69507" lon="2.0561">
        <ele>155</ele>
        <time>2019-05-16T09:16:44Z</time>
      </trkpt>
      <trkpt lat="48.6951" lon="2.05602">
        <ele>156</ele>
        <time>2019-05-16T09:16:50Z</time>
      </trkpt>
      <trkpt lat="48.6951" lon="2.05595">
        <ele>156</ele>
        <time>2019-05-16T09:16:54Z</time>
      </trkpt>
      <trkpt lat="48.69507" lon="2.05589">
        <ele>156</ele>
        <time>2019-05-16T09:17:02Z</time>
      </trkpt>
      <trkpt lat="48.69502" lon="2.05587">
        <ele>157</ele>
        <time>2019-05-16T09:17:10Z</time>
      </trkpt>
      <trkpt lat="48.69497" lon="2.05583">
        <ele>158</ele>
        <time>2019-05-16T09:17:18Z</time>
      </trkpt>
      <trkpt lat="48.69491" lon="2.05581">
        <ele>159</ele>
        <time>2019-05-16T09:17:24Z</time>
      </trkpt>
      <trkpt lat="48.69486" lon="2.05582">
        <ele>159</ele>
        <time>2019-05-16T09:17:28Z</time>
      </trkpt>
      <trkpt lat="48.69481" lon="2.05584">
        <ele>157</ele>
        <time>2019-05-16T09:17:32Z</time>
      </trkpt>
      <trkpt lat="48.69476" lon="2.05588">
        <ele>157</ele>
        <time>2019-05-16T09:17:38Z</time>
      </trkpt>
      <trkpt lat="48.69471" lon="2.05593">
        <ele>157</ele>
        <time>2019-05-16T09:17:44Z</time>
      </trkpt>
      <trkpt lat="48.69467" lon="2.05597">
        <ele>157</ele>
        <time>2019-05-16T09:17:48Z</time>
      </trkpt>
      <trkpt lat="48.69464" lon="2.05604">
        <ele>157</ele>
        <time>2019-05-16T09:17:54Z</time>
      </trkpt>
      <trkpt lat="48.69461" lon="2.0561">
        <ele>157</ele>
        <time>2019-05-16T09:17:58Z</time>
      </trkpt>
      <trkpt lat="48.69457" lon="2.05618">
        <ele>157</ele>
        <time>2019-05-16T09:18:04Z</time>
      </trkpt>
      <trkpt lat="48.69457" lon="2.05625">
        <ele>157</ele>
        <time>2019-05-16T09:18:10Z</time>
      </trkpt>
      <trkpt lat="48.69456" lon="2.05632">
        <ele>156</ele>
        <time>2019-05-16T09:18:14Z</time>
      </trkpt>
      <trkpt lat="48.69452" lon="2.05639">
        <ele>156</ele>
        <time>2019-05-16T09:18:18Z</time>
      </trkpt>
      <trkpt lat="48.69451" lon="2.05649">
        <ele>156</ele>
        <time>2019-05-16T09:18:24Z</time>
      </trkpt>
      <trkpt lat="48.69452" lon="2.05656">
        <ele>156</ele>
        <time>2019-05-16T09:18:32Z</time>
      </trkpt>
      <trkpt lat="48.69455" lon="2.05661">
        <ele>155</ele>
        <time>2019-05-16T09:18:38Z</time>
      </trkpt>
      <trkpt lat="48.69457" lon="2.05668">
        <ele>149</ele>
        <time>2019-05-16T09:18:44Z</time>
      </trkpt>
      <trkpt lat="48.6946" lon="2.05674">
        <ele>149</ele>
        <time>2019-05-16T09:18:50Z</time>
      </trkpt>
      <trkpt lat="48.69463" lon="2.05681">
        <ele>148</ele>
        <time>2019-05-16T09:18:56Z</time>
      </trkpt>
      <trkpt lat="48.69468" lon="2.05688">
        <ele>148</ele>
        <time>2019-05-16T09:19:00Z</time>
      </trkpt>
      <trkpt lat="48.69472" lon="2.05693">
        <ele>147</ele>
        <time>2019-05-16T09:19:04Z</time>
      </trkpt>
      <trkpt lat="48.69475" lon="2.05701">
        <ele>147</ele>
        <time>2019-05-16T09:19:10Z</time>
      </trkpt>
      <trkpt lat="48.69477" lon="2.05708">
        <ele>146</ele>
        <time>2019-05-16T09:19:16Z</time>
      </trkpt>
      <trkpt lat="48.6948" lon="2.05713">
        <ele>145</ele>
        <time>2019-05-16T09:19:22Z</time>
      </trkpt>
      <trkpt lat="48.69484" lon="2.0572">
        <ele>144</ele>
        <time>2019-05-16T09:19:28Z</time>
      </trkpt>
      <trkpt lat="48.69488" lon="2.05727">
        <ele>143</ele>
        <time>2019-05-16T09:19:32Z</time>
      </trkpt>
      <trkpt lat="48.69493" lon="2.05735">
        <ele>141</ele>
        <time>2019-05-16T09:19:36Z</time>
      </trkpt>
      <trkpt lat="48.69495" lon="2.05746">
        <ele>138</ele>
        <time>2019-05-16T09:19:40Z</time>
      </trkpt>
      <trkpt lat="48.69497" lon="2.05754">
        <ele>135</ele>
        <time>2019-05-16T09:19:44Z</time>
      </trkpt>
      <trkpt lat="48.69497" lon="2.05763">
        <ele>135</ele>
        <time>2019-05-16T09:19:50Z</time>
      </trkpt>
      <trkpt lat="48.69498" lon="2.0577">
        <ele>134</ele>
        <time>2019-05-16T09:19:56Z</time>
      </trkpt>
      <trkpt lat="48.695" lon="2.05777">
        <ele>133</ele>
        <time>2019-05-16T09:20:00Z</time>
      </trkpt>
      <trkpt lat="48.69499" lon="2.05784">
        <ele>132</ele>
        <time>2019-05-16T09:20:04Z</time>
      </trkpt>
      <trkpt lat="48.69497" lon="2.05792">
        <ele>131</ele>
        <time>2019-05-16T09:20:08Z</time>
      </trkpt>
      <trkpt lat="48.695" lon="2.05803">
        <ele>127</ele>
        <time>2019-05-16T09:20:12Z</time>
      </trkpt>
      <trkpt lat="48.695" lon="2.05812">
        <ele>128</ele>
        <time>2019-05-16T09:20:16Z</time>
      </trkpt>
      <trkpt lat="48.69499" lon="2.05819">
        <ele>126</ele>
        <time>2019-05-16T09:20:20Z</time>
      </trkpt>
      <trkpt lat="48.695" lon="2.05828">
        <ele>122</ele>
        <time>2019-05-16T09:20:24Z</time>
      </trkpt>
      <trkpt lat="48.69501" lon="2.05838">
        <ele>120</ele>
        <time>2019-05-16T09:20:28Z</time>
      </trkpt>
      <trkpt lat="48.695" lon="2.05846">
        <ele>121</ele>
        <time>2019-05-16T09:20:32Z</time>
      </trkpt>
      <trkpt lat="48.69505" lon="2.05855">
        <ele>118</ele>
        <time>2019-05-16T09:20:36Z</time>
      </trkpt>
      <trkpt lat="48.69504" lon="2.05865">
        <ele>117</ele>
        <time>2019-05-16T09:20:42Z</time>
      </trkpt>
      <trkpt lat="48.69506" lon="2.05873">
        <ele>116</ele>
        <time>2019-05-16T09:20:46Z</time>
      </trkpt>
      <trkpt lat="48.69507" lon="2.05881">
        <ele>116</ele>
        <time>2019-05-16T09:20:52Z</time>
      </trkpt>
      <trkpt lat="48.69509" lon="2.05888">
        <ele>115</ele>
        <time>2019-05-16T09:21:06Z</time>
      </trkpt>
      <trkpt lat="48.69509" lon="2.05896">
        <ele>115</ele>
        <time>2019-05-16T09:21:14Z</time>
      </trkpt>
      <trkpt lat="48.69507" lon="2.05903">
        <ele>114</ele>
        <time>2019-05-16T09:21:32Z</time>
      </trkpt>
      <trkpt lat="48.69503" lon="2.05907">
        <ele>113</ele>
        <time>2019-05-16T09:21:52Z</time>
      </trkpt>
      <trkpt lat="48.69509" lon="2.05906">
        <ele>114</ele>
        <time>2019-05-16T09:24:22Z</time>
      </trkpt>
      <trkpt lat="48.69515" lon="2.05905">
        <ele>114</ele>
        <time>2019-05-16T09:24:28Z</time>
      </trkpt>
      <trkpt lat="48.6952" lon="2.05904">
        <ele>115</ele>
        <time>2019-05-16T09:24:32Z</time>
      </trkpt>
      <trkpt lat="48.69526" lon="2.05904">
        <ele>115</ele>
        <time>2019-05-16T09:24:36Z</time>
      </trkpt>
      <trkpt lat="48.69531" lon="2.05904">
        <ele>115</ele>
        <time>2019-05-16T09:24:40Z</time>
      </trkpt>
      <trkpt lat="48.69537" lon="2.05903">
        <ele>115</ele>
        <time>2019-05-16T09:24:44Z</time>
      </trkpt>
      <trkpt lat="48.69543" lon="2.05903">
        <ele>115</ele>
        <time>2019-05-16T09:24:48Z</time>
      </trkpt>
      <trkpt lat="48.69551" lon="2.05903">
        <ele>115</ele>
        <time>2019-05-16T09:24:52Z</time>
      </trkpt>
      <trkpt lat="48.69559" lon="2.05901">
        <ele>115</ele>
        <time>2019-05-16T09:24:56Z</time>
      </trkpt>
      <trkpt lat="48.69563" lon="2.05901">
        <ele>115</ele>
        <time>2019-05-16T09:25:00Z</time>
      </trkpt>
      <trkpt lat="48.6957" lon="2.05901">
        <ele>114</ele>
        <time>2019-05-16T09:25:04Z</time>
      </trkpt>
      <trkpt lat="48.69576" lon="2.05902">
        <ele>114</ele>
        <time>2019-05-16T09:25:08Z</time>
      </trkpt>
      <trkpt lat="48.69584" lon="2.05903">
        <ele>115</ele>
        <time>2019-05-16T09:25:12Z</time>
      </trkpt>
      <trkpt lat="48.69589" lon="2.05906">
        <ele>114</ele>
        <time>2019-05-16T09:25:16Z</time>
      </trkpt>
      <trkpt lat="48.69598" lon="2.05908">
        <ele>115</ele>
        <time>2019-05-16T09:25:20Z</time>
      </trkpt>
      <trkpt lat="48.69605" lon="2.05909">
        <ele>116</ele>
        <time>2019-05-16T09:25:24Z</time>
      </trkpt>
      <trkpt lat="48.6961" lon="2.0591">
        <ele>116</ele>
        <time>2019-05-16T09:25:26Z</time>
      </trkpt>
      <trkpt lat="48.69615" lon="2.05911">
        <ele>116</ele>
        <time>2019-05-16T09:25:30Z</time>
      </trkpt>
      <trkpt lat="48.69623" lon="2.05913">
        <ele>117</ele>
        <time>2019-05-16T09:25:34Z</time>
      </trkpt>
      <trkpt lat="48.69631" lon="2.05917">
        <ele>117</ele>
        <time>2019-05-16T09:25:38Z</time>
      </trkpt>
      <trkpt lat="48.69636" lon="2.05921">
        <ele>111</ele>
        <time>2019-05-16T09:25:42Z</time>
      </trkpt>
      <trkpt lat="48.69641" lon="2.05922">
        <ele>112</ele>
        <time>2019-05-16T09:25:46Z</time>
      </trkpt>
      <trkpt lat="48.69647" lon="2.05924">
        <ele>112</ele>
        <time>2019-05-16T09:25:50Z</time>
      </trkpt>
      <trkpt lat="48.69653" lon="2.05925">
        <ele>113</ele>
        <time>2019-05-16T09:25:54Z</time>
      </trkpt>
      <trkpt lat="48.69659" lon="2.05927">
        <ele>113</ele>
        <time>2019-05-16T09:25:58Z</time>
      </trkpt>
      <trkpt lat="48.69665" lon="2.05929">
        <ele>113</ele>
        <time>2019-05-16T09:26:04Z</time>
      </trkpt>
      <trkpt lat="48.69671" lon="2.0593">
        <ele>114</ele>
        <time>2019-05-16T09:26:06Z</time>
      </trkpt>
      <trkpt lat="48.69677" lon="2.05932">
        <ele>113</ele>
        <time>2019-05-16T09:26:10Z</time>
      </trkpt>
      <trkpt lat="48.69684" lon="2.05934">
        <ele>112</ele>
        <time>2019-05-16T09:26:14Z</time>
      </trkpt>
      <trkpt lat="48.6969" lon="2.05935">
        <ele>112</ele>
        <time>2019-05-16T09:26:18Z</time>
      </trkpt>
      <trkpt lat="48.69698" lon="2.05938">
        <ele>112</ele>
        <time>2019-05-16T09:26:22Z</time>
      </trkpt>
      <trkpt lat="48.69703" lon="2.05939">
        <ele>112</ele>
        <time>2019-05-16T09:26:24Z</time>
      </trkpt>
      <trkpt lat="48.6971" lon="2.0594">
        <ele>112</ele>
        <time>2019-05-16T09:26:28Z</time>
      </trkpt>
      <trkpt lat="48.69717" lon="2.05942">
        <ele>112</ele>
        <time>2019-05-16T09:26:32Z</time>
      </trkpt>
      <trkpt lat="48.69724" lon="2.05944">
        <ele>112</ele>
        <time>2019-05-16T09:26:36Z</time>
      </trkpt>
      <trkpt lat="48.6973" lon="2.05946">
        <ele>112</ele>
        <time>2019-05-16T09:26:40Z</time>
      </trkpt>
      <trkpt lat="48.69735" lon="2.05949">
        <ele>111</ele>
        <time>2019-05-16T09:26:42Z</time>
      </trkpt>
      <trkpt lat="48.69739" lon="2.05951">
        <ele>111</ele>
        <time>2019-05-16T09:26:44Z</time>
      </trkpt>
      <trkpt lat="48.69745" lon="2.05955">
        <ele>111</ele>
        <time>2019-05-16T09:26:48Z</time>
      </trkpt>
      <trkpt lat="48.69749" lon="2.05957">
        <ele>111</ele>
        <time>2019-05-16T09:26:52Z</time>
      </trkpt>
      <trkpt lat="48.69754" lon="2.05961">
        <ele>109</ele>
        <time>2019-05-16T09:26:58Z</time>
      </trkpt>
      <trkpt lat="48.6976" lon="2.05963">
        <ele>109</ele>
        <time>2019-05-16T09:27:02Z</time>
      </trkpt>
      <trkpt lat="48.69765" lon="2.05965">
        <ele>109</ele>
        <time>2019-05-16T09:27:04Z</time>
      </trkpt>
      <trkpt lat="48.69773" lon="2.05969">
        <ele>108</ele>
        <time>2019-05-16T09:27:08Z</time>
      </trkpt>
      <trkpt lat="48.69778" lon="2.05974">
        <ele>108</ele>
        <time>2019-05-16T09:27:12Z</time>
      </trkpt>
      <trkpt lat="48.69785" lon="2.05976">
        <ele>108</ele>
        <time>2019-05-16T09:27:16Z</time>
      </trkpt>
      <trkpt lat="48.69791" lon="2.0598">
        <ele>107</ele>
        <time>2019-05-16T09:27:20Z</time>
      </trkpt>
      <trkpt lat="48.69796" lon="2.05983">
        <ele>107</ele>
        <time>2019-05-16T09:27:24Z</time>
      </trkpt>
      <trkpt lat="48.69803" lon="2.05985">
        <ele>107</ele>
        <time>2019-05-16T09:27:28Z</time>
      </trkpt>
      <trkpt lat="48.69808" lon="2.05988">
        <ele>107</ele>
        <time>2019-05-16T09:27:32Z</time>
      </trkpt>
      <trkpt lat="48.69812" lon="2.05989">
        <ele>106</ele>
        <time>2019-05-16T09:27:34Z</time>
      </trkpt>
      <trkpt lat="48.69818" lon="2.05992">
        <ele>106</ele>
        <time>2019-05-16T09:27:38Z</time>
      </trkpt>
      <trkpt lat="48.69824" lon="2.05996">
        <ele>105</ele>
        <time>2019-05-16T09:27:42Z</time>
      </trkpt>
      <trkpt lat="48.69829" lon="2.05999">
        <ele>105</ele>
        <time>2019-05-16T09:27:44Z</time>
      </trkpt>
      <trkpt lat="48.69836" lon="2.06002">
        <ele>104</ele>
        <time>2019-05-16T09:27:48Z</time>
      </trkpt>
      <trkpt lat="48.69842" lon="2.06008">
        <ele>103</ele>
        <time>2019-05-16T09:27:52Z</time>
      </trkpt>
      <trkpt lat="48.69848" lon="2.06012">
        <ele>102</ele>
        <time>2019-05-16T09:27:56Z</time>
      </trkpt>
      <trkpt lat="48.69852" lon="2.06016">
        <ele>102</ele>
        <time>2019-05-16T09:28:00Z</time>
      </trkpt>
      <trkpt lat="48.69859" lon="2.0602">
        <ele>101</ele>
        <time>2019-05-16T09:28:04Z</time>
      </trkpt>
      <trkpt lat="48.69866" lon="2.06024">
        <ele>101</ele>
        <time>2019-05-16T09:28:08Z</time>
      </trkpt>
      <trkpt lat="48.69869" lon="2.0603">
        <ele>101</ele>
        <time>2019-05-16T09:28:12Z</time>
      </trkpt>
      <trkpt lat="48.69877" lon="2.06038">
        <ele>100</ele>
        <time>2019-05-16T09:28:16Z</time>
      </trkpt>
      <trkpt lat="48.69883" lon="2.06042">
        <ele>100</ele>
        <time>2019-05-16T09:28:20Z</time>
      </trkpt>
      <trkpt lat="48.69889" lon="2.06047">
        <ele>100</ele>
        <time>2019-05-16T09:28:24Z</time>
      </trkpt>
      <trkpt lat="48.69894" lon="2.06051">
        <ele>100</ele>
        <time>2019-05-16T09:28:28Z</time>
      </trkpt>
      <trkpt lat="48.69898" lon="2.06053">
        <ele>100</ele>
        <time>2019-05-16T09:28:34Z</time>
      </trkpt>
      <trkpt lat="48.69903" lon="2.06058">
        <ele>100</ele>
        <time>2019-05-16T09:28:38Z</time>
      </trkpt>
      <trkpt lat="48.69909" lon="2.06063">
        <ele>100</ele>
        <time>2019-05-16T09:28:42Z</time>
      </trkpt>
      <trkpt lat="48.69916" lon="2.06069">
        <ele>100</ele>
        <time>2019-05-16T09:28:46Z</time>
      </trkpt>
      <trkpt lat="48.69921" lon="2.06072">
        <ele>98</ele>
        <time>2019-05-16T09:28:50Z</time>
      </trkpt>
      <trkpt lat="48.69926" lon="2.06078">
        <ele>98</ele>
        <time>2019-05-16T09:28:54Z</time>
      </trkpt>
      <trkpt lat="48.6993" lon="2.06084">
        <ele>97</ele>
        <time>2019-05-16T09:28:58Z</time>
      </trkpt>
      <trkpt lat="48.69935" lon="2.06088">
        <ele>97</ele>
        <time>2019-05-16T09:29:02Z</time>
      </trkpt>
      <trkpt lat="48.69941" lon="2.06094">
        <ele>96</ele>
        <time>2019-05-16T09:29:06Z</time>
      </trkpt>
      <trkpt lat="48.69945" lon="2.06099">
        <ele>96</ele>
        <time>2019-05-16T09:29:10Z</time>
      </trkpt>
      <trkpt lat="48.69949" lon="2.06103">
        <ele>95</ele>
        <time>2019-05-16T09:29:12Z</time>
      </trkpt>
      <trkpt lat="48.69953" lon="2.0611">
        <ele>95</ele>
        <time>2019-05-16T09:29:16Z</time>
      </trkpt>
      <trkpt lat="48.69957" lon="2.06115">
        <ele>95</ele>
        <time>2019-05-16T09:29:20Z</time>
      </trkpt>
      <trkpt lat="48.69961" lon="2.06119">
        <ele>95</ele>
        <time>2019-05-16T09:29:24Z</time>
      </trkpt>
      <trkpt lat="48.69964" lon="2.06125">
        <ele>95</ele>
        <time>2019-05-16T09:29:28Z</time>
      </trkpt>
      <trkpt lat="48.6997" lon="2.0613">
        <ele>94</ele>
        <time>2019-05-16T09:29:32Z</time>
      </trkpt>
      <trkpt lat="48.69977" lon="2.06137">
        <ele>94</ele>
        <time>2019-05-16T09:29:36Z</time>
      </trkpt>
      <trkpt lat="48.69982" lon="2.06142">
        <ele>94</ele>
        <time>2019-05-16T09:29:40Z</time>
      </trkpt>
      <trkpt lat="48.69987" lon="2.06147">
        <ele>94</ele>
        <time>2019-05-16T09:29:46Z</time>
      </trkpt>
      <trkpt lat="48.69991" lon="2.0615">
        <ele>93</ele>
        <time>2019-05-16T09:29:50Z</time>
      </trkpt>
      <trkpt lat="48.69997" lon="2.06157">
        <ele>93</ele>
        <time>2019-05-16T09:29:54Z</time>
      </trkpt>
      <trkpt lat="48.70001" lon="2.06165">
        <ele>92</ele>
        <time>2019-05-16T09:29:58Z</time>
      </trkpt>
      <trkpt lat="48.70005" lon="2.06171">
        <ele>91</ele>
        <time>2019-05-16T09:30:02Z</time>
      </trkpt>
      <trkpt lat="48.70008" lon="2.06175">
        <ele>91</ele>
        <time>2019-05-16T09:30:04Z</time>
      </trkpt>
      <trkpt lat="48.70012" lon="2.06179">
        <ele>91</ele>
        <time>2019-05-16T09:30:08Z</time>
      </trkpt>
      <trkpt lat="48.70017" lon="2.06185">
        <ele>90</ele>
        <time>2019-05-16T09:30:12Z</time>
      </trkpt>
      <trkpt lat="48.70023" lon="2.06191">
        <ele>90</ele>
        <time>2019-05-16T09:30:16Z</time>
      </trkpt>
      <trkpt lat="48.70029" lon="2.06197">
        <ele>90</ele>
        <time>2019-05-16T09:30:20Z</time>
      </trkpt>
      <trkpt lat="48.70032" lon="2.06205">
        <ele>89</ele>
        <time>2019-05-16T09:30:24Z</time>
      </trkpt>
      <trkpt lat="48.70038" lon="2.06213">
        <ele>89</ele>
        <time>2019-05-16T09:30:28Z</time>
      </trkpt>
      <trkpt lat="48.70042" lon="2.0622">
        <ele>89</ele>
        <time>2019-05-16T09:30:32Z</time>
      </trkpt>
      <trkpt lat="48.70048" lon="2.06227">
        <ele>89</ele>
        <time>2019-05-16T09:30:36Z</time>
      </trkpt>
      <trkpt lat="48.70053" lon="2.06235">
        <ele>89</ele>
        <time>2019-05-16T09:30:40Z</time>
      </trkpt>
      <trkpt lat="48.70057" lon="2.06243">
        <ele>89</ele>
        <time>2019-05-16T09:30:46Z</time>
      </trkpt>
      <trkpt lat="48.70062" lon="2.06251">
        <ele>88</ele>
        <time>2019-05-16T09:30:50Z</time>
      </trkpt>
      <trkpt lat="48.70066" lon="2.06258">
        <ele>88</ele>
        <time>2019-05-16T09:30:54Z</time>
      </trkpt>
      <trkpt lat="48.70071" lon="2.06269">
        <ele>88</ele>
        <time>2019-05-16T09:30:58Z</time>
      </trkpt>
      <trkpt lat="48.70076" lon="2.06277">
        <ele>88</ele>
        <time>2019-05-16T09:31:04Z</time>
      </trkpt>
      <trkpt lat="48.7008" lon="2.06282">
        <ele>88</ele>
        <time>2019-05-16T09:31:08Z</time>
      </trkpt>
      <trkpt lat="48.70084" lon="2.06288">
        <ele>87</ele>
        <time>2019-05-16T09:31:12Z</time>
      </trkpt>
      <trkpt lat="48.70089" lon="2.06294">
        <ele>87</ele>
        <time>2019-05-16T09:31:16Z</time>
      </trkpt>
      <trkpt lat="48.70094" lon="2.06301">
        <ele>87</ele>
        <time>2019-05-16T09:31:22Z</time>
      </trkpt>
      <trkpt lat="48.70096" lon="2.06309">
        <ele>87</ele>
        <time>2019-05-16T09:31:26Z</time>
      </trkpt>
      <trkpt lat="48.70099" lon="2.06315">
        <ele>87</ele>
        <time>2019-05-16T09:31:28Z</time>
      </trkpt>
      <trkpt lat="48.70101" lon="2.06322">
        <ele>87</ele>
        <time>2019-05-16T09:31:32Z</time>
      </trkpt>
      <trkpt lat="48.70104" lon="2.0633">
        <ele>87</ele>
        <time>2019-05-16T09:31:42Z</time>
      </trkpt>
      <trkpt lat="48.70106" lon="2.06337">
        <ele>86</ele>
        <time>2019-05-16T09:32:02Z</time>
      </trkpt>
      <trkpt lat="48.70106" lon="2.06344">
        <ele>86</ele>
        <time>2019-05-16T09:32:12Z</time>
      </trkpt>
      <trkpt lat="48.70111" lon="2.06343">
        <ele>86</ele>
        <time>2019-05-16T09:32:34Z</time>
      </trkpt>
      <trkpt lat="48.70116" lon="2.06344">
        <ele>86</ele>
        <time>2019-05-16T09:32:44Z</time>
      </trkpt>
      <trkpt lat="48.70121" lon="2.06346">
        <ele>86</ele>
        <time>2019-05-16T09:32:50Z</time>
      </trkpt>
      <trkpt lat="48.70128" lon="2.06348">
        <ele>86</ele>
        <time>2019-05-16T09:32:56Z</time>
      </trkpt>
      <trkpt lat="48.70134" lon="2.06353">
        <ele>86</ele>
        <time>2019-05-16T09:33:00Z</time>
      </trkpt>
      <trkpt lat="48.70139" lon="2.06358">
        <ele>86</ele>
        <time>2019-05-16T09:33:04Z</time>
      </trkpt>
      <trkpt lat="48.70144" lon="2.06365">
        <ele>86</ele>
        <time>2019-05-16T09:33:08Z</time>
      </trkpt>
      <trkpt lat="48.70148" lon="2.06372">
        <ele>86</ele>
        <time>2019-05-16T09:33:12Z</time>
      </trkpt>
      <trkpt lat="48.70152" lon="2.0638">
        <ele>86</ele>
        <time>2019-05-16T09:33:16Z</time>
      </trkpt>
      <trkpt lat="48.70156" lon="2.06385">
        <ele>86</ele>
        <time>2019-05-16T09:33:20Z</time>
      </trkpt>
      <trkpt lat="48.7016" lon="2.06391">
        <ele>86</ele>
        <time>2019-05-16T09:33:24Z</time>
      </trkpt>
      <trkpt lat="48.70164" lon="2.06397">
        <ele>86</ele>
        <time>2019-05-16T09:33:28Z</time>
      </trkpt>
      <trkpt lat="48.70168" lon="2.06402">
        <ele>84</ele>
        <time>2019-05-16T09:33:32Z</time>
      </trkpt>
      <trkpt lat="48.70171" lon="2.06409">
        <ele>85</ele>
        <time>2019-05-16T09:33:36Z</time>
      </trkpt>
      <trkpt lat="48.70174" lon="2.06414">
        <ele>85</ele>
        <time>2019-05-16T09:33:40Z</time>
      </trkpt>
      <trkpt lat="48.70176" lon="2.06423">
        <ele>84</ele>
        <time>2019-05-16T09:33:42Z</time>
      </trkpt>
      <trkpt lat="48.70179" lon="2.0643">
        <ele>84</ele>
        <time>2019-05-16T09:33:44Z</time>
      </trkpt>
      <trkpt lat="48.70182" lon="2.06437">
        <ele>83</ele>
        <time>2019-05-16T09:33:50Z</time>
      </trkpt>
      <trkpt lat="48.70185" lon="2.06443">
        <ele>83</ele>
        <time>2019-05-16T09:33:54Z</time>
      </trkpt>
      <trkpt lat="48.70187" lon="2.0645">
        <ele>83</ele>
        <time>2019-05-16T09:33:58Z</time>
      </trkpt>
      <trkpt lat="48.70191" lon="2.06457">
        <ele>82</ele>
        <time>2019-05-16T09:34:02Z</time>
      </trkpt>
      <trkpt lat="48.7019" lon="2.06466">
        <ele>82</ele>
        <time>2019-05-16T09:34:08Z</time>
      </trkpt>
      <trkpt lat="48.70196" lon="2.06472">
        <ele>82</ele>
        <time>2019-05-16T09:34:16Z</time>
      </trkpt>
      <trkpt lat="48.70199" lon="2.06479">
        <ele>82</ele>
        <time>2019-05-16T09:34:20Z</time>
      </trkpt>
      <trkpt lat="48.70201" lon="2.06485">
        <ele>82</ele>
        <time>2019-05-16T09:34:24Z</time>
      </trkpt>
      <trkpt lat="48.70204" lon="2.06491">
        <ele>82</ele>
        <time>2019-05-16T09:34:30Z</time>
      </trkpt>
      <trkpt lat="48.70208" lon="2.06497">
        <ele>81</ele>
        <time>2019-05-16T09:34:38Z</time>
      </trkpt>
      <trkpt lat="48.70213" lon="2.06499">
        <ele>81</ele>
        <time>2019-05-16T09:34:42Z</time>
      </trkpt>
      <trkpt lat="48.70218" lon="2.06498">
        <ele>81</ele>
        <time>2019-05-16T09:34:46Z</time>
      </trkpt>
      <trkpt lat="48.70221" lon="2.06491">
        <ele>80</ele>
        <time>2019-05-16T09:34:52Z</time>
      </trkpt>
      <trkpt lat="48.70222" lon="2.06481">
        <ele>81</ele>
        <time>2019-05-16T09:34:58Z</time>
      </trkpt>
      <trkpt lat="48.70223" lon="2.06471">
        <ele>81</ele>
        <time>2019-05-16T09:35:04Z</time>
      </trkpt>
      <trkpt lat="48.70224" lon="2.06463">
        <ele>81</ele>
        <time>2019-05-16T09:35:08Z</time>
      </trkpt>
      <trkpt lat="48.70225" lon="2.06456">
        <ele>81</ele>
        <time>2019-05-16T09:35:12Z</time>
      </trkpt>
      <trkpt lat="48.70226" lon="2.06448">
        <ele>81</ele>
        <time>2019-05-16T09:35:16Z</time>
      </trkpt>
      <trkpt lat="48.70227" lon="2.06439">
        <ele>81</ele>
        <time>2019-05-16T09:35:22Z</time>
      </trkpt>
      <trkpt lat="48.70228" lon="2.06432">
        <ele>80</ele>
        <time>2019-05-16T09:35:26Z</time>
      </trkpt>
      <trkpt lat="48.70229" lon="2.06423">
        <ele>80</ele>
        <time>2019-05-16T09:35:30Z</time>
      </trkpt>
      <trkpt lat="48.7023" lon="2.06414">
        <ele>80</ele>
        <time>2019-05-16T09:35:34Z</time>
      </trkpt>
      <trkpt lat="48.7023" lon="2.06405">
        <ele>81</ele>
        <time>2019-05-16T09:35:38Z</time>
      </trkpt>
      <trkpt lat="48.70228" lon="2.06395">
        <ele>81</ele>
        <time>2019-05-16T09:35:42Z</time>
      </trkpt>
      <trkpt lat="48.70228" lon="2.06387">
        <ele>81</ele>
        <time>2019-05-16T09:35:46Z</time>
      </trkpt>
      <trkpt lat="48.70225" lon="2.06376">
        <ele>81</ele>
        <time>2019-05-16T09:35:50Z</time>
      </trkpt>
      <trkpt lat="48.70222" lon="2.06367">
        <ele>81</ele>
        <time>2019-05-16T09:35:54Z</time>
      </trkpt>
      <trkpt lat="48.70223" lon="2.06357">
        <ele>81</ele>
        <time>2019-05-16T09:35:58Z</time>
      </trkpt>
      <trkpt lat="48.70223" lon="2.06349">
        <ele>81</ele>
        <time>2019-05-16T09:36:02Z</time>
      </trkpt>
      <trkpt lat="48.70224" lon="2.06341">
        <ele>81</ele>
        <time>2019-05-16T09:36:06Z</time>
      </trkpt>
      <trkpt lat="48.70225" lon="2.06334">
        <ele>81</ele>
        <time>2019-05-16T09:36:10Z</time>
      </trkpt>
      <trkpt lat="48.70225" lon="2.06323">
        <ele>81</ele>
        <time>2019-05-16T09:36:14Z</time>
      </trkpt>
      <trkpt lat="48.70226" lon="2.06314">
        <ele>82</ele>
        <time>2019-05-16T09:36:18Z</time>
      </trkpt>
      <trkpt lat="48.70227" lon="2.06305">
        <ele>82</ele>
        <time>2019-05-16T09:36:22Z</time>
      </trkpt>
      <trkpt lat="48.70228" lon="2.06295">
        <ele>82</ele>
        <time>2019-05-16T09:36:26Z</time>
      </trkpt>
      <trkpt lat="48.70227" lon="2.06283">
        <ele>82</ele>
        <time>2019-05-16T09:36:30Z</time>
      </trkpt>
      <trkpt lat="48.70226" lon="2.06276">
        <ele>82</ele>
        <time>2019-05-16T09:36:32Z</time>
      </trkpt>
      <trkpt lat="48.70229" lon="2.06268">
        <ele>82</ele>
        <time>2019-05-16T09:36:36Z</time>
      </trkpt>
      <trkpt lat="48.70232" lon="2.06258">
        <ele>82</ele>
        <time>2019-05-16T09:36:40Z</time>
      </trkpt>
      <trkpt lat="48.70236" lon="2.06249">
        <ele>82</ele>
        <time>2019-05-16T09:36:44Z</time>
      </trkpt>
      <trkpt lat="48.70239" lon="2.06241">
        <ele>82</ele>
        <time>2019-05-16T09:36:48Z</time>
      </trkpt>
      <trkpt lat="48.70241" lon="2.06233">
        <ele>83</ele>
        <time>2019-05-16T09:36:52Z</time>
      </trkpt>
      <trkpt lat="48.70243" lon="2.06225">
        <ele>83</ele>
        <time>2019-05-16T09:36:56Z</time>
      </trkpt>
      <trkpt lat="48.70246" lon="2.06216">
        <ele>83</ele>
        <time>2019-05-16T09:37:00Z</time>
      </trkpt>
      <trkpt lat="48.70248" lon="2.06206">
        <ele>83</ele>
        <time>2019-05-16T09:37:04Z</time>
      </trkpt>
      <trkpt lat="48.7025" lon="2.06197">
        <ele>83</ele>
        <time>2019-05-16T09:37:08Z</time>
      </trkpt>
      <trkpt lat="48.70251" lon="2.06188">
        <ele>79</ele>
        <time>2019-05-16T09:37:12Z</time>
      </trkpt>
      <trkpt lat="48.70252" lon="2.0618">
        <ele>80</ele>
        <time>2019-05-16T09:37:16Z</time>
      </trkpt>
      <trkpt lat="48.70252" lon="2.0617">
        <ele>81</ele>
        <time>2019-05-16T09:37:20Z</time>
      </trkpt>
      <trkpt lat="48.70253" lon="2.06161">
        <ele>80</ele>
        <time>2019-05-16T09:37:24Z</time>
      </trkpt>
      <trkpt lat="48.70253" lon="2.0615">
        <ele>80</ele>
        <time>2019-05-16T09:37:28Z</time>
      </trkpt>
      <trkpt lat="48.70253" lon="2.0614">
        <ele>79</ele>
        <time>2019-05-16T09:37:32Z</time>
      </trkpt>
      <trkpt lat="48.70253" lon="2.06131">
        <ele>79</ele>
        <time>2019-05-16T09:37:36Z</time>
      </trkpt>
      <trkpt lat="48.70253" lon="2.06122">
        <ele>79</ele>
        <time>2019-05-16T09:37:40Z</time>
      </trkpt>
      <trkpt lat="48.70254" lon="2.06112">
        <ele>79</ele>
        <time>2019-05-16T09:37:44Z</time>
      </trkpt>
      <trkpt lat="48.70255" lon="2.06102">
        <ele>80</ele>
        <time>2019-05-16T09:37:48Z</time>
      </trkpt>
      <trkpt lat="48.70257" lon="2.06094">
        <ele>80</ele>
        <time>2019-05-16T09:37:52Z</time>
      </trkpt>
      <trkpt lat="48.70258" lon="2.06083">
        <ele>81</ele>
        <time>2019-05-16T09:37:56Z</time>
      </trkpt>
      <trkpt lat="48.70258" lon="2.06074">
        <ele>81</ele>
        <time>2019-05-16T09:38:00Z</time>
      </trkpt>
      <trkpt lat="48.70258" lon="2.06065">
        <ele>81</ele>
        <time>2019-05-16T09:38:04Z</time>
      </trkpt>
      <trkpt lat="48.70259" lon="2.06057">
        <ele>81</ele>
        <time>2019-05-16T09:38:08Z</time>
      </trkpt>
      <trkpt lat="48.7026" lon="2.0605">
        <ele>82</ele>
        <time>2019-05-16T09:38:12Z</time>
      </trkpt>
      <trkpt lat="48.7026" lon="2.06041">
        <ele>82</ele>
        <time>2019-05-16T09:38:16Z</time>
      </trkpt>
      <trkpt lat="48.70261" lon="2.06032">
        <ele>83</ele>
        <time>2019-05-16T09:38:20Z</time>
      </trkpt>
      <trkpt lat="48.70261" lon="2.06022">
        <ele>83</ele>
        <time>2019-05-16T09:38:24Z</time>
      </trkpt>
      <trkpt lat="48.7026" lon="2.06012">
        <ele>85</ele>
        <time>2019-05-16T09:38:28Z</time>
      </trkpt>
      <trkpt lat="48.70259" lon="2.06001">
        <ele>86</ele>
        <time>2019-05-16T09:38:32Z</time>
      </trkpt>
      <trkpt lat="48.7026" lon="2.05993">
        <ele>86</ele>
        <time>2019-05-16T09:38:36Z</time>
      </trkpt>
      <trkpt lat="48.7026" lon="2.05984">
        <ele>85</ele>
        <time>2019-05-16T09:38:40Z</time>
      </trkpt>
      <trkpt lat="48.70261" lon="2.05976">
        <ele>85</ele>
        <time>2019-05-16T09:38:44Z</time>
      </trkpt>
      <trkpt lat="48.70261" lon="2.05966">
        <ele>84</ele>
        <time>2019-05-16T09:38:48Z</time>
      </trkpt>
      <trkpt lat="48.70262" lon="2.05956">
        <ele>84</ele>
        <time>2019-05-16T09:38:52Z</time>
      </trkpt>
      <trkpt lat="48.70262" lon="2.05948">
        <ele>84</ele>
        <time>2019-05-16T09:38:56Z</time>
      </trkpt>
      <trkpt lat="48.70263" lon="2.0594">
        <ele>84</ele>
        <time>2019-05-16T09:39:00Z</time>
      </trkpt>
      <trkpt lat="48.70264" lon="2.05931">
        <ele>85</ele>
        <time>2019-05-16T09:39:04Z</time>
      </trkpt>
      <trkpt lat="48.70264" lon="2.05922">
        <ele>85</ele>
        <time>2019-05-16T09:39:08Z</time>
      </trkpt>
      <trkpt lat="48.70264" lon="2.05913">
        <ele>85</ele>
        <time>2019-05-16T09:39:12Z</time>
      </trkpt>
      <trkpt lat="48.70264" lon="2.05904">
        <ele>84</ele>
        <time>2019-05-16T09:39:16Z</time>
      </trkpt>
      <trkpt lat="48.70265" lon="2.05893">
        <ele>83</ele>
        <time>2019-05-16T09:39:20Z</time>
      </trkpt>
      <trkpt lat="48.70265" lon="2.05885">
        <ele>83</ele>
        <time>2019-05-16T09:39:24Z</time>
      </trkpt>
      <trkpt lat="48.70266" lon="2.05874">
        <ele>83</ele>
        <time>2019-05-16T09:39:30Z</time>
      </trkpt>
      <trkpt lat="48.70267" lon="2.05864">
        <ele>83</ele>
        <time>2019-05-16T09:39:34Z</time>
      </trkpt>
      <trkpt lat="48.70267" lon="2.05855">
        <ele>83</ele>
        <time>2019-05-16T09:39:38Z</time>
      </trkpt>
      <trkpt lat="48.70267" lon="2.05845">
        <ele>83</ele>
        <time>2019-05-16T09:39:42Z</time>
      </trkpt>
      <trkpt lat="48.70267" lon="2.05836">
        <ele>83</ele>
        <time>2019-05-16T09:39:46Z</time>
      </trkpt>
      <trkpt lat="48.70268" lon="2.05828">
        <ele>83</ele>
        <time>2019-05-16T09:39:50Z</time>
      </trkpt>
      <trkpt lat="48.70269" lon="2.0582">
        <ele>82</ele>
        <time>2019-05-16T09:39:54Z</time>
      </trkpt>
      <trkpt lat="48.70268" lon="2.0581">
        <ele>82</ele>
        <time>2019-05-16T09:40:00Z</time>
      </trkpt>
      <trkpt lat="48.70269" lon="2.058">
        <ele>82</ele>
        <time>2019-05-16T09:40:06Z</time>
      </trkpt>
      <trkpt lat="48.70268" lon="2.0579">
        <ele>82</ele>
        <time>2019-05-16T09:40:10Z</time>
      </trkpt>
      <trkpt lat="48.70267" lon="2.05778">
        <ele>82</ele>
        <time>2019-05-16T09:40:14Z</time>
      </trkpt>
      <trkpt lat="48.70267" lon="2.0577">
        <ele>82</ele>
        <time>2019-05-16T09:40:18Z</time>
      </trkpt>
      <trkpt lat="48.70266" lon="2.05761">
        <ele>82</ele>
        <time>2019-05-16T09:40:22Z</time>
      </trkpt>
      <trkpt lat="48.70263" lon="2.0575">
        <ele>82</ele>
        <time>2019-05-16T09:40:26Z</time>
      </trkpt>
      <trkpt lat="48.70262" lon="2.0574">
        <ele>82</ele>
        <time>2019-05-16T09:40:30Z</time>
      </trkpt>
      <trkpt lat="48.70259" lon="2.05731">
        <ele>81</ele>
        <time>2019-05-16T09:40:34Z</time>
      </trkpt>
      <trkpt lat="48.70258" lon="2.05722">
        <ele>81</ele>
        <time>2019-05-16T09:40:38Z</time>
      </trkpt>
      <trkpt lat="48.70256" lon="2.05712">
        <ele>81</ele>
        <time>2019-05-16T09:40:42Z</time>
      </trkpt>
      <trkpt lat="48.70254" lon="2.05704">
        <ele>81</ele>
        <time>2019-05-16T09:40:46Z</time>
      </trkpt>
      <trkpt lat="48.70252" lon="2.05694">
        <ele>81</ele>
        <time>2019-05-16T09:40:50Z</time>
      </trkpt>
      <trkpt lat="48.70249" lon="2.05685">
        <ele>84</ele>
        <time>2019-05-16T09:40:54Z</time>
      </trkpt>
      <trkpt lat="48.70247" lon="2.05677">
        <ele>83</ele>
        <time>2019-05-16T09:40:58Z</time>
      </trkpt>
      <trkpt lat="48.70246" lon="2.05669">
        <ele>82</ele>
        <time>2019-05-16T09:41:02Z</time>
      </trkpt>
      <trkpt lat="48.70241" lon="2.05659">
        <ele>82</ele>
        <time>2019-05-16T09:41:06Z</time>
      </trkpt>
      <trkpt lat="48.70239" lon="2.0565">
        <ele>83</ele>
        <time>2019-05-16T09:41:10Z</time>
      </trkpt>
      <trkpt lat="48.70236" lon="2.0564">
        <ele>83</ele>
        <time>2019-05-16T09:41:14Z</time>
      </trkpt>
      <trkpt lat="48.70233" lon="2.05633">
        <ele>84</ele>
        <time>2019-05-16T09:41:18Z</time>
      </trkpt>
      <trkpt lat="48.7023" lon="2.05625">
        <ele>84</ele>
        <time>2019-05-16T09:41:22Z</time>
      </trkpt>
      <trkpt lat="48.70229" lon="2.05618">
        <ele>84</ele>
        <time>2019-05-16T09:41:26Z</time>
      </trkpt>
      <trkpt lat="48.70228" lon="2.05611">
        <ele>84</ele>
        <time>2019-05-16T09:41:30Z</time>
      </trkpt>
      <trkpt lat="48.70226" lon="2.05602">
        <ele>83</ele>
        <time>2019-05-16T09:41:34Z</time>
      </trkpt>
      <trkpt lat="48.70224" lon="2.05594">
        <ele>83</ele>
        <time>2019-05-16T09:41:38Z</time>
      </trkpt>
      <trkpt lat="48.70222" lon="2.05587">
        <ele>83</ele>
        <time>2019-05-16T09:41:42Z</time>
      </trkpt>
      <trkpt lat="48.70219" lon="2.05582">
        <ele>83</ele>
        <time>2019-05-16T09:41:48Z</time>
      </trkpt>
      <trkpt lat="48.70215" lon="2.05578">
        <ele>83</ele>
        <time>2019-05-16T09:41:54Z</time>
      </trkpt>
      <trkpt lat="48.70209" lon="2.05579">
        <ele>83</ele>
        <time>2019-05-16T09:42:18Z</time>
      </trkpt>
      <trkpt lat="48.70204" lon="2.05581">
        <ele>84</ele>
        <time>2019-05-16T09:42:28Z</time>
      </trkpt>
      <trkpt lat="48.702" lon="2.05585">
        <ele>85</ele>
        <time>2019-05-16T09:42:38Z</time>
      </trkpt>
      <trkpt lat="48.70195" lon="2.0559">
        <ele>85</ele>
        <time>2019-05-16T09:42:46Z</time>
      </trkpt>
      <trkpt lat="48.7019" lon="2.05594">
        <ele>86</ele>
        <time>2019-05-16T09:42:58Z</time>
      </trkpt>
      <trkpt lat="48.70186" lon="2.05598">
        <ele>86</ele>
        <time>2019-05-16T09:43:04Z</time>
      </trkpt>
      <trkpt lat="48.70181" lon="2.05601">
        <ele>86</ele>
        <time>2019-05-16T09:43:08Z</time>
      </trkpt>
      <trkpt lat="48.70177" lon="2.05605">
        <ele>86</ele>
        <time>2019-05-16T09:43:12Z</time>
      </trkpt>
      <trkpt lat="48.70172" lon="2.05606">
        <ele>86</ele>
        <time>2019-05-16T09:43:16Z</time>
      </trkpt>
      <trkpt lat="48.70168" lon="2.05609">
        <ele>86</ele>
        <time>2019-05-16T09:43:20Z</time>
      </trkpt>
      <trkpt lat="48.70163" lon="2.05611">
        <ele>91</ele>
        <time>2019-05-16T09:43:26Z</time>
      </trkpt>
      <trkpt lat="48.70158" lon="2.05614">
        <ele>91</ele>
        <time>2019-05-16T09:43:30Z</time>
      </trkpt>
      <trkpt lat="48.70151" lon="2.05616">
        <ele>92</ele>
        <time>2019-05-16T09:43:36Z</time>
      </trkpt>
      <trkpt lat="48.70146" lon="2.05617">
        <ele>92</ele>
        <time>2019-05-16T09:43:40Z</time>
      </trkpt>
      <trkpt lat="48.70139" lon="2.05617">
        <ele>92</ele>
        <time>2019-05-16T09:43:46Z</time>
      </trkpt>
      <trkpt lat="48.70134" lon="2.05622">
        <ele>93</ele>
        <time>2019-05-16T09:43:50Z</time>
      </trkpt>
      <trkpt lat="48.70129" lon="2.05626">
        <ele>93</ele>
        <time>2019-05-16T09:43:54Z</time>
      </trkpt>
      <trkpt lat="48.70124" lon="2.0563">
        <ele>93</ele>
        <time>2019-05-16T09:43:58Z</time>
      </trkpt>
      <trkpt lat="48.70119" lon="2.05631">
        <ele>93</ele>
        <time>2019-05-16T09:44:02Z</time>
      </trkpt>
      <trkpt lat="48.70115" lon="2.05632">
        <ele>94</ele>
        <time>2019-05-16T09:44:06Z</time>
      </trkpt>
      <trkpt lat="48.7011" lon="2.05635">
        <ele>94</ele>
        <time>2019-05-16T09:44:10Z</time>
      </trkpt>
      <trkpt lat="48.70106" lon="2.0564">
        <ele>94</ele>
        <time>2019-05-16T09:44:14Z</time>
      </trkpt>
      <trkpt lat="48.701" lon="2.05643">
        <ele>95</ele>
        <time>2019-05-16T09:44:20Z</time>
      </trkpt>
      <trkpt lat="48.70094" lon="2.05642">
        <ele>95</ele>
        <time>2019-05-16T09:44:26Z</time>
      </trkpt>
      <trkpt lat="48.7009" lon="2.05643">
        <ele>95</ele>
        <time>2019-05-16T09:44:34Z</time>
      </trkpt>
      <trkpt lat="48.70085" lon="2.05639">
        <ele>95</ele>
        <time>2019-05-16T09:44:38Z</time>
      </trkpt>
      <trkpt lat="48.70081" lon="2.05636">
        <ele>101</ele>
        <time>2019-05-16T09:44:44Z</time>
      </trkpt>
      <trkpt lat="48.70076" lon="2.05634">
        <ele>101</ele>
        <time>2019-05-16T09:44:48Z</time>
      </trkpt>
      <trkpt lat="48.70072" lon="2.05632">
        <ele>101</ele>
        <time>2019-05-16T09:44:52Z</time>
      </trkpt>
      <trkpt lat="48.70068" lon="2.05628">
        <ele>101</ele>
        <time>2019-05-16T09:44:56Z</time>
      </trkpt>
      <trkpt lat="48.70062" lon="2.05624">
        <ele>102</ele>
        <time>2019-05-16T09:45:02Z</time>
      </trkpt>
      <trkpt lat="48.70057" lon="2.05623">
        <ele>102</ele>
        <time>2019-05-16T09:45:06Z</time>
      </trkpt>
      <trkpt lat="48.70051" lon="2.05622">
        <ele>102</ele>
        <time>2019-05-16T09:45:12Z</time>
      </trkpt>
      <trkpt lat="48.70047" lon="2.05619">
        <ele>102</ele>
        <time>2019-05-16T09:45:16Z</time>
      </trkpt>
      <trkpt lat="48.70042" lon="2.05616">
        <ele>103</ele>
        <time>2019-05-16T09:45:22Z</time>
      </trkpt>
      <trkpt lat="48.70036" lon="2.05613">
        <ele>103</ele>
        <time>2019-05-16T09:45:28Z</time>
      </trkpt>
      <trkpt lat="48.70029" lon="2.05611">
        <ele>104</ele>
        <time>2019-05-16T09:45:34Z</time>
      </trkpt>
      <trkpt lat="48.70022" lon="2.05609">
        <ele>104</ele>
        <time>2019-05-16T09:45:40Z</time>
      </trkpt>
      <trkpt lat="48.70017" lon="2.05608">
        <ele>104</ele>
        <time>2019-05-16T09:45:44Z</time>
      </trkpt>
      <trkpt lat="48.70013" lon="2.05605">
        <ele>105</ele>
        <time>2019-05-16T09:45:48Z</time>
      </trkpt>
      <trkpt lat="48.70008" lon="2.05605">
        <ele>105</ele>
        <time>2019-05-16T09:45:54Z</time>
      </trkpt>
      <trkpt lat="48.70003" lon="2.05605">
        <ele>105</ele>
        <time>2019-05-16T09:45:58Z</time>
      </trkpt>
      <trkpt lat="48.69997" lon="2.05603">
        <ele>111</ele>
        <time>2019-05-16T09:46:02Z</time>
      </trkpt>
      <trkpt lat="48.69992" lon="2.05602">
        <ele>112</ele>
        <time>2019-05-16T09:46:06Z</time>
      </trkpt>
      <trkpt lat="48.69988" lon="2.05603">
        <ele>112</ele>
        <time>2019-05-16T09:46:10Z</time>
      </trkpt>
      <trkpt lat="48.69983" lon="2.056">
        <ele>112</ele>
        <time>2019-05-16T09:46:14Z</time>
      </trkpt>
      <trkpt lat="48.69978" lon="2.05598">
        <ele>113</ele>
        <time>2019-05-16T09:46:22Z</time>
      </trkpt>
      <trkpt lat="48.6997" lon="2.05597">
        <ele>114</ele>
        <time>2019-05-16T09:46:28Z</time>
      </trkpt>
      <trkpt lat="48.69965" lon="2.05595">
        <ele>114</ele>
        <time>2019-05-16T09:46:32Z</time>
      </trkpt>
      <trkpt lat="48.69958" lon="2.05591">
        <ele>115</ele>
        <time>2019-05-16T09:46:38Z</time>
      </trkpt>
      <trkpt lat="48.69954" lon="2.05588">
        <ele>115</ele>
        <time>2019-05-16T09:46:42Z</time>
      </trkpt>
      <trkpt lat="48.69949" lon="2.05588">
        <ele>116</ele>
        <time>2019-05-16T09:46:46Z</time>
      </trkpt>
      <trkpt lat="48.69943" lon="2.05586">
        <ele>116</ele>
        <time>2019-05-16T09:46:50Z</time>
      </trkpt>
      <trkpt lat="48.69938" lon="2.05584">
        <ele>117</ele>
        <time>2019-05-16T09:46:56Z</time>
      </trkpt>
      <trkpt lat="48.69932" lon="2.05585">
        <ele>118</ele>
        <time>2019-05-16T09:47:00Z</time>
      </trkpt>
      <trkpt lat="48.69927" lon="2.05585">
        <ele>118</ele>
        <time>2019-05-16T09:47:04Z</time>
      </trkpt>
      <trkpt lat="48.69923" lon="2.05587">
        <ele>119</ele>
        <time>2019-05-16T09:47:08Z</time>
      </trkpt>
      <trkpt lat="48.69918" lon="2.05585">
        <ele>120</ele>
        <time>2019-05-16T09:47:14Z</time>
      </trkpt>
      <trkpt lat="48.69911" lon="2.05586">
        <ele>123</ele>
        <time>2019-05-16T09:47:18Z</time>
      </trkpt>
      <trkpt lat="48.69906" lon="2.05584">
        <ele>124</ele>
        <time>2019-05-16T09:47:22Z</time>
      </trkpt>
      <trkpt lat="48.69901" lon="2.05585">
        <ele>126</ele>
        <time>2019-05-16T09:47:26Z</time>
      </trkpt>
      <trkpt lat="48.69896" lon="2.05584">
        <ele>127</ele>
        <time>2019-05-16T09:47:30Z</time>
      </trkpt>
      <trkpt lat="48.69891" lon="2.05587">
        <ele>128</ele>
        <time>2019-05-16T09:47:36Z</time>
      </trkpt>
      <trkpt lat="48.69886" lon="2.05587">
        <ele>130</ele>
        <time>2019-05-16T09:47:44Z</time>
      </trkpt>
      <trkpt lat="48.69879" lon="2.05586">
        <ele>131</ele>
        <time>2019-05-16T09:47:52Z</time>
      </trkpt>
      <trkpt lat="48.69872" lon="2.05588">
        <ele>132</ele>
        <time>2019-05-16T09:47:58Z</time>
      </trkpt>
      <trkpt lat="48.69867" lon="2.05586">
        <ele>133</ele>
        <time>2019-05-16T09:48:06Z</time>
      </trkpt>
      <trkpt lat="48.69864" lon="2.0558">
        <ele>132</ele>
        <time>2019-05-16T09:48:16Z</time>
      </trkpt>
      <trkpt lat="48.6986" lon="2.05575">
        <ele>133</ele>
        <time>2019-05-16T09:48:20Z</time>
      </trkpt>
      <trkpt lat="48.69855" lon="2.05567">
        <ele>133</ele>
        <time>2019-05-16T09:48:36Z</time>
      </trkpt>
      <trkpt lat="48.69853" lon="2.0556">
        <ele>133</ele>
        <time>2019-05-16T09:48:42Z</time>
      </trkpt>
      <trkpt lat="48.6985" lon="2.05554">
        <ele>133</ele>
        <time>2019-05-16T09:48:48Z</time>
      </trkpt>
      <trkpt lat="48.69847" lon="2.05549">
        <ele>133</ele>
        <time>2019-05-16T09:48:52Z</time>
      </trkpt>
      <trkpt lat="48.69844" lon="2.05544">
        <ele>133</ele>
        <time>2019-05-16T09:49:00Z</time>
      </trkpt>
      <trkpt lat="48.6984" lon="2.05539">
        <ele>134</ele>
        <time>2019-05-16T09:49:04Z</time>
      </trkpt>
      <trkpt lat="48.69835" lon="2.05535">
        <ele>134</ele>
        <time>2019-05-16T09:49:08Z</time>
      </trkpt>
      <trkpt lat="48.69832" lon="2.0553">
        <ele>147</ele>
        <time>2019-05-16T09:49:12Z</time>
      </trkpt>
      <trkpt lat="48.69829" lon="2.05523">
        <ele>147</ele>
        <time>2019-05-16T09:49:18Z</time>
      </trkpt>
      <trkpt lat="48.69827" lon="2.05517">
        <ele>146</ele>
        <time>2019-05-16T09:49:24Z</time>
      </trkpt>
      <trkpt lat="48.69824" lon="2.05509">
        <ele>145</ele>
        <time>2019-05-16T09:49:28Z</time>
      </trkpt>
      <trkpt lat="48.69822" lon="2.055">
        <ele>145</ele>
        <time>2019-05-16T09:49:32Z</time>
      </trkpt>
      <trkpt lat="48.69818" lon="2.05493">
        <ele>145</ele>
        <time>2019-05-16T09:49:38Z</time>
      </trkpt>
      <trkpt lat="48.69815" lon="2.05486">
        <ele>146</ele>
        <time>2019-05-16T09:49:44Z</time>
      </trkpt>
      <trkpt lat="48.69813" lon="2.0548">
        <ele>147</ele>
        <time>2019-05-16T09:49:50Z</time>
      </trkpt>
      <trkpt lat="48.69811" lon="2.05474">
        <ele>147</ele>
        <time>2019-05-16T09:49:56Z</time>
      </trkpt>
      <trkpt lat="48.69808" lon="2.05467">
        <ele>148</ele>
        <time>2019-05-16T09:50:00Z</time>
      </trkpt>
      <trkpt lat="48.69806" lon="2.0546">
        <ele>148</ele>
        <time>2019-05-16T09:50:06Z</time>
      </trkpt>
      <trkpt lat="48.69803" lon="2.05453">
        <ele>148</ele>
        <time>2019-05-16T09:50:12Z</time>
      </trkpt>
      <trkpt lat="48.69799" lon="2.05449">
        <ele>148</ele>
        <time>2019-05-16T09:50:16Z</time>
      </trkpt>
      <trkpt lat="48.69795" lon="2.05444">
        <ele>149</ele>
        <time>2019-05-16T09:50:20Z</time>
      </trkpt>
      <trkpt lat="48.6979" lon="2.05439">
        <ele>149</ele>
        <time>2019-05-16T09:50:24Z</time>
      </trkpt>
      <trkpt lat="48.69785" lon="2.05433">
        <ele>150</ele>
        <time>2019-05-16T09:50:28Z</time>
      </trkpt>
      <trkpt lat="48.69781" lon="2.05426">
        <ele>151</ele>
        <time>2019-05-16T09:50:32Z</time>
      </trkpt>
      <trkpt lat="48.69777" lon="2.0542">
        <ele>152</ele>
        <time>2019-05-16T09:50:36Z</time>
      </trkpt>
      <trkpt lat="48.69772" lon="2.05414">
        <ele>151</ele>
        <time>2019-05-16T09:50:40Z</time>
      </trkpt>
      <trkpt lat="48.69769" lon="2.05408">
        <ele>151</ele>
        <time>2019-05-16T09:50:44Z</time>
      </trkpt>
      <trkpt lat="48.69765" lon="2.05403">
        <ele>152</ele>
        <time>2019-05-16T09:50:50Z</time>
      </trkpt>
      <trkpt lat="48.69759" lon="2.05399">
        <ele>152</ele>
        <time>2019-05-16T09:50:56Z</time>
      </trkpt>
      <trkpt lat="48.69754" lon="2.05395">
        <ele>152</ele>
        <time>2019-05-16T09:51:02Z</time>
      </trkpt>
      <trkpt lat="48.69748" lon="2.05389">
        <ele>161</ele>
        <time>2019-05-16T09:51:08Z</time>
      </trkpt>
      <trkpt lat="48.69743" lon="2.05385">
        <ele>162</ele>
        <time>2019-05-16T09:51:12Z</time>
      </trkpt>
      <trkpt lat="48.69737" lon="2.05382">
        <ele>162</ele>
        <time>2019-05-16T09:51:16Z</time>
      </trkpt>
      <trkpt lat="48.69731" lon="2.05381">
        <ele>162</ele>
        <time>2019-05-16T09:51:22Z</time>
      </trkpt>
      <trkpt lat="48.69725" lon="2.0538">
        <ele>162</ele>
        <time>2019-05-16T09:51:28Z</time>
      </trkpt>
      <trkpt lat="48.6972" lon="2.05379">
        <ele>163</ele>
        <time>2019-05-16T09:51:34Z</time>
      </trkpt>
      <trkpt lat="48.69715" lon="2.05376">
        <ele>163</ele>
        <time>2019-05-16T09:51:42Z</time>
      </trkpt>
      <trkpt lat="48.69712" lon="2.0537">
        <ele>163</ele>
        <time>2019-05-16T09:51:56Z</time>
      </trkpt>
      <trkpt lat="48.69711" lon="2.05362">
        <ele>163</ele>
        <time>2019-05-16T09:52:24Z</time>
      </trkpt>
      <trkpt lat="48.69706" lon="2.05358">
        <ele>163</ele>
        <time>2019-05-16T09:53:14Z</time>
      </trkpt>
      <trkpt lat="48.69708" lon="2.05352">
        <ele>163</ele>
        <time>2019-05-16T09:53:26Z</time>
      </trkpt>
      <trkpt lat="48.69705" lon="2.05341">
        <ele>163</ele>
        <time>2019-05-16T09:53:34Z</time>
      </trkpt>
      <trkpt lat="48.69703" lon="2.05335">
        <ele>164</ele>
        <time>2019-05-16T09:53:38Z</time>
      </trkpt>
      <trkpt lat="48.69701" lon="2.05324">
        <ele>163</ele>
        <time>2019-05-16T09:53:44Z</time>
      </trkpt>
      <trkpt lat="48.697" lon="2.05314">
        <ele>163</ele>
        <time>2019-05-16T09:53:48Z</time>
      </trkpt>
      <trkpt lat="48.697" lon="2.05302">
        <ele>163</ele>
        <time>2019-05-16T09:53:52Z</time>
      </trkpt>
      <trkpt lat="48.69702" lon="2.05294">
        <ele>162</ele>
        <time>2019-05-16T09:53:56Z</time>
      </trkpt>
      <trkpt lat="48.69702" lon="2.05282">
        <ele>162</ele>
        <time>2019-05-16T09:54:00Z</time>
      </trkpt>
      <trkpt lat="48.69701" lon="2.05273">
        <ele>162</ele>
        <time>2019-05-16T09:54:04Z</time>
      </trkpt>
      <trkpt lat="48.69702" lon="2.05265">
        <ele>162</ele>
        <time>2019-05-16T09:54:08Z</time>
      </trkpt>
      <trkpt lat="48.69702" lon="2.05258">
        <ele>162</ele>
        <time>2019-05-16T09:54:12Z</time>
      </trkpt>
      <trkpt lat="48.69704" lon="2.05251">
        <ele>162</ele>
        <time>2019-05-16T09:54:16Z</time>
      </trkpt>
      <trkpt lat="48.69705" lon="2.05242">
        <ele>162</ele>
        <time>2019-05-16T09:54:20Z</time>
      </trkpt>
      <trkpt lat="48.69704" lon="2.05235">
        <ele>162</ele>
        <time>2019-05-16T09:54:26Z</time>
      </trkpt>
      <trkpt lat="48.69701" lon="2.05228">
        <ele>162</ele>
        <time>2019-05-16T09:54:30Z</time>
      </trkpt>
      <trkpt lat="48.697" lon="2.0522">
        <ele>162</ele>
        <time>2019-05-16T09:54:34Z</time>
      </trkpt>
      <trkpt lat="48.697" lon="2.05209">
        <ele>162</ele>
        <time>2019-05-16T09:54:38Z</time>
      </trkpt>
      <trkpt lat="48.69702" lon="2.05202">
        <ele>162</ele>
        <time>2019-05-16T09:54:42Z</time>
      </trkpt>
      <trkpt lat="48.69702" lon="2.05192">
        <ele>162</ele>
        <time>2019-05-16T09:54:46Z</time>
      </trkpt>
      <trkpt lat="48.69704" lon="2.05183">
        <ele>162</ele>
        <time>2019-05-16T09:54:50Z</time>
      </trkpt>
      <trkpt lat="48.69702" lon="2.05175">
        <ele>163</ele>
        <time>2019-05-16T09:54:54Z</time>
      </trkpt>
      <trkpt lat="48.69702" lon="2.05162">
        <ele>164</ele>
        <time>2019-05-16T09:54:58Z</time>
      </trkpt>
      <trkpt lat="48.69703" lon="2.05155">
        <ele>164</ele>
        <time>2019-05-16T09:55:02Z</time>
      </trkpt>
      <trkpt lat="48.69705" lon="2.05144">
        <ele>163</ele>
        <time>2019-05-16T09:55:06Z</time>
      </trkpt>
      <trkpt lat="48.69706" lon="2.05135">
        <ele>163</ele>
        <time>2019-05-16T09:55:10Z</time>
      </trkpt>
      <trkpt lat="48.69707" lon="2.05127">
        <ele>163</ele>
        <time>2019-05-16T09:55:14Z</time>
      </trkpt>
      <trkpt lat="48.69708" lon="2.05116">
        <ele>163</ele>
        <time>2019-05-16T09:55:18Z</time>
      </trkpt>
      <trkpt lat="48.69711" lon="2.05105">
        <ele>163</ele>
        <time>2019-05-16T09:55:22Z</time>
      </trkpt>
      <trkpt lat="48.69714" lon="2.05094">
        <ele>163</ele>
        <time>2019-05-16T09:55:26Z</time>
      </trkpt>
      <trkpt lat="48.69717" lon="2.05084">
        <ele>163</ele>
        <time>2019-05-16T09:55:30Z</time>
      </trkpt>
      <trkpt lat="48.69719" lon="2.05073">
        <ele>164</ele>
        <time>2019-05-16T09:55:34Z</time>
      </trkpt>
      <trkpt lat="48.69721" lon="2.05066">
        <ele>164</ele>
        <time>2019-05-16T09:55:38Z</time>
      </trkpt>
      <trkpt lat="48.69722" lon="2.05057">
        <ele>165</ele>
        <time>2019-05-16T09:55:44Z</time>
      </trkpt>
      <trkpt lat="48.69723" lon="2.05048">
        <ele>165</ele>
        <time>2019-05-16T09:55:48Z</time>
      </trkpt>
      <trkpt lat="48.69725" lon="2.05039">
        <ele>165</ele>
        <time>2019-05-16T09:55:52Z</time>
      </trkpt>
      <trkpt lat="48.69727" lon="2.0503">
        <ele>165</ele>
        <time>2019-05-16T09:55:56Z</time>
      </trkpt>
      <trkpt lat="48.6973" lon="2.05022">
        <ele>165</ele>
        <time>2019-05-16T09:56:00Z</time>
      </trkpt>
      <trkpt lat="48.69735" lon="2.05012">
        <ele>165</ele>
        <time>2019-05-16T09:56:04Z</time>
      </trkpt>
      <trkpt lat="48.69737" lon="2.05006">
        <ele>165</ele>
        <time>2019-05-16T09:56:08Z</time>
      </trkpt>
      <trkpt lat="48.69741" lon="2.04998">
        <ele>166</ele>
        <time>2019-05-16T09:56:14Z</time>
      </trkpt>
      <trkpt lat="48.69743" lon="2.04992">
        <ele>166</ele>
        <time>2019-05-16T09:56:18Z</time>
      </trkpt>
      <trkpt lat="48.69746" lon="2.04983">
        <ele>166</ele>
        <time>2019-05-16T09:56:22Z</time>
      </trkpt>
      <trkpt lat="48.69747" lon="2.04975">
        <ele>167</ele>
        <time>2019-05-16T09:56:28Z</time>
      </trkpt>
      <trkpt lat="48.69748" lon="2.04968">
        <ele>167</ele>
        <time>2019-05-16T09:56:32Z</time>
      </trkpt>
      <trkpt lat="48.6975" lon="2.04961">
        <ele>168</ele>
        <time>2019-05-16T09:56:36Z</time>
      </trkpt>
      <trkpt lat="48.69753" lon="2.04952">
        <ele>159</ele>
        <time>2019-05-16T09:56:40Z</time>
      </trkpt>
      <trkpt lat="48.69757" lon="2.04942">
        <ele>159</ele>
        <time>2019-05-16T09:56:44Z</time>
      </trkpt>
      <trkpt lat="48.6976" lon="2.04933">
        <ele>161</ele>
        <time>2019-05-16T09:56:48Z</time>
      </trkpt>
      <trkpt lat="48.69763" lon="2.04926">
        <ele>161</ele>
        <time>2019-05-16T09:56:52Z</time>
      </trkpt>
      <trkpt lat="48.69766" lon="2.04919">
        <ele>161</ele>
        <time>2019-05-16T09:56:56Z</time>
      </trkpt>
      <trkpt lat="48.6977" lon="2.04911">
        <ele>162</ele>
        <time>2019-05-16T09:57:00Z</time>
      </trkpt>
      <trkpt lat="48.69771" lon="2.04902">
        <ele>162</ele>
        <time>2019-05-16T09:57:06Z</time>
      </trkpt>
      <trkpt lat="48.69774" lon="2.04894">
        <ele>161</ele>
        <time>2019-05-16T09:57:10Z</time>
      </trkpt>
      <trkpt lat="48.69776" lon="2.04888">
        <ele>161</ele>
        <time>2019-05-16T09:57:14Z</time>
      </trkpt>
      <trkpt lat="48.69777" lon="2.04881">
        <ele>160</ele>
        <time>2019-05-16T09:57:18Z</time>
      </trkpt>
      <trkpt lat="48.69778" lon="2.04873">
        <ele>160</ele>
        <time>2019-05-16T09:57:22Z</time>
      </trkpt>
      <trkpt lat="48.69778" lon="2.04863">
        <ele>161</ele>
        <time>2019-05-16T09:57:26Z</time>
      </trkpt>
      <trkpt lat="48.6978" lon="2.04854">
        <ele>161</ele>
        <time>2019-05-16T09:57:30Z</time>
      </trkpt>
      <trkpt lat="48.6978" lon="2.04844">
        <ele>161</ele>
        <time>2019-05-16T09:57:34Z</time>
      </trkpt>
      <trkpt lat="48.69781" lon="2.04837">
        <ele>161</ele>
        <time>2019-05-16T09:57:38Z</time>
      </trkpt>
      <trkpt lat="48.69781" lon="2.0483">
        <ele>163</ele>
        <time>2019-05-16T09:57:42Z</time>
      </trkpt>
      <trkpt lat="48.69782" lon="2.04821">
        <ele>163</ele>
        <time>2019-05-16T09:57:46Z</time>
      </trkpt>
      <trkpt lat="48.69782" lon="2.04813">
        <ele>163</ele>
        <time>2019-05-16T09:57:50Z</time>
      </trkpt>
      <trkpt lat="48.69781" lon="2.04806">
        <ele>163</ele>
        <time>2019-05-16T09:57:54Z</time>
      </trkpt>
      <trkpt lat="48.69779" lon="2.04798">
        <ele>163</ele>
        <time>2019-05-16T09:57:58Z</time>
      </trkpt>
      <trkpt lat="48.69777" lon="2.04789">
        <ele>163</ele>
        <time>2019-05-16T09:58:02Z</time>
      </trkpt>
      <trkpt lat="48.69777" lon="2.0478">
        <ele>164</ele>
        <time>2019-05-16T09:58:06Z</time>
      </trkpt>
      <trkpt lat="48.69775" lon="2.04773">
        <ele>164</ele>
        <time>2019-05-16T09:58:12Z</time>
      </trkpt>
      <trkpt lat="48.69774" lon="2.04766">
        <ele>164</ele>
        <time>2019-05-16T09:58:16Z</time>
      </trkpt>
      <trkpt lat="48.69774" lon="2.04758">
        <ele>165</ele>
        <time>2019-05-16T09:58:22Z</time>
      </trkpt>
      <trkpt lat="48.69774" lon="2.04751">
        <ele>165</ele>
        <time>2019-05-16T09:58:38Z</time>
      </trkpt>
      <trkpt lat="48.69772" lon="2.04745">
        <ele>166</ele>
        <time>2019-05-16T09:58:50Z</time>
      </trkpt>
      <trkpt lat="48.69771" lon="2.04738">
        <ele>166</ele>
        <time>2019-05-16T09:58:58Z</time>
      </trkpt>
      <trkpt lat="48.69767" lon="2.04732">
        <ele>166</ele>
        <time>2019-05-16T09:59:10Z</time>
      </trkpt>
      <trkpt lat="48.69763" lon="2.04727">
        <ele>166</ele>
        <time>2019-05-16T09:59:20Z</time>
      </trkpt>
      <trkpt lat="48.69757" lon="2.04727">
        <ele>166</ele>
        <time>2019-05-16T09:59:24Z</time>
      </trkpt>
      <trkpt lat="48.69752" lon="2.04724">
        <ele>166</ele>
        <time>2019-05-16T09:59:30Z</time>
      </trkpt>
      <trkpt lat="48.69747" lon="2.0472">
        <ele>171</ele>
        <time>2019-05-16T09:59:36Z</time>
      </trkpt>
      <trkpt lat="48.69742" lon="2.04715">
        <ele>171</ele>
        <time>2019-05-16T09:59:42Z</time>
      </trkpt>
      <trkpt lat="48.69736" lon="2.04711">
        <ele>171</ele>
        <time>2019-05-16T09:59:46Z</time>
      </trkpt>
      <trkpt lat="48.69732" lon="2.04706">
        <ele>171</ele>
        <time>2019-05-16T09:59:50Z</time>
      </trkpt>
      <trkpt lat="48.69726" lon="2.04701">
        <ele>171</ele>
        <time>2019-05-16T09:59:56Z</time>
      </trkpt>
      <trkpt lat="48.69721" lon="2.04698">
        <ele>171</ele>
        <time>2019-05-16T10:00:00Z</time>
      </trkpt>
      <trkpt lat="48.69715" lon="2.04697">
        <ele>171</ele>
        <time>2019-05-16T10:00:04Z</time>
      </trkpt>
      <trkpt lat="48.6971" lon="2.04694">
        <ele>171</ele>
        <time>2019-05-16T10:00:10Z</time>
      </trkpt>
      <trkpt lat="48.69704" lon="2.0469">
        <ele>171</ele>
        <time>2019-05-16T10:00:16Z</time>
      </trkpt>
      <trkpt lat="48.697" lon="2.04686">
        <ele>171</ele>
        <time>2019-05-16T10:00:20Z</time>
      </trkpt>
      <trkpt lat="48.69695" lon="2.04682">
        <ele>172</ele>
        <time>2019-05-16T10:00:24Z</time>
      </trkpt>
      <trkpt lat="48.69688" lon="2.04679">
        <ele>172</ele>
        <time>2019-05-16T10:00:28Z</time>
      </trkpt>
      <trkpt lat="48.69683" lon="2.04675">
        <ele>172</ele>
        <time>2019-05-16T10:00:32Z</time>
      </trkpt>
      <trkpt lat="48.69677" lon="2.04671">
        <ele>172</ele>
        <time>2019-05-16T10:00:36Z</time>
      </trkpt>
      <trkpt lat="48.69672" lon="2.04664">
        <ele>172</ele>
        <time>2019-05-16T10:00:42Z</time>
      </trkpt>
      <trkpt lat="48.69669" lon="2.0466">
        <ele>172</ele>
        <time>2019-05-16T10:00:46Z</time>
      </trkpt>
      <trkpt lat="48.69663" lon="2.04655">
        <ele>173</ele>
        <time>2019-05-16T10:00:52Z</time>
      </trkpt>
      <trkpt lat="48.69659" lon="2.04649">
        <ele>173</ele>
        <time>2019-05-16T10:00:56Z</time>
      </trkpt>
      <trkpt lat="48.69656" lon="2.0464">
        <ele>173</ele>
        <time>2019-05-16T10:01:00Z</time>
      </trkpt>
      <trkpt lat="48.69651" lon="2.04633">
        <ele>173</ele>
        <time>2019-05-16T10:01:04Z</time>
      </trkpt>
      <trkpt lat="48.6965" lon="2.04624">
        <ele>173</ele>
        <time>2019-05-16T10:01:08Z</time>
      </trkpt>
      <trkpt lat="48.69649" lon="2.04614">
        <ele>173</ele>
        <time>2019-05-16T10:01:12Z</time>
      </trkpt>
      <trkpt lat="48.69647" lon="2.04606">
        <ele>173</ele>
        <time>2019-05-16T10:01:16Z</time>
      </trkpt>
      <trkpt lat="48.69645" lon="2.04598">
        <ele>173</ele>
        <time>2019-05-16T10:01:20Z</time>
      </trkpt>
      <trkpt lat="48.69644" lon="2.04586">
        <ele>173</ele>
        <time>2019-05-16T10:01:24Z</time>
      </trkpt>
      <trkpt lat="48.69641" lon="2.04578">
        <ele>173</ele>
        <time>2019-05-16T10:01:28Z</time>
      </trkpt>
      <trkpt lat="48.69641" lon="2.04564">
        <ele>173</ele>
        <time>2019-05-16T10:01:32Z</time>
      </trkpt>
      <trkpt lat="48.69641" lon="2.04557">
        <ele>173</ele>
        <time>2019-05-16T10:01:34Z</time>
      </trkpt>
      <trkpt lat="48.69641" lon="2.04548">
        <ele>173</ele>
        <time>2019-05-16T10:01:38Z</time>
      </trkpt>
      <trkpt lat="48.69641" lon="2.04541">
        <ele>173</ele>
        <time>2019-05-16T10:01:40Z</time>
      </trkpt>
      <trkpt lat="48.69642" lon="2.0453">
        <ele>173</ele>
        <time>2019-05-16T10:01:44Z</time>
      </trkpt>
      <trkpt lat="48.69641" lon="2.0452">
        <ele>173</ele>
        <time>2019-05-16T10:01:50Z</time>
      </trkpt>
      <trkpt lat="48.69641" lon="2.04511">
        <ele>173</ele>
        <time>2019-05-16T10:01:54Z</time>
      </trkpt>
      <trkpt lat="48.69643" lon="2.04499">
        <ele>173</ele>
        <time>2019-05-16T10:01:58Z</time>
      </trkpt>
      <trkpt lat="48.69642" lon="2.04487">
        <ele>173</ele>
        <time>2019-05-16T10:02:02Z</time>
      </trkpt>
      <trkpt lat="48.69643" lon="2.04477">
        <ele>173</ele>
        <time>2019-05-16T10:02:06Z</time>
      </trkpt>
      <trkpt lat="48.69644" lon="2.04467">
        <ele>173</ele>
        <time>2019-05-16T10:02:10Z</time>
      </trkpt>
      <trkpt lat="48.69643" lon="2.04457">
        <ele>172</ele>
        <time>2019-05-16T10:02:14Z</time>
      </trkpt>
      <trkpt lat="48.69643" lon="2.04447">
        <ele>172</ele>
        <time>2019-05-16T10:02:18Z</time>
      </trkpt>
      <trkpt lat="48.69643" lon="2.04438">
        <ele>172</ele>
        <time>2019-05-16T10:02:22Z</time>
      </trkpt>
      <trkpt lat="48.69643" lon="2.04427">
        <ele>172</ele>
        <time>2019-05-16T10:02:26Z</time>
      </trkpt>
      <trkpt lat="48.69642" lon="2.04415">
        <ele>172</ele>
        <time>2019-05-16T10:02:30Z</time>
      </trkpt>
      <trkpt lat="48.69641" lon="2.04404">
        <ele>172</ele>
        <time>2019-05-16T10:02:34Z</time>
      </trkpt>
      <trkpt lat="48.69641" lon="2.04395">
        <ele>172</ele>
        <time>2019-05-16T10:02:38Z</time>
      </trkpt>
      <trkpt lat="48.69642" lon="2.04386">
        <ele>172</ele>
        <time>2019-05-16T10:02:42Z</time>
      </trkpt>
      <trkpt lat="48.69643" lon="2.04376">
        <ele>172</ele>
        <time>2019-05-16T10:02:46Z</time>
      </trkpt>
      <trkpt lat="48.69644" lon="2.04369">
        <ele>172</ele>
        <time>2019-05-16T10:02:50Z</time>
      </trkpt>
      <trkpt lat="48.69643" lon="2.04358">
        <ele>172</ele>
        <time>2019-05-16T10:02:54Z</time>
      </trkpt>
      <trkpt lat="48.69643" lon="2.04349">
        <ele>172</ele>
        <time>2019-05-16T10:02:58Z</time>
      </trkpt>
      <trkpt lat="48.69643" lon="2.04337">
        <ele>172</ele>
        <time>2019-05-16T10:03:02Z</time>
      </trkpt>
      <trkpt lat="48.69645" lon="2.04326">
        <ele>173</ele>
        <time>2019-05-16T10:03:06Z</time>
      </trkpt>
      <trkpt lat="48.69644" lon="2.04316">
        <ele>173</ele>
        <time>2019-05-16T10:03:10Z</time>
      </trkpt>
      <trkpt lat="48.69645" lon="2.04307">
        <ele>173</ele>
        <time>2019-05-16T10:03:14Z</time>
      </trkpt>
      <trkpt lat="48.69645" lon="2.04298">
        <ele>173</ele>
        <time>2019-05-16T10:03:18Z</time>
      </trkpt>
      <trkpt lat="48.69645" lon="2.04288">
        <ele>173</ele>
        <time>2019-05-16T10:03:22Z</time>
      </trkpt>
      <trkpt lat="48.69644" lon="2.04278">
        <ele>173</ele>
        <time>2019-05-16T10:03:26Z</time>
      </trkpt>
      <trkpt lat="48.69643" lon="2.04268">
        <ele>173</ele>
        <time>2019-05-16T10:03:30Z</time>
      </trkpt>
      <trkpt lat="48.69642" lon="2.04259">
        <ele>173</ele>
        <time>2019-05-16T10:03:34Z</time>
      </trkpt>
      <trkpt lat="48.69643" lon="2.0425">
        <ele>173</ele>
        <time>2019-05-16T10:03:38Z</time>
      </trkpt>
      <trkpt lat="48.69643" lon="2.04242">
        <ele>173</ele>
        <time>2019-05-16T10:03:42Z</time>
      </trkpt>
      <trkpt lat="48.69643" lon="2.04234">
        <ele>174</ele>
        <time>2019-05-16T10:03:46Z</time>
      </trkpt>
      <trkpt lat="48.69642" lon="2.04224">
        <ele>174</ele>
        <time>2019-05-16T10:03:50Z</time>
      </trkpt>
      <trkpt lat="48.6964" lon="2.04216">
        <ele>174</ele>
        <time>2019-05-16T10:03:54Z</time>
      </trkpt>
      <trkpt lat="48.6964" lon="2.04207">
        <ele>174</ele>
        <time>2019-05-16T10:03:58Z</time>
      </trkpt>
      <trkpt lat="48.69641" lon="2.04195">
        <ele>174</ele>
        <time>2019-05-16T10:04:02Z</time>
      </trkpt>
      <trkpt lat="48.69642" lon="2.04188">
        <ele>174</ele>
        <time>2019-05-16T10:04:06Z</time>
      </trkpt>
      <trkpt lat="48.6964" lon="2.04181">
        <ele>174</ele>
        <time>2019-05-16T10:04:10Z</time>
      </trkpt>
      <trkpt lat="48.69641" lon="2.0417">
        <ele>174</ele>
        <time>2019-05-16T10:04:14Z</time>
      </trkpt>
      <trkpt lat="48.69641" lon="2.04158">
        <ele>174</ele>
        <time>2019-05-16T10:04:18Z</time>
      </trkpt>
      <trkpt lat="48.6964" lon="2.04149">
        <ele>174</ele>
        <time>2019-05-16T10:04:22Z</time>
      </trkpt>
      <trkpt lat="48.69641" lon="2.04138">
        <ele>174</ele>
        <time>2019-05-16T10:04:26Z</time>
      </trkpt>
      <trkpt lat="48.69642" lon="2.04131">
        <ele>174</ele>
        <time>2019-05-16T10:04:28Z</time>
      </trkpt>
      <trkpt lat="48.69643" lon="2.04121">
        <ele>175</ele>
        <time>2019-05-16T10:04:32Z</time>
      </trkpt>
      <trkpt lat="48.69644" lon="2.04109">
        <ele>175</ele>
        <time>2019-05-16T10:04:36Z</time>
      </trkpt>
      <trkpt lat="48.69645" lon="2.04099">
        <ele>175</ele>
        <time>2019-05-16T10:04:40Z</time>
      </trkpt>
      <trkpt lat="48.69645" lon="2.04092">
        <ele>175</ele>
        <time>2019-05-16T10:04:44Z</time>
      </trkpt>
      <trkpt lat="48.69645" lon="2.0408">
        <ele>175</ele>
        <time>2019-05-16T10:04:50Z</time>
      </trkpt>
      <trkpt lat="48.69644" lon="2.04071">
        <ele>175</ele>
        <time>2019-05-16T10:04:54Z</time>
      </trkpt>
      <trkpt lat="48.69644" lon="2.04064">
        <ele>175</ele>
        <time>2019-05-16T10:04:58Z</time>
      </trkpt>
      <trkpt lat="48.69644" lon="2.04055">
        <ele>175</ele>
        <time>2019-05-16T10:05:02Z</time>
      </trkpt>
      <trkpt lat="48.69644" lon="2.04043">
        <ele>175</ele>
        <time>2019-05-16T10:05:06Z</time>
      </trkpt>
      <trkpt lat="48.69644" lon="2.04034">
        <ele>175</ele>
        <time>2019-05-16T10:05:10Z</time>
      </trkpt>
      <trkpt lat="48.69644" lon="2.04025">
        <ele>175</ele>
        <time>2019-05-16T10:05:14Z</time>
      </trkpt>
      <trkpt lat="48.69644" lon="2.04014">
        <ele>175</ele>
        <time>2019-05-16T10:05:18Z</time>
      </trkpt>
      <trkpt lat="48.69645" lon="2.04005">
        <ele>175</ele>
        <time>2019-05-16T10:05:22Z</time>
      </trkpt>
      <trkpt lat="48.69643" lon="2.03996">
        <ele>174</ele>
        <time>2019-05-16T10:05:26Z</time>
      </trkpt>
      <trkpt lat="48.69642" lon="2.03987">
        <ele>174</ele>
        <time>2019-05-16T10:05:30Z</time>
      </trkpt>
      <trkpt lat="48.69642" lon="2.03979">
        <ele>174</ele>
        <time>2019-05-16T10:05:34Z</time>
      </trkpt>
      <trkpt lat="48.69641" lon="2.03971">
        <ele>174</ele>
        <time>2019-05-16T10:05:38Z</time>
      </trkpt>
      <trkpt lat="48.69642" lon="2.03961">
        <ele>174</ele>
        <time>2019-05-16T10:05:42Z</time>
      </trkpt>
      <trkpt lat="48.69643" lon="2.03954">
        <ele>174</ele>
        <time>2019-05-16T10:05:44Z</time>
      </trkpt>
      <trkpt lat="48.69642" lon="2.03944">
        <ele>174</ele>
        <time>2019-05-16T10:05:48Z</time>
      </trkpt>
      <trkpt lat="48.69643" lon="2.03935">
        <ele>174</ele>
        <time>2019-05-16T10:05:52Z</time>
      </trkpt>
      <trkpt lat="48.69643" lon="2.03926">
        <ele>173</ele>
        <time>2019-05-16T10:05:56Z</time>
      </trkpt>
      <trkpt lat="48.69643" lon="2.03916">
        <ele>172</ele>
        <time>2019-05-16T10:06:00Z</time>
      </trkpt>
      <trkpt lat="48.69644" lon="2.03906">
        <ele>172</ele>
        <time>2019-05-16T10:06:04Z</time>
      </trkpt>
      <trkpt lat="48.69644" lon="2.03896">
        <ele>172</ele>
        <time>2019-05-16T10:06:08Z</time>
      </trkpt>
      <trkpt lat="48.69644" lon="2.03887">
        <ele>172</ele>
        <time>2019-05-16T10:06:12Z</time>
      </trkpt>
      <trkpt lat="48.69645" lon="2.03877">
        <ele>172</ele>
        <time>2019-05-16T10:06:16Z</time>
      </trkpt>
      <trkpt lat="48.69645" lon="2.0387">
        <ele>172</ele>
        <time>2019-05-16T10:06:22Z</time>
      </trkpt>
      <trkpt lat="48.69644" lon="2.03863">
        <ele>172</ele>
        <time>2019-05-16T10:06:32Z</time>
      </trkpt>
      <trkpt lat="48.69647" lon="2.03856">
        <ele>172</ele>
        <time>2019-05-16T10:06:42Z</time>
      </trkpt>
      <trkpt lat="48.69647" lon="2.03849">
        <ele>172</ele>
        <time>2019-05-16T10:07:20Z</time>
      </trkpt>
      <trkpt lat="48.69647" lon="2.03841">
        <ele>172</ele>
        <time>2019-05-16T10:07:58Z</time>
      </trkpt>
      <trkpt lat="48.69646" lon="2.03833">
        <ele>171</ele>
        <time>2019-05-16T10:08:22Z</time>
      </trkpt>
      <trkpt lat="48.69641" lon="2.03828">
        <ele>171</ele>
        <time>2019-05-16T10:08:30Z</time>
      </trkpt>
      <trkpt lat="48.69637" lon="2.03824">
        <ele>171</ele>
        <time>2019-05-16T10:08:36Z</time>
      </trkpt>
      <trkpt lat="48.69633" lon="2.03821">
        <ele>171</ele>
        <time>2019-05-16T10:08:40Z</time>
      </trkpt>
      <trkpt lat="48.69628" lon="2.0382">
        <ele>171</ele>
        <time>2019-05-16T10:08:44Z</time>
      </trkpt>
      <trkpt lat="48.69624" lon="2.03817">
        <ele>171</ele>
        <time>2019-05-16T10:08:48Z</time>
      </trkpt>
      <trkpt lat="48.69618" lon="2.03814">
        <ele>171</ele>
        <time>2019-05-16T10:08:52Z</time>
      </trkpt>
      <trkpt lat="48.69612" lon="2.03809">
        <ele>171</ele>
        <time>2019-05-16T10:08:58Z</time>
      </trkpt>
      <trkpt lat="48.69607" lon="2.03807">
        <ele>171</ele>
        <time>2019-05-16T10:09:02Z</time>
      </trkpt>
      <trkpt lat="48.69602" lon="2.03805">
        <ele>171</ele>
        <time>2019-05-16T10:09:06Z</time>
      </trkpt>
      <trkpt lat="48.69597" lon="2.03801">
        <ele>171</ele>
        <time>2019-05-16T10:09:10Z</time>
      </trkpt>
      <trkpt lat="48.69592" lon="2.03798">
        <ele>171</ele>
        <time>2019-05-16T10:09:16Z</time>
      </trkpt>
      <trkpt lat="48.69584" lon="2.03794">
        <ele>171</ele>
        <time>2019-05-16T10:09:20Z</time>
      </trkpt>
      <trkpt lat="48.69579" lon="2.03792">
        <ele>170</ele>
        <time>2019-05-16T10:09:24Z</time>
      </trkpt>
      <trkpt lat="48.69574" lon="2.03789">
        <ele>169</ele>
        <time>2019-05-16T10:09:28Z</time>
      </trkpt>
      <trkpt lat="48.69568" lon="2.03787">
        <ele>169</ele>
        <time>2019-05-16T10:09:32Z</time>
      </trkpt>
      <trkpt lat="48.69563" lon="2.03783">
        <ele>169</ele>
        <time>2019-05-16T10:09:36Z</time>
      </trkpt>
      <trkpt lat="48.69558" lon="2.03778">
        <ele>169</ele>
        <time>2019-05-16T10:09:40Z</time>
      </trkpt>
      <trkpt lat="48.69552" lon="2.03773">
        <ele>169</ele>
        <time>2019-05-16T10:09:44Z</time>
      </trkpt>
      <trkpt lat="48.69547" lon="2.03768">
        <ele>169</ele>
        <time>2019-05-16T10:09:48Z</time>
      </trkpt>
      <trkpt lat="48.69542" lon="2.03762">
        <ele>169</ele>
        <time>2019-05-16T10:09:52Z</time>
      </trkpt>
      <trkpt lat="48.69536" lon="2.03757">
        <ele>168</ele>
        <time>2019-05-16T10:09:56Z</time>
      </trkpt>
      <trkpt lat="48.6953" lon="2.03752">
        <ele>168</ele>
        <time>2019-05-16T10:10:00Z</time>
      </trkpt>
      <trkpt lat="48.69525" lon="2.0375">
        <ele>167</ele>
        <time>2019-05-16T10:10:04Z</time>
      </trkpt>
      <trkpt lat="48.69519" lon="2.03745">
        <ele>167</ele>
        <time>2019-05-16T10:10:10Z</time>
      </trkpt>
      <trkpt lat="48.69513" lon="2.03742">
        <ele>166</ele>
        <time>2019-05-16T10:10:14Z</time>
      </trkpt>
      <trkpt lat="48.69507" lon="2.03739">
        <ele>166</ele>
        <time>2019-05-16T10:10:18Z</time>
      </trkpt>
      <trkpt lat="48.69502" lon="2.03737">
        <ele>166</ele>
        <time>2019-05-16T10:10:22Z</time>
      </trkpt>
      <trkpt lat="48.69497" lon="2.03736">
        <ele>165</ele>
        <time>2019-05-16T10:10:26Z</time>
      </trkpt>
      <trkpt lat="48.69492" lon="2.03733">
        <ele>165</ele>
        <time>2019-05-16T10:10:30Z</time>
      </trkpt>
      <trkpt lat="48.69486" lon="2.03732">
        <ele>165</ele>
        <time>2019-05-16T10:10:34Z</time>
      </trkpt>
      <trkpt lat="48.69479" lon="2.03728">
        <ele>165</ele>
        <time>2019-05-16T10:10:40Z</time>
      </trkpt>
      <trkpt lat="48.69473" lon="2.03728">
        <ele>164</ele>
        <time>2019-05-16T10:10:46Z</time>
      </trkpt>
      <trkpt lat="48.69469" lon="2.03727">
        <ele>164</ele>
        <time>2019-05-16T10:10:58Z</time>
      </trkpt>
      <trkpt lat="48.69463" lon="2.03726">
        <ele>164</ele>
        <time>2019-05-16T10:11:10Z</time>
      </trkpt>
      <trkpt lat="48.69458" lon="2.03723">
        <ele>164</ele>
        <time>2019-05-16T10:11:28Z</time>
      </trkpt>
    </trkseg>
  </trk>
</gpx>